GFSSGP_sfc_dewp_003.txt.gz
Dewpoint
52 45 35 32 20 23 19 19 30 46 51 54 56 54 54 55 54 52 66 67 68 68 69 68 70 70 71 70 71 71 70 69 69 69 68 67 67 67 66 66 67 65 63 62 62 61 61 61 62
31 32 31 28 17 12 17 23 43 49 51 51 50 49 51 50 56 64 64 68 69 69 69 67 69 70 71 70 71 70 70 69 69 69 68 67 66 66 66 65 66 63 62 61 60 59 59 60 61
32 30 26 24 22 13 19 40 45 48 50 48 50 52 53 52 57 63 66 69 69 68 68 68 69 70 70 70 70 70 70 70 70 69 67 66 65 64 64 63 63 61 59 58 58 58 59 60 61
30 28 22 20 18 19 19 44 46 45 46 45 47 47 56 60 62 64 69 69 68 68 68 69 69 69 70 70 71 71 70 70 70 69 67 66 64 63 62 62 60 59 58 59 60 60 60 61 62
28 23 20 16 15 19 23 43 46 46 46 44 43 47 54 64 66 68 68 68 67 68 68 68 68 69 69 70 71 70 70 69 69 68 67 66 64 63 62 61 60 59 59 61 61 61 61 62 62
27 22 17 13 19 26 31 43 45 43 45 44 47 50 56 66 66 67 68 67 68 67 68 68 69 69 70 70 70 69 68 69 68 68 66 65 65 63 61 61 61 60 60 61 61 61 62 62 63
24 19 15 15 28 26 36 46 45 44 43 46 48 52 61 64 66 67 67 67 68 68 68 68 68 69 69 68 68 68 68 68 68 67 67 66 65 64 62 62 63 63 62 62 63 63 63 63 64
23 18 17 27 27 24 26 41 45 44 45 47 52 54 57 62 66 66 66 66 66 68 67 67 68 68 69 69 67 68 68 67 67 67 66 65 64 64 63 63 62 63 64 64 64 64 64 64 64
21 18 26 24 26 28 32 32 31 44 46 44 44 56 59 65 66 64 64 64 66 66 67 67 67 68 69 69 68 67 67 67 66 65 65 64 62 62 62 63 64 64 64 64 65 65 64 64 63
21 19 19 21 28 32 30 28 37 43 43 42 51 61 63 63 63 62 62 62 63 63 65 66 67 67 68 67 67 66 65 63 63 62 63 63 64 64 63 64 64 64 64 65 64 64 64 62 59
21 18 14 9 0 21 29 23 38 42 40 42 50 59 61 62 61 60 60 61 62 62 63 64 66 67 66 66 65 64 63 63 63 63 63 63 64 64 64 63 62 63 61 57 55 56 56 59 58
15 16 5 1 5 25 25 31 40 36 33 43 55 61 61 61 60 61 61 61 62 63 63 65 64 64 64 62 62 61 60 61 61 62 63 64 62 62 60 57 56 57 55 55 54 53 56 55 52
13 9 12 6 11 22 16 33 37 18 41 48 57 60 61 62 61 61 59 60 60 61 61 61 61 61 61 61 61 61 62 63 64 64 64 63 61 59 57 55 52 52 51 50 50 51 49 47 45
15 11 12 10 8 9 16 14 18 25 42 50 56 58 59 59 57 55 53 54 57 58 59 60 58 58 59 59 61 61 60 60 62 63 61 60 61 58 50 48 48 47 48 48 47 46 43 41 40
13 11 12 15 16 17 17 15 18 31 42 45 52 52 52 52 50 51 49 51 54 57 59 59 59 60 60 60 61 60 58 58 58 58 58 56 53 51 48 47 47 47 46 45 44 41 42 39 36
13 17 11 12 18 19 10 9 30 35 41 40 42 44 45 44 46 48 47 46 55 57 58 58 59 59 59 59 57 54 54 55 55 56 55 49 46 48 49 46 46 43 42 41 41 39 38 38 37
18 10 13 14 26 19 20 23 35 37 41 40 42 43 44 45 48 53 54 51 57 58 58 59 59 58 55 56 52 50 51 48 49 50 47 46 45 46 47 45 44 43 41 42 39 38 38 36 35
13 12 13 15 22 30 31 34 38 41 41 42 43 44 44 45 48 53 56 59 60 59 59 57 57 55 54 54 50 51 49 47 46 41 40 41 41 44 44 44 45 42 41 40 39 38 37 39 39
14 14 14 17 29 33 33 35 37 41 41 43 43 43 44 46 49 52 56 59 59 58 57 56 54 52 51 49 50 50 50 47 40 39 41 41 42 42 44 41 42 42 40 42 41 37 35 34 40
23 23 25 27 30 32 34 35 38 39 40 42 43 43 44 45 48 50 54 58 59 58 57 55 52 48 46 48 50 51 50 44 39 39 41 40 41 40 39 42 41 43 41 43 42 38 34 36 41
26 25 25 26 30 30 31 32 37 40 41 42 42 43 44 45 46 49 52 55 55 53 52 51 48 46 46 47 45 43 43 43 40 38 37 38 40 38 40 43 43 43 43 42 42 40 37 33 37
26 27 30 29 27 24 26 22 34 38 40 41 41 42 43 41 42 42 44 45 46 43 43 43 42 41 41 43 42 43 39 38 40 38 38 39 41 41 39 41 43 44 43 42 41 38 37 35 30
28 31 28 25 24 24 25 25 28 37 39 40 41 41 41 40 38 36 36 37 37 40 42 42 41 40 40 41 41 39 39 39 39 39 41 42 41 41 40 41 42 43 41 42 40 38 34 30 27
32 31 31 30 28 25 24 22 25 34 37 39 40 41 40 38 39 39 40 40 39 40 42 42 39 37 38 39 39 40 39 37 37 39 39 39 40 40 41 41 42 42 41 40 37 35 32 28 27
30 29 27 25 27 24 27 25 26 30 35 39 39 39 40 41 40 41 40 39 40 41 40 37 36 35 37 38 37 37 37 38 36 36 35 37 35 35 39 42 42 40 38 37 36 34 32 29 24
27 28 29 22 25 23 26 25 25 29 33 38 38 39 40 41 42 41 40 38 37 37 37 36 35 33 33 33 31 29 27 24 24 28 29 30 32 34 40 41 40 37 36 36 37 33 30 32 29
25 25 28 27 25 25 25 26 28 31 32 36 37 39 39 40 41 40 39 38 36 35 37 35 27 23 24 26 26 28 28 29 29 31 32 31 37 37 41 39 38 38 37 35 34 32 32 31 32
27 27 24 26 23 20 21 25 25 31 31 34 36 37 39 39 39 39 38 39 39 38 33 29 23 21 24 26 28 28 29 30 31 32 32 33 37 39 39 37 36 37 36 34 33 31 31 31 32
26 25 27 26 25 19 19 20 30 31 33 34 36 37 38 38 38 36 36 38 39 32 26 24 23 23 24 25 28 30 30 32 32 32 32 34 36 37 37 36 35 35 33 32 32 31 30 30 31
26 25 25 24 18 24 25 20 30 32 31 35 34 36 37 38 35 34 32 30 27 24 23 24 24 23 23 25 27 29 31 32 31 32 32 34 34 34 34 35 34 34 33 31 29 29 28 28 27

GFSSGP_sfc_dewp_006.txt.gz
Dewpoint
54 39 28 29 22 19 18 20 40 47 50 53 54 52 52 53 54 52 63 65 65 66 66 66 70 70 70 70 71 71 70 69 69 69 68 67 67 66 66 66 66 64 62 61 59 59 59 59 60
28 23 29 26 19 16 16 21 33 48 49 49 49 49 47 46 56 62 63 66 66 66 66 65 69 70 70 70 70 70 70 69 69 68 67 66 66 65 65 64 64 62 60 58 57 57 58 59 61
24 27 21 16 12 13 17 32 46 46 46 44 46 50 50 47 53 61 65 67 67 66 66 66 69 69 70 70 69 70 70 70 69 68 67 66 64 64 63 63 61 59 58 59 59 59 59 61 62
18 24 23 15 11 11 24 42 44 44 45 45 47 45 51 54 53 61 65 67 67 67 67 67 68 68 68 69 69 70 71 70 70 68 66 65 63 62 62 61 59 59 60 60 60 60 61 62 63
20 21 14 13 13 16 29 42 43 42 41 43 45 46 45 58 62 63 66 67 67 67 67 67 67 68 68 69 70 70 70 70 69 67 66 65 63 61 60 60 60 60 61 61 61 61 62 62 63
17 21 12 12 13 24 22 41 44 41 37 40 43 47 51 63 63 65 67 66 67 65 67 67 68 68 68 69 70 69 69 69 68 67 66 64 63 61 61 61 61 61 61 61 61 61 62 63 63
21 15 11 14 24 29 30 42 42 39 38 40 45 48 60 63 65 66 65 65 66 66 67 67 66 67 68 68 68 68 68 68 67 67 65 64 63 63 62 62 63 63 62 62 62 62 63 63 64
22 16 12 20 27 32 39 42 39 33 36 46 49 47 57 62 65 65 65 65 67 67 66 67 67 67 67 67 68 68 68 67 67 66 65 64 64 62 63 61 63 63 63 63 64 64 65 64 65
24 12 13 26 30 37 42 38 39 38 43 47 46 51 58 63 61 63 63 65 66 65 65 64 64 65 66 65 67 67 67 66 66 64 64 62 58 58 57 62 63 64 65 65 65 64 64 64 64
21 16 20 27 32 31 31 31 38 42 44 44 50 57 61 61 61 61 62 62 61 62 64 65 66 66 66 62 63 61 59 58 58 59 61 59 62 62 61 62 64 64 63 64 61 60 61 60 50
22 17 16 19 29 29 27 28 35 38 41 42 50 57 60 60 60 61 60 61 60 61 63 64 66 66 63 61 58 55 55 58 59 62 63 62 62 62 59 57 56 58 58 53 52 51 49 53 51
21 18 14 6 4 24 26 31 36 34 33 41 54 58 61 60 60 59 59 56 58 59 62 63 61 62 62 56 55 56 56 59 60 61 63 64 62 64 58 54 55 57 53 52 50 49 52 51 48
20 17 12 4 13 28 32 36 36 31 42 50 55 57 58 57 56 54 54 54 55 56 58 60 60 60 59 59 58 59 60 60 63 63 63 62 60 61 58 56 52 51 50 49 48 46 44 43 42
17 10 7 9 19 18 30 29 28 27 44 50 54 53 55 56 53 52 52 52 52 56 58 58 57 58 59 60 62 59 58 60 62 64 64 61 61 61 59 51 48 48 47 46 43 42 40 39 40
14 8 10 15 17 15 13 15 25 35 43 49 49 51 53 53 52 49 49 49 51 56 57 57 59 61 60 58 58 58 57 58 58 61 62 61 60 58 54 49 49 47 46 45 43 41 41 38 37
10 10 8 17 13 16 13 11 29 38 40 45 48 51 52 51 49 49 49 47 51 56 57 57 57 59 59 60 57 57 56 57 56 54 55 53 50 53 51 47 47 44 43 41 41 40 38 38 38
13 5 8 11 22 14 12 13 31 40 39 41 45 47 47 48 49 50 48 48 52 56 57 57 58 58 58 58 55 52 53 50 48 46 45 47 46 47 48 46 46 45 42 43 41 39 39 36 36
9 5 6 7 23 16 19 27 32 39 40 40 42 44 45 46 48 51 49 50 53 57 58 58 56 57 58 56 53 48 46 45 43 42 42 43 43 45 46 45 45 42 39 38 39 40 39 38 39
11 12 9 17 29 29 29 29 32 38 41 43 43 43 43 46 51 53 56 56 56 58 58 57 57 57 55 52 51 48 48 46 43 41 43 43 42 41 43 41 42 42 41 43 43 40 39 37 39
14 12 18 24 29 28 29 32 35 36 40 42 43 44 45 48 51 54 56 57 57 57 56 56 55 55 51 49 48 50 50 45 41 42 43 41 41 39 39 43 41 42 40 42 43 42 37 33 37
22 18 24 18 27 29 29 30 34 39 40 42 43 44 46 49 51 54 56 57 58 57 57 55 53 49 48 47 46 45 45 44 43 41 39 41 42 40 40 42 42 43 41 39 41 40 39 34 33
20 25 24 26 24 18 27 18 33 37 40 41 43 45 47 50 52 54 55 56 57 57 55 51 47 45 44 43 44 45 40 39 40 40 40 40 43 42 40 40 42 43 40 40 40 37 38 35 29
26 30 27 25 23 24 24 19 31 37 38 41 43 46 48 50 50 50 50 50 47 48 47 46 43 41 42 43 43 41 41 39 39 39 40 40 39 40 38 39 41 41 39 40 42 40 35 32 31
31 29 28 27 25 23 21 21 20 33 35 40 42 43 44 44 43 41 42 41 40 43 45 45 42 40 41 41 42 43 41 36 32 29 27 24 23 24 28 29 39 42 42 42 40 38 35 33 30
29 26 22 19 23 22 26 23 20 28 34 40 41 40 42 41 38 37 37 37 40 43 44 42 40 38 40 40 37 34 29 28 24 24 22 24 22 24 28 32 36 39 42 40 38 37 36 33 29
28 25 22 16 22 15 26 19 18 29 33 39 40 39 40 39 39 39 38 40 41 42 41 40 39 37 35 31 26 26 26 24 24 27 28 26 27 29 35 39 41 42 39 36 38 38 34 31 29
26 26 28 28 29 27 19 24 28 30 31 36 36 37 38 38 40 40 41 41 41 40 42 41 34 28 26 27 27 29 29 30 31 31 31 28 31 30 36 41 40 39 37 38 36 33 31 30 29
27 27 26 29 24 19 18 23 20 30 31 34 36 37 37 38 39 42 41 40 40 41 39 36 29 27 26 27 29 29 30 31 31 31 30 31 32 33 36 38 39 37 37 34 33 30 27 27 26
26 24 24 26 28 18 13 10 29 29 33 34 36 37 38 39 40 42 40 41 40 38 34 31 28 27 25 26 29 31 31 30 31 30 30 31 33 32 33 35 37 36 33 32 33 28 25 24 25
27 24 21 21 18 28 30 13 27 33 33 34 35 37 38 40 41 40 40 41 40 34 30 28 28 26 25 26 28 29 30 30 29 29 29 32 32 33 33 33 34 33 32 32 27 25 24 24 24

GFSSGP_sfc_dewp_009.txt.gz
Dewpoint
52 43 29 19 20 19 19 17 20 40 47 51 50 49 49 52 53 52 61 64 64 65 64 65 70 71 70 70 71 71 71 69 69 68 67 66 65 66 65 66 66 62 60 59 58 58 59 61 61
40 26 18 19 20 17 15 16 22 48 50 50 47 46 45 49 56 61 61 64 65 65 64 64 70 70 70 70 70 70 70 69 68 67 66 65 65 64 64 64 64 61 59 58 58 59 60 61 61
31 16 13 10 18 14 14 25 43 46 46 46 45 45 44 45 56 60 63 64 65 66 65 66 69 69 69 69 69 69 70 70 69 67 66 64 63 63 63 62 62 61 60 60 60 60 61 62 63
21 11 18 17 15 15 15 41 44 42 43 45 45 46 45 48 53 61 64 64 65 66 67 68 68 68 69 68 69 69 70 69 69 68 65 64 62 61 60 61 61 61 61 61 61 61 62 63 64
18 10 8 11 14 16 15 41 38 40 43 42 43 42 44 49 57 59 62 65 66 67 67 66 67 67 68 68 68 69 70 69 68 67 65 63 60 60 60 61 61 62 61 61 61 61 62 63 63
9 13 10 11 16 15 17 38 41 43 41 40 40 42 46 56 56 60 65 66 67 68 67 66 67 68 67 67 69 69 69 69 68 66 64 62 62 61 61 61 62 61 61 62 62 62 63 63 64
12 11 12 14 15 18 22 34 42 42 41 40 43 44 53 55 58 62 66 62 67 64 67 67 66 66 68 67 67 68 68 68 67 66 64 63 63 62 62 62 63 63 63 63 63 64 64 64 64
13 15 13 13 15 28 28 35 39 38 38 43 39 41 51 55 63 65 65 66 66 67 67 66 66 66 67 67 67 67 67 67 66 65 64 63 63 62 62 61 63 64 64 64 65 65 64 64 64
18 16 10 14 26 37 37 36 33 34 33 38 52 48 54 59 62 62 64 65 65 66 66 65 64 65 66 66 66 66 67 66 65 64 63 62 58 57 57 62 63 64 64 64 64 62 61 62 63
14 13 12 24 33 38 36 34 39 34 38 42 50 53 58 59 60 60 61 62 61 62 62 64 64 64 64 58 61 58 55 54 56 58 58 56 59 58 53 59 63 64 63 63 62 60 61 60 47
14 17 24 33 30 30 29 28 32 40 39 41 49 53 54 56 58 59 58 55 55 61 62 62 63 63 60 57 53 51 52 55 58 61 58 61 59 60 57 56 55 57 59 52 53 51 49 51 49
18 18 18 15 23 22 24 23 38 43 47 46 47 52 52 56 58 57 57 53 57 60 61 59 58 59 59 53 51 52 55 56 57 59 60 61 58 60 59 56 57 55 52 52 51 49 51 48 45
18 17 16 10 12 23 26 27 27 32 39 44 51 53 51 54 52 52 50 51 53 55 57 56 57 58 57 56 57 58 61 61 61 61 63 60 59 59 57 59 58 57 51 50 50 48 44 42 42
18 18 8 16 21 27 30 26 22 37 41 46 49 48 47 48 47 47 48 49 50 53 56 56 55 57 58 60 60 58 58 58 58 61 62 61 58 58 56 55 54 50 50 48 46 44 42 41 42
14 10 8 22 22 26 20 19 26 39 41 43 43 43 44 44 44 44 46 48 51 53 54 55 59 60 60 58 56 56 56 57 56 58 62 63 60 59 60 53 53 52 48 46 44 44 42 40 40
12 14 20 24 19 13 9 16 26 36 39 40 41 43 45 46 43 42 43 45 52 53 53 56 58 58 57 59 58 59 57 56 55 55 56 54 50 53 53 50 49 47 49 47 47 46 42 42 39
11 8 15 17 12 4 8 16 27 31 37 39 42 44 45 45 44 45 45 45 51 54 55 55 58 57 59 59 56 55 56 51 49 48 47 48 46 46 48 46 47 47 43 43 42 41 42 40 39
12 9 10 8 8 6 11 20 26 29 32 39 41 44 45 46 45 47 46 46 50 55 56 57 57 57 59 55 54 50 48 47 45 44 44 45 44 46 46 44 46 45 41 42 43 45 43 42 39
12 6 5 8 12 10 17 17 23 30 31 34 37 41 44 45 48 50 48 50 52 56 56 57 56 57 55 52 50 48 48 46 44 44 45 45 44 42 44 43 44 44 42 44 44 43 43 39 37
10 10 12 14 18 24 19 22 25 30 32 35 35 38 40 44 48 49 51 52 54 56 57 56 55 55 51 49 47 49 48 45 42 44 45 43 44 42 42 44 43 43 42 43 43 43 40 36 34
12 10 18 17 23 23 20 24 29 31 35 38 39 39 40 45 48 51 53 54 56 56 56 55 54 51 48 49 47 45 45 45 42 41 40 42 44 42 42 43 42 43 41 38 42 39 40 35 33
15 20 20 17 22 16 19 17 25 32 33 36 39 41 43 46 49 52 53 54 56 56 56 52 50 48 47 43 44 46 42 40 42 41 41 40 40 39 35 35 37 40 39 39 38 36 39 37 32
31 26 23 22 22 19 20 15 35 33 32 34 38 41 44 47 50 51 53 54 53 54 53 50 47 43 43 44 45 43 42 40 39 36 33 31 29 27 24 26 32 37 37 39 40 40 39 35 34
28 26 24 21 21 22 16 20 27 29 29 34 39 43 47 49 50 50 50 51 50 50 49 48 43 42 43 44 45 45 40 33 30 28 25 24 24 25 28 28 33 34 35 39 39 40 38 39 36
24 24 19 17 21 20 18 19 19 20 29 33 39 43 46 47 46 44 45 42 43 45 46 44 42 41 43 43 38 34 32 30 28 27 26 28 25 26 30 34 36 35 37 39 39 40 40 39 35
24 20 21 16 18 12 21 16 13 23 24 30 39 41 44 43 41 40 40 39 41 44 44 42 41 41 39 34 31 31 28 27 27 29 28 26 27 28 31 34 37 37 38 39 38 39 40 39 34
21 24 23 24 26 23 15 14 19 28 27 32 39 40 41 40 37 37 37 39 41 43 43 43 41 37 32 32 33 32 31 33 31 30 30 27 29 26 30 34 36 39 38 39 41 36 35 32 31
26 24 23 22 18 18 13 15 12 28 28 31 38 38 39 38 36 38 38 41 42 43 42 44 38 31 32 33 33 31 31 32 32 31 29 29 30 30 31 32 33 35 36 37 34 32 32 31 29
25 21 22 24 28 23 16 13 22 18 27 31 35 37 38 38 37 39 40 42 42 42 42 39 33 32 33 31 31 33 31 31 31 30 29 29 31 30 29 30 32 31 31 31 31 32 32 27 27
27 24 24 26 21 26 29 17 23 27 29 31 33 35 38 37 37 39 42 41 41 42 39 35 33 33 31 30 31 31 32 30 29 29 28 30 30 30 30 31 30 29 29 29 28 28 26 26 26

GFSSGP_sfc_dewp_012.txt.gz
Dewpoint
51 42 39 28 17 19 18 18 18 35 46 47 46 47 50 52 53 51 67 67 64 64 66 67 70 70 70 70 71 71 71 70 69 68 67 67 66 66 66 66 64 63 60 59 60 60 60 60 60
36 33 32 18 15 15 16 17 44 45 47 46 45 45 46 53 59 61 63 65 64 63 63 66 70 70 70 70 70 70 70 69 68 67 66 66 65 64 64 64 64 64 61 60 60 61 62 62 63
48 35 11 11 14 16 15 27 40 48 47 45 44 45 44 51 58 60 64 66 65 63 62 68 70 68 69 69 69 69 69 69 68 67 65 63 62 62 62 65 64 63 61 61 61 62 63 64 65
28 17 11 14 11 15 15 32 44 43 44 44 44 43 44 48 56 60 66 67 66 66 66 68 68 67 68 68 69 70 69 68 68 67 65 62 61 60 62 64 64 62 62 62 62 62 63 65 65
27 13 6 8 14 15 19 42 47 50 50 49 47 40 41 53 56 62 65 66 67 67 67 67 66 67 68 68 70 69 69 68 67 66 65 63 60 61 63 64 64 62 62 62 62 63 64 65 65
15 13 8 6 7 11 16 45 47 50 51 49 50 41 45 54 57 64 66 67 67 66 67 66 67 67 68 68 69 68 68 68 67 66 64 63 64 64 64 65 64 64 64 64 65 65 65 65 64
19 9 7 10 10 20 17 44 43 46 45 42 47 49 53 52 63 63 64 66 66 68 67 66 66 68 68 67 67 67 67 67 66 66 64 64 64 64 64 65 65 65 65 65 66 65 65 65 64
15 13 10 11 12 19 39 44 48 43 39 43 45 43 48 60 64 62 63 63 63 65 67 66 67 67 67 66 66 66 66 66 65 64 63 63 64 64 64 64 65 65 64 64 64 63 62 63 63
12 10 10 12 14 39 46 44 45 45 36 43 44 45 50 61 63 63 64 59 60 63 66 66 66 66 67 66 65 66 66 65 64 63 63 62 60 61 62 63 64 64 63 63 63 61 61 61 62
12 14 15 38 41 42 46 48 45 34 41 47 49 55 55 60 61 62 62 60 59 62 64 64 65 65 65 60 64 62 60 60 60 60 61 61 61 57 55 62 63 63 62 62 62 61 62 61 51
14 13 17 41 44 43 39 44 38 38 43 50 53 55 57 58 59 60 60 59 60 61 62 63 64 65 62 60 59 57 58 60 62 61 62 62 62 62 61 61 61 61 62 57 58 56 54 51 51
13 12 18 38 41 41 34 37 36 40 45 51 54 53 55 56 57 56 57 58 58 59 60 62 61 61 59 56 55 57 59 61 62 62 61 63 63 62 62 60 59 58 57 56 55 53 53 50 48
15 17 16 19 25 27 34 32 36 38 44 47 50 48 53 54 54 53 51 55 57 57 57 57 60 60 60 59 61 62 62 62 63 64 63 63 61 60 59 59 57 58 57 54 50 48 47 46 44
16 17 12 15 19 33 33 34 33 39 43 46 45 46 49 50 49 48 49 51 54 54 56 58 57 60 61 62 61 61 61 61 61 62 64 62 61 60 59 57 53 53 50 48 48 48 47 46 45
19 16 12 21 21 26 40 28 29 40 43 43 42 43 44 45 45 47 49 50 53 55 55 56 59 63 62 61 60 59 56 57 60 62 63 63 59 58 55 53 55 52 50 48 48 47 45 45 43
15 14 13 24 23 22 17 20 29 40 40 39 39 40 41 42 43 46 48 49 53 53 55 57 58 61 61 59 59 60 60 59 55 57 55 53 51 52 53 52 51 51 49 47 46 47 45 44 44
18 14 24 22 24 13 6 18 26 36 37 37 40 41 42 42 42 44 45 50 52 53 56 58 60 60 58 61 59 59 58 53 51 52 52 51 49 50 51 51 52 50 49 48 47 48 47 45 43
16 14 19 16 15 4 6 19 24 30 45 50 39 41 43 43 41 44 44 49 53 55 56 59 59 60 60 59 57 55 54 53 51 50 49 50 48 50 50 51 48 47 47 47 48 47 46 46 43
18 15 12 12 8 6 17 19 22 26 38 39 41 41 43 44 46 46 47 51 55 57 56 58 58 59 59 55 52 52 51 51 49 48 49 48 48 47 47 48 48 48 46 47 46 45 44 43 41
17 15 10 10 11 12 12 17 20 25 27 33 37 41 42 44 45 48 49 50 55 56 57 57 57 57 57 53 54 54 50 49 48 49 48 48 48 46 44 47 46 46 45 45 45 42 42 40 40
15 15 17 13 10 12 28 21 19 23 27 29 32 35 40 43 47 49 49 53 57 57 57 57 57 56 53 53 50 50 49 50 48 47 47 47 46 43 42 43 44 44 43 43 43 41 41 39 38
22 26 19 21 26 14 27 23 36 34 25 30 34 37 38 41 47 49 52 53 58 59 58 56 55 51 51 50 50 50 46 44 46 46 43 40 40 36 31 35 39 40 42 42 43 38 41 40 36
25 28 24 19 19 24 27 23 32 35 31 31 35 39 41 45 47 50 52 56 57 58 57 56 51 47 48 49 49 48 46 46 42 39 37 36 35 35 33 35 39 39 39 40 42 43 42 40 38
27 24 25 18 19 29 26 28 30 33 32 35 34 38 42 45 49 50 54 55 54 56 55 52 46 45 48 48 48 46 42 38 37 33 33 34 34 34 36 37 39 41 41 41 43 42 41 40 38
21 22 20 21 24 25 17 24 30 35 36 45 46 38 43 48 49 50 53 53 52 52 51 48 44 44 47 46 42 41 39 37 36 34 34 33 33 33 36 36 39 40 41 42 41 40 40 40 38
23 16 24 27 28 24 22 20 16 30 37 44 43 42 46 48 50 49 49 50 49 48 48 45 43 43 44 40 37 38 37 35 35 36 33 34 33 34 34 37 38 39 41 39 40 41 41 40 39
14 19 21 22 34 27 18 12 10 24 23 26 38 41 45 46 46 46 46 44 45 46 47 46 43 42 38 37 39 39 38 38 38 36 34 34 33 29 34 36 37 38 37 39 40 40 38 36 35
24 21 24 26 24 20 13 16 20 25 26 27 37 40 42 44 42 42 42 42 44 46 45 48 44 40 35 38 40 37 38 39 38 36 33 32 33 33 34 35 35 36 37 39 38 37 35 34 34
23 21 21 19 30 32 28 17 21 21 25 30 33 41 41 43 41 39 38 41 43 45 45 45 43 36 35 37 38 39 37 38 37 34 33 32 33 33 33 33 34 33 33 33 34 33 32 33 31
24 26 21 35 26 35 36 23 23 26 25 31 32 37 40 41 40 38 39 41 43 44 43 44 41 35 36 37 36 37 38 37 35 34 32 33 32 33 32 33 33 33 33 33 33 32 30 31 32

GFSSGP_sfc_dewp_015.txt.gz
Dewpoint
54 50 44 37 22 19 16 16 23 45 47 47 51 53 56 57 56 52 67 66 66 68 69 69 70 70 70 71 71 70 70 69 68 68 68 67 66 64 65 65 64 64 62 61 61 62 62 62 62
43 35 34 32 14 13 16 30 46 46 46 46 46 48 53 56 61 65 64 66 65 67 67 68 70 70 70 70 70 70 69 68 68 67 66 66 65 64 65 66 65 64 62 62 62 62 62 62 63
48 44 34 18 14 12 15 35 47 46 46 44 43 44 47 57 62 64 65 65 65 65 67 68 69 69 69 70 70 69 68 68 67 66 65 64 63 63 64 65 65 64 62 62 62 62 62 63 65
38 27 14 9 10 12 15 33 48 47 50 48 47 43 45 55 60 64 66 64 64 66 68 67 67 68 69 69 69 69 68 67 66 65 64 62 62 63 64 65 64 62 62 62 62 62 63 65 64
34 25 6 7 9 14 26 46 50 50 51 48 47 41 48 59 65 66 66 67 66 66 66 66 66 67 68 69 69 68 68 67 66 65 64 63 63 63 64 65 64 63 62 62 62 63 64 64 64
29 17 10 6 4 6 44 48 49 49 49 48 46 44 50 63 64 66 66 66 66 66 66 67 68 68 68 67 68 67 67 66 65 65 65 64 65 65 65 65 65 65 65 65 65 65 64 64 64
26 19 12 7 7 29 44 47 47 47 46 46 48 52 55 61 63 65 65 66 66 65 64 66 67 65 67 66 66 66 66 66 64 64 65 64 64 65 65 66 66 65 64 64 64 63 62 63 63
21 17 14 12 12 36 44 46 47 45 45 46 49 46 51 61 63 63 62 63 65 64 63 64 66 66 66 65 65 65 65 64 63 64 63 63 64 64 65 64 65 64 63 62 63 61 61 61 62
21 12 9 29 41 42 48 44 45 47 45 47 52 50 61 60 61 60 60 62 61 63 62 64 63 65 64 65 64 64 65 63 63 63 63 62 60 61 62 62 63 62 61 61 62 61 61 61 59
19 13 15 40 42 44 45 43 43 42 47 52 48 55 61 61 60 57 56 58 60 61 61 61 63 65 65 62 63 62 61 61 59 59 60 59 60 59 59 62 63 63 62 61 61 61 61 58 48
18 13 30 39 39 43 41 45 47 43 44 48 48 51 59 60 59 57 56 58 59 62 63 62 64 64 62 60 61 59 58 59 61 59 59 60 60 61 60 59 60 60 60 57 57 52 50 46 46
16 15 14 38 39 43 41 45 44 43 45 52 52 55 56 58 58 56 58 59 60 62 62 62 64 63 59 61 59 56 57 60 60 60 60 61 61 59 58 57 57 56 56 51 50 49 47 44 44
16 16 19 35 36 40 42 41 38 43 45 48 53 55 56 56 58 57 57 60 60 60 61 60 57 57 55 57 61 61 60 61 62 62 62 61 59 57 57 56 54 51 48 48 47 46 43 43 43
18 16 12 16 29 35 34 37 38 39 47 48 52 53 55 55 55 56 56 57 57 57 57 56 56 58 59 57 58 57 58 57 61 62 62 60 60 59 55 52 51 48 47 47 46 43 42 42 42
22 17 17 24 34 34 32 35 38 41 45 46 47 52 53 50 49 53 55 54 54 55 55 55 57 59 58 58 57 55 56 58 59 55 57 57 56 53 49 51 49 47 46 44 44 44 45 44 43
19 18 15 23 26 34 31 29 41 44 44 42 43 43 48 46 48 49 52 53 54 54 53 55 60 59 58 56 56 57 57 54 54 52 52 50 50 50 50 49 48 47 47 46 46 46 44 44 43
22 18 25 22 22 26 27 28 39 40 41 39 40 41 41 43 46 47 53 53 53 53 53 59 59 56 55 56 58 56 50 50 50 50 49 47 48 48 49 49 47 45 46 47 46 45 45 43 43
17 23 24 22 19 22 12 23 37 40 40 44 43 44 41 41 43 46 51 52 54 54 57 59 57 56 57 58 55 53 50 50 49 47 47 46 46 45 47 48 47 46 45 45 44 43 44 44 40
21 18 21 20 20 14 17 22 32 39 42 39 46 52 49 41 43 44 50 52 55 57 58 58 58 56 58 54 52 51 49 46 46 46 45 46 46 46 44 44 43 44 43 43 43 43 39 39 39
23 22 19 16 10 8 19 21 24 40 41 39 48 50 51 45 44 43 48 53 54 56 57 57 57 57 58 52 50 50 46 45 45 46 46 45 44 43 43 43 43 42 42 41 41 39 38 39 37
23 24 21 18 15 17 23 25 30 32 36 43 46 48 46 44 44 46 48 54 54 55 56 56 56 55 55 51 48 46 46 46 46 45 45 43 37 30 31 36 36 36 39 40 40 39 39 36 36
24 26 28 23 23 18 20 23 34 30 29 32 37 41 43 44 47 48 50 53 55 57 56 57 55 50 50 47 45 43 44 42 43 41 35 31 32 31 31 35 36 36 37 35 39 40 40 37 35
23 26 29 30 23 28 24 25 31 32 28 32 34 37 39 46 48 49 51 56 56 58 59 56 48 46 47 46 45 44 43 38 35 33 31 29 32 32 33 35 35 37 39 39 41 40 39 38 36
29 28 27 28 25 26 27 26 31 32 31 33 38 36 41 46 48 51 54 56 57 58 54 47 44 45 46 46 43 39 34 32 30 30 31 30 32 33 35 33 37 37 39 41 40 39 39 38 36
31 28 24 22 26 25 30 29 27 34 32 34 37 36 41 46 50 53 54 53 54 52 48 43 44 45 43 38 35 34 32 30 28 30 31 30 30 31 31 33 35 37 40 39 39 39 39 38 37
27 24 27 21 26 28 31 26 25 28 34 37 37 38 41 47 49 53 53 53 51 47 43 42 44 44 40 36 34 32 32 33 32 32 31 32 31 31 30 33 34 35 38 39 39 39 38 38 37
25 25 27 32 34 32 29 25 26 33 35 40 39 40 44 48 50 53 52 50 47 45 44 43 43 42 37 35 35 33 33 34 34 32 32 32 32 28 31 32 32 34 36 38 38 38 37 37 33
26 26 24 30 24 20 16 20 24 29 30 38 41 40 46 48 48 49 47 46 46 45 45 43 42 38 35 36 36 34 35 35 34 33 31 31 32 30 31 31 32 32 32 34 37 36 35 32 35
25 23 22 25 28 22 24 22 22 24 28 35 40 43 45 45 44 44 43 44 44 45 45 44 42 35 35 37 35 36 35 36 34 33 32 31 31 31 30 32 32 32 32 32 31 31 28 32 32
23 26 28 25 19 29 27 24 24 21 24 27 32 41 43 44 42 40 40 42 43 44 44 43 40 34 36 36 36 36 36 35 34 34 32 32 30 31 30 31 32 33 33 32 32 32 31 31 32

GFSSGP_sfc_dewp_018.txt.gz
Dewpoint
54 49 43 36 23 18 16 16 19 39 46 49 56 56 57 58 56 47 66 67 68 69 69 69 69 70 70 71 70 70 69 68 67 67 67 66 65 65 65 65 65 65 63 62 61 61 61 61 62
45 39 34 31 15 12 13 19 41 46 46 46 45 52 56 57 63 64 64 67 67 68 68 68 69 70 71 70 70 68 67 67 67 66 65 65 64 65 66 65 65 65 63 61 61 61 61 62 63
43 43 37 25 14 11 12 34 46 48 47 44 43 44 53 59 63 63 65 65 66 66 67 68 69 70 70 70 69 68 68 67 67 66 64 64 64 64 65 65 65 64 62 61 61 61 62 64 64
39 28 25 8 7 10 15 30 47 46 47 47 43 43 53 63 64 65 65 65 66 66 67 68 68 70 69 69 68 68 67 66 66 65 65 65 64 64 65 65 65 62 62 62 62 62 63 64 64
35 22 10 7 7 9 17 41 50 50 50 47 43 45 53 62 65 65 65 66 66 66 66 66 67 67 67 68 68 68 67 66 65 65 65 65 65 64 66 65 65 64 62 62 62 63 64 63 64
31 18 10 7 9 26 46 48 49 50 50 47 43 51 58 64 64 65 66 65 65 65 66 66 67 67 67 67 67 67 66 65 65 65 65 65 65 65 66 66 65 65 65 64 64 63 63 63 63
32 23 18 16 14 31 44 49 49 48 47 46 51 52 59 61 63 65 65 64 64 65 65 64 64 65 65 65 66 66 65 64 65 65 65 65 65 65 65 65 65 65 64 63 62 62 61 62 62
28 20 16 12 38 41 47 47 46 47 45 47 48 48 55 60 63 64 62 62 62 63 63 61 62 62 65 65 65 65 65 64 64 65 64 64 64 65 65 64 64 63 62 61 60 61 61 61 62
19 15 12 18 38 40 47 45 45 48 48 50 53 57 59 61 61 61 61 60 61 63 63 61 62 65 64 64 64 64 64 63 63 63 63 62 61 61 61 62 62 62 61 60 59 60 62 59 59
21 16 15 23 42 43 43 42 43 46 49 51 55 58 60 60 59 59 58 57 57 58 60 62 61 64 64 62 63 61 61 60 59 59 59 58 59 59 60 62 62 61 61 61 59 61 56 51 46
20 18 21 39 40 43 43 43 46 45 47 47 53 56 58 58 58 58 58 58 54 56 59 60 62 63 62 60 61 60 59 58 58 58 58 59 59 60 58 57 58 57 56 50 50 47 45 44 43
18 18 19 38 41 40 40 44 45 45 45 51 57 56 58 57 57 57 57 58 58 59 59 59 62 64 62 60 59 57 57 59 60 60 60 60 59 57 55 56 56 52 50 47 47 46 44 43 42
18 18 17 34 38 40 42 42 39 41 49 53 56 57 57 55 55 57 57 58 60 61 61 60 62 63 60 59 57 58 60 61 61 61 61 59 57 56 53 50 49 47 47 46 44 43 42 42 42
25 18 17 36 38 38 39 40 38 41 50 52 54 55 57 56 56 57 57 58 60 61 61 61 61 57 58 59 59 58 60 61 62 61 60 59 58 54 52 50 47 46 45 45 44 43 43 43 42
28 16 25 31 33 34 37 36 40 42 48 51 52 54 55 56 55 56 57 59 60 60 59 56 57 59 57 56 55 58 60 59 57 58 58 58 57 53 51 48 47 47 46 44 45 44 44 43 43
24 17 16 27 32 34 33 34 40 44 45 46 47 52 54 56 56 57 59 58 58 57 54 57 59 58 57 55 56 57 56 55 53 52 51 50 50 51 49 47 45 45 47 46 45 45 43 43 43
21 16 24 21 25 32 29 38 42 43 44 45 48 51 49 52 54 56 56 55 56 55 54 59 58 56 54 56 57 54 51 49 49 49 48 48 48 49 49 47 45 46 45 45 44 43 44 43 40
19 22 24 21 21 30 30 34 41 42 41 43 44 45 45 48 50 54 53 54 55 53 57 59 56 54 56 57 52 50 49 49 48 47 46 45 45 48 47 45 45 44 43 43 42 40 40 41 40
23 21 21 22 23 20 22 33 39 40 42 44 47 46 46 47 49 53 54 53 53 55 58 57 54 56 56 53 50 49 47 46 46 44 45 46 45 44 44 43 43 43 41 41 42 40 37 37 37
25 21 21 23 21 15 22 34 37 40 40 43 46 47 44 46 46 52 52 53 53 56 58 56 54 56 55 51 50 48 45 45 45 45 45 44 44 43 40 40 36 38 39 40 39 38 37 39 37
23 24 25 21 14 22 23 25 32 38 41 42 44 44 43 45 43 49 52 52 54 57 57 56 55 55 56 52 49 46 46 46 45 44 44 36 32 31 35 35 35 35 36 35 36 39 38 36 36
22 23 27 26 20 16 20 21 29 31 32 41 41 45 42 47 43 46 51 52 54 57 57 57 56 56 56 51 48 44 42 42 44 42 34 30 32 34 35 35 36 36 38 36 38 40 38 36 34
25 28 26 29 25 23 25 24 25 34 25 37 41 44 44 46 43 44 52 52 54 57 57 56 56 55 52 48 48 44 44 42 38 34 30 31 33 35 34 35 37 37 40 40 39 39 37 36 35
28 26 29 28 27 24 28 23 24 31 28 26 35 43 44 44 46 50 53 53 54 57 58 57 49 48 47 46 45 44 38 34 31 30 30 31 33 35 33 35 36 37 40 39 39 39 38 37 36
28 27 23 19 23 22 30 26 25 28 33 33 34 36 41 43 49 52 54 54 56 57 52 47 45 46 47 43 41 36 32 30 29 29 31 31 31 32 30 33 34 36 40 39 39 39 38 37 36
26 24 23 18 23 22 31 27 28 31 31 34 33 37 44 48 50 52 54 55 55 53 47 45 45 42 41 40 39 37 31 31 32 32 32 32 32 31 33 33 34 35 38 38 38 38 36 37 37
24 22 27 30 32 28 28 27 21 34 35 36 37 38 43 48 52 53 53 54 52 47 44 47 45 39 39 40 39 38 34 34 34 32 32 32 32 31 33 32 33 33 33 37 38 37 36 36 35
27 25 23 29 23 23 20 22 23 30 33 35 39 38 40 48 51 53 52 50 49 44 43 44 43 39 42 42 39 39 36 35 34 33 32 33 33 32 32 32 32 32 32 32 34 34 33 31 33
28 24 23 27 27 21 22 22 21 26 31 32 38 40 41 48 50 51 50 48 46 43 42 43 41 39 40 42 39 36 34 35 33 32 33 33 32 32 32 32 31 32 31 32 31 31 30 32 32
30 25 24 24 18 27 26 23 27 23 26 34 38 40 44 47 49 49 49 47 45 44 43 43 41 40 38 34 34 35 37 36 34 33 33 34 32 32 31 30 31 32 33 33 31 31 31 31 31

GFSSGP_sfc_dewp_021.txt.gz
Dewpoint
53 48 41 35 25 19 16 17 17 30 48 52 57 56 57 58 53 45 64 66 68 67 69 69 69 70 71 71 70 69 68 67 66 65 66 65 65 66 66 66 66 65 63 61 61 61 61 61 64
44 40 34 26 15 13 12 17 23 41 48 50 52 56 57 58 62 64 64 67 67 68 68 68 69 70 70 70 69 68 67 66 66 64 64 65 64 65 66 66 65 64 63 61 61 62 62 62 64
42 41 35 24 14 11 12 22 45 47 49 47 45 49 56 59 62 63 66 67 68 68 68 68 69 70 70 69 68 67 67 67 66 65 64 64 64 64 65 66 65 64 62 62 61 62 62 64 63
39 34 22 8 8 11 12 18 47 46 47 48 46 48 58 64 63 64 66 66 66 67 67 68 69 69 69 68 68 68 67 66 65 65 66 65 65 64 65 66 65 62 62 61 61 62 64 64 62
32 21 12 10 6 8 26 47 47 48 49 49 49 54 58 64 64 64 66 66 66 66 67 67 68 68 68 68 68 67 67 66 66 66 66 66 66 65 66 65 65 64 62 62 61 63 64 63 62
30 18 10 7 10 12 46 48 49 49 49 48 52 54 58 65 64 65 66 65 65 64 64 66 67 67 66 67 67 66 66 65 66 66 66 66 66 66 66 66 65 65 64 64 63 62 63 64 62
27 22 18 15 18 35 44 48 48 48 46 46 52 53 59 62 64 64 64 64 62 62 62 62 64 63 64 65 66 65 65 65 66 66 66 65 66 65 65 65 65 64 63 62 62 62 62 63 62
29 22 19 12 35 37 45 46 45 45 45 49 51 53 55 61 63 63 63 61 59 60 61 61 62 63 64 64 64 64 64 64 65 65 65 64 65 65 64 64 64 62 62 62 62 62 62 64 60
21 17 13 12 40 37 45 43 45 51 51 56 57 57 60 62 61 60 61 61 58 59 60 60 60 60 63 64 64 64 64 64 64 64 63 62 61 61 60 62 62 61 61 61 62 61 58 57 59
21 19 18 18 38 40 43 43 45 48 52 54 55 60 61 60 60 58 59 59 57 58 58 58 58 60 63 63 62 61 60 60 60 60 59 59 59 60 60 61 61 61 61 60 59 57 54 48 45
20 19 18 33 40 43 41 43 46 47 46 52 55 57 58 59 59 59 58 57 58 58 59 60 61 62 63 60 61 60 59 58 58 58 57 58 59 59 58 56 56 53 53 46 46 45 44 42 44
19 19 22 26 40 41 42 45 45 46 48 55 56 56 57 57 57 58 57 57 56 58 60 60 61 63 62 60 59 58 57 58 58 58 59 59 57 55 55 54 51 48 48 45 45 45 43 42 43
19 18 18 28 40 40 43 40 39 45 54 56 57 56 56 56 57 57 58 58 56 56 57 58 60 63 61 59 57 56 57 60 60 60 60 58 56 53 49 48 47 47 46 44 43 42 42 42 42
24 26 22 31 38 40 39 40 41 46 56 55 55 55 53 53 55 56 57 58 60 59 58 59 60 62 60 58 57 57 60 61 61 60 59 57 54 52 50 47 46 45 45 44 44 43 43 42 42
29 20 29 34 37 39 38 36 38 46 53 55 56 55 53 54 55 55 57 57 59 60 60 60 60 60 58 58 58 59 61 60 59 59 58 57 54 52 48 47 47 46 45 45 44 44 44 43 42
24 17 26 30 33 37 35 35 41 48 51 52 54 55 53 55 55 56 56 58 60 60 59 58 59 58 57 55 57 59 58 57 56 56 55 52 51 49 47 46 45 46 46 45 44 44 43 43 39
20 15 22 28 30 35 32 38 42 47 48 50 50 55 56 55 54 55 57 59 60 59 56 57 58 57 55 56 57 56 56 52 50 50 49 49 49 49 46 45 46 45 44 44 42 43 42 41 38
18 19 23 21 25 31 31 39 42 45 46 47 49 52 54 55 54 56 57 58 58 57 55 58 57 55 55 55 52 52 49 49 48 48 47 46 49 47 46 45 44 44 42 41 41 37 38 40 38
24 21 20 22 22 26 31 37 41 43 44 45 46 48 51 54 55 56 57 55 57 55 58 57 55 54 56 51 48 47 47 46 46 45 45 46 46 44 43 44 42 41 40 41 40 38 36 37 36
25 22 21 23 23 20 21 34 39 41 42 44 46 47 48 51 51 55 54 54 54 54 57 56 54 56 55 50 48 47 46 45 44 45 44 44 44 43 42 38 35 36 36 36 38 38 37 38 36
24 24 24 24 20 23 27 29 37 40 40 42 44 46 46 48 49 53 53 53 53 54 57 56 54 56 54 51 47 46 45 45 44 43 43 37 36 34 34 35 35 35 35 34 35 38 37 35 34
23 26 25 25 19 19 21 23 29 36 39 39 41 44 44 45 47 52 53 52 53 54 56 57 55 56 54 50 47 44 46 42 43 43 34 30 34 35 35 35 37 37 38 37 40 39 38 35 34
24 28 26 26 26 23 24 21 22 33 37 37 37 40 44 45 44 49 52 52 53 55 56 57 55 55 55 50 48 47 48 46 41 33 30 31 35 35 35 37 37 39 41 40 38 37 36 36 34
28 26 28 29 27 22 24 23 22 30 33 37 35 39 41 45 47 46 52 53 53 56 57 58 56 55 55 52 49 47 48 43 34 30 31 33 35 34 35 36 37 40 40 40 39 38 37 36 35
28 25 21 19 22 21 29 25 25 26 30 31 31 35 41 44 46 47 51 52 53 56 57 57 55 55 55 51 49 47 45 43 36 30 33 33 33 31 33 33 35 40 41 40 40 38 37 37 35
26 24 23 17 20 19 30 25 25 30 31 32 33 34 38 44 45 48 51 53 54 55 56 56 51 51 47 48 46 42 39 35 32 31 32 33 32 31 33 34 35 40 39 38 39 38 36 37 36
26 22 26 29 30 27 24 28 21 27 32 35 36 40 43 43 48 50 52 54 55 55 55 53 50 48 45 46 43 39 36 35 33 33 33 33 33 33 33 35 35 34 35 37 38 38 36 36 35
26 28 21 27 21 21 22 20 21 27 29 35 38 37 42 48 50 52 53 54 55 55 52 49 47 45 44 42 41 42 39 37 33 33 32 32 33 34 35 34 33 33 32 33 35 35 33 31 31
26 24 24 26 26 21 20 21 24 26 28 30 31 38 38 47 51 52 53 54 54 51 47 46 43 41 40 41 41 42 37 36 34 33 33 33 34 34 33 33 33 32 32 33 31 31 29 31 30
28 26 24 24 19 26 25 22 26 23 24 27 30 35 40 43 49 52 52 51 47 45 45 45 43 41 40 40 40 38 39 35 33 32 35 35 32 34 33 33 32 33 33 33 32 31 31 31 31

GFSSGP_sfc_dewp_027.txt.gz
Dewpoint
55 43 40 30 22 21 15 14 19 17 35 56 57 52 53 55 51 47 65 67 67 67 66 67 69 69 69 69 69 68 68 67 67 67 67 67 67 67 66 66 66 66 66 66 67 67 66 67 67
42 35 34 26 16 10 4 15 21 43 47 51 52 57 55 55 60 62 64 67 67 67 65 65 69 69 69 69 68 68 67 67 67 67 67 67 67 67 66 66 65 65 65 65 66 67 67 67 67
39 38 31 25 17 10 10 16 36 47 48 47 49 57 58 58 62 63 66 67 68 67 65 66 69 68 69 68 67 67 67 66 67 67 67 67 67 67 66 66 65 65 64 62 63 64 65 65 66
37 34 18 17 15 14 14 14 40 42 47 47 53 55 60 63 64 66 67 67 68 67 66 67 68 68 68 68 67 67 66 66 66 66 67 67 67 66 66 66 65 65 64 60 62 63 63 64 64
27 24 21 12 8 9 12 44 49 46 46 52 52 53 56 63 64 65 67 67 67 67 67 67 67 67 68 68 67 66 66 66 66 66 66 66 66 66 67 66 65 65 65 63 62 63 64 64 64
28 19 15 10 9 11 29 47 49 47 49 51 53 53 58 64 62 63 64 64 65 66 66 67 66 66 66 67 66 66 67 67 66 66 67 67 67 66 66 66 65 65 65 65 63 64 64 64 63
27 22 15 14 17 31 42 48 48 47 46 51 54 53 59 61 62 62 62 63 64 64 63 63 64 63 63 65 66 66 67 67 67 67 67 67 66 66 65 65 64 64 65 65 63 62 64 63 60
28 24 19 17 17 23 43 45 48 46 48 53 55 52 55 60 61 60 61 61 62 62 62 60 60 61 62 64 65 66 66 66 66 66 66 65 65 65 65 64 64 64 63 65 63 62 62 60 58
23 21 16 16 21 32 44 43 51 55 53 54 57 57 60 59 59 58 58 59 60 60 60 58 59 61 62 63 63 65 66 66 65 64 64 62 59 58 58 61 62 63 62 62 62 60 58 57 56
25 23 18 18 19 33 42 44 48 51 52 53 57 60 60 58 57 57 56 56 57 58 58 58 58 58 58 62 61 62 62 62 61 60 60 59 60 59 58 61 63 62 60 58 57 55 52 49 42
22 21 21 20 20 39 43 43 47 50 49 52 56 57 58 58 57 57 57 56 56 56 56 56 57 57 57 58 60 61 60 60 61 61 60 60 60 59 59 55 53 53 51 45 47 46 44 46 42
21 22 21 21 31 42 41 45 44 47 48 54 57 57 58 58 57 56 56 57 57 55 56 57 57 57 58 59 61 59 58 58 58 58 60 61 58 57 53 49 49 49 47 48 48 47 48 46 44
22 21 20 21 38 44 44 43 47 52 55 57 57 57 57 57 57 55 57 56 57 57 57 56 57 57 61 60 59 58 57 56 58 58 60 60 57 54 50 50 48 47 47 47 47 46 45 44 43
24 21 25 35 41 41 43 46 47 53 55 55 55 54 56 57 58 55 55 54 54 55 57 57 58 60 62 61 59 57 57 58 59 60 61 59 55 52 50 49 47 47 46 47 46 45 44 42 41
28 24 30 37 40 40 39 40 47 53 53 53 53 54 56 55 57 57 56 54 54 54 56 57 59 62 63 61 58 58 58 59 60 60 60 58 54 53 51 48 48 48 48 48 47 47 45 41 39
21 23 27 32 37 39 36 37 50 53 53 52 53 54 55 53 54 57 57 56 57 56 57 58 58 60 63 61 58 58 59 61 61 60 58 55 51 51 51 49 48 48 48 47 46 46 43 42 39
23 17 26 30 36 37 34 39 47 52 52 50 52 53 52 52 54 55 57 56 57 58 58 58 59 60 62 61 58 59 62 61 60 60 56 54 51 50 50 49 49 49 46 47 45 45 45 42 39
21 20 23 28 30 35 34 40 48 52 53 52 51 51 52 51 52 54 56 56 56 57 59 58 59 60 62 59 58 60 59 58 59 59 55 53 49 49 50 49 49 46 45 44 42 43 43 42 39
25 21 20 22 24 33 34 38 45 50 51 52 52 54 52 50 51 54 56 57 57 59 58 58 59 60 59 57 57 58 58 57 57 55 54 53 50 49 49 47 47 45 44 44 44 42 42 39 40
25 22 22 23 22 28 28 33 41 47 49 50 51 52 53 52 53 55 55 56 57 58 59 59 59 59 58 57 57 57 56 54 55 51 52 51 49 48 47 47 44 44 43 44 44 43 40 39 40
25 24 24 23 22 27 30 27 40 42 47 47 48 50 52 54 54 55 55 56 57 58 59 59 58 58 58 58 53 51 53 49 48 47 48 47 48 46 44 45 43 41 39 38 42 42 42 37 37
22 25 25 24 21 19 23 15 27 40 41 42 45 46 49 51 53 54 55 56 57 58 59 59 58 58 57 55 54 53 54 51 48 47 46 44 44 42 37 38 40 40 39 40 41 41 42 40 36
24 29 26 25 23 25 24 19 20 34 39 40 42 44 46 49 51 53 55 55 56 57 58 59 58 57 57 54 54 53 53 53 49 45 42 40 40 39 37 40 41 41 41 43 43 42 41 40 39
29 27 27 28 27 23 23 21 21 26 34 38 41 43 44 47 49 51 54 56 56 58 59 60 58 57 57 55 53 53 52 50 46 43 40 39 38 38 39 39 41 42 42 42 44 43 41 38 37
27 28 23 20 23 22 27 25 25 26 28 33 38 42 44 45 47 49 51 54 55 57 58 58 58 57 57 56 54 53 51 49 48 44 42 41 40 40 40 42 42 41 43 43 42 41 40 40 37
27 27 26 18 21 18 28 25 19 27 30 31 31 34 39 43 45 47 49 53 55 56 56 57 57 57 57 56 55 52 51 51 51 48 44 41 41 41 40 41 41 42 43 43 42 40 40 41 39
26 26 27 28 30 27 23 24 24 22 26 34 36 36 37 36 42 46 47 50 54 55 56 57 57 57 57 57 57 55 53 52 51 49 46 45 42 39 41 39 39 42 44 42 42 40 40 41 41
27 28 26 28 22 19 21 23 21 23 23 28 33 36 37 41 41 45 47 48 53 54 55 57 57 57 57 57 58 56 54 52 52 48 44 43 41 38 38 38 40 41 41 41 41 40 41 40 40
27 27 27 27 27 22 20 19 27 26 26 29 29 32 38 40 45 45 47 48 51 54 55 57 56 56 57 57 56 55 53 52 50 47 45 42 39 39 38 37 37 38 37 37 37 37 38 39 38
28 28 28 30 23 26 26 22 25 29 28 29 28 29 35 40 41 48 49 51 52 53 54 55 56 56 55 52 54 53 52 50 48 46 44 41 39 38 36 37 35 34 34 35 35 35 33 35 34

GFSSGP_sfc_dewp_030.txt.gz
Dewpoint
53 39 33 30 20 13 11 7 13 19 26 52 55 44 35 50 45 45 64 66 65 63 62 66 70 70 70 70 69 68 68 68 68 68 67 68 68 67 67 67 67 68 69 67 66 67 66 64 65
34 29 31 23 12 8 7 13 19 35 42 49 51 55 52 54 58 62 65 66 65 63 62 62 70 69 69 69 68 68 68 68 68 67 68 68 68 67 67 67 67 68 69 68 66 66 65 65 66
35 34 25 18 10 6 8 17 16 41 48 47 50 54 55 55 59 61 65 67 66 64 63 64 69 69 69 68 68 67 67 67 67 68 68 68 67 67 67 67 66 67 68 66 67 66 64 66 66
30 30 22 12 9 10 10 10 22 35 42 45 50 52 58 62 62 64 67 68 66 66 64 68 68 68 68 68 67 67 67 67 67 67 67 67 68 67 67 66 65 65 66 64 64 62 64 65 65
27 24 15 10 10 8 8 23 45 43 39 46 50 52 55 63 65 65 67 67 67 66 67 68 67 68 68 68 67 67 67 66 67 67 67 67 67 67 67 66 66 65 65 64 63 63 64 65 64
23 21 12 8 8 17 24 39 46 45 47 50 50 52 57 64 64 65 67 67 68 67 67 67 67 66 66 67 67 67 67 67 67 67 67 67 67 67 66 66 66 66 64 65 65 65 64 63 61
23 17 11 19 23 30 41 47 45 45 46 50 52 50 59 61 62 63 64 65 66 67 65 65 63 62 64 66 66 67 67 67 67 67 67 66 66 65 65 65 65 65 64 64 65 64 63 60 59
24 21 15 22 19 26 38 44 47 45 46 53 53 51 56 59 61 62 62 62 62 63 63 62 61 61 61 64 66 66 67 67 67 67 65 65 64 65 64 64 64 66 64 63 63 63 61 58 57
24 16 19 16 16 21 35 41 48 51 49 52 55 55 59 60 60 60 60 59 59 59 60 60 60 61 62 61 63 66 67 66 65 64 64 61 53 53 56 62 64 64 63 62 60 59 58 57 54
22 17 16 16 18 19 30 41 46 48 49 52 57 59 59 59 59 59 59 58 57 57 57 58 59 59 59 61 62 63 63 59 60 59 58 55 59 55 54 61 62 62 61 59 57 55 53 51 42
23 18 20 20 21 21 35 40 46 45 43 49 55 57 58 57 57 57 58 57 57 57 57 57 58 58 57 57 60 59 58 60 60 59 57 58 59 57 57 57 55 53 54 45 46 46 44 46 44
21 21 21 21 24 31 40 44 46 46 50 54 57 57 57 57 57 57 56 56 56 56 55 56 55 56 55 55 58 55 54 55 57 57 58 59 56 57 56 54 53 52 49 50 48 48 50 47 46
23 22 22 25 26 41 42 42 45 51 55 57 57 57 57 57 56 56 56 56 55 54 55 54 53 52 54 53 50 52 55 54 53 54 55 54 54 57 54 53 50 49 49 49 48 48 45 46 45
26 25 26 28 35 42 42 43 44 52 55 55 56 55 57 56 55 53 54 55 55 54 54 54 53 53 52 52 55 53 54 53 54 57 59 59 55 57 53 52 50 49 48 48 47 45 44 43 43
27 26 28 30 39 39 41 38 45 52 52 52 53 53 52 55 55 54 52 54 54 55 54 53 56 57 55 57 59 53 54 53 55 58 62 61 57 56 54 51 50 50 49 49 48 47 45 43 40
23 22 23 31 36 39 38 34 48 52 51 48 49 51 52 54 55 54 52 52 53 55 56 56 56 58 59 60 58 53 54 55 57 60 61 60 56 55 54 52 51 49 49 47 46 46 44 43 40
22 17 22 26 33 36 36 34 45 52 50 45 47 49 48 50 52 53 55 51 53 53 54 55 57 58 61 62 58 55 57 58 60 61 60 59 55 54 53 51 51 51 48 48 46 46 45 40 38
17 17 19 24 30 34 33 34 43 50 49 47 45 46 46 47 49 53 55 56 54 54 56 56 58 60 62 60 57 52 57 59 62 61 58 57 53 53 53 52 52 49 46 46 45 44 41 40 38
23 19 17 21 27 30 29 29 39 47 49 50 48 46 46 46 48 51 53 55 55 57 55 56 57 59 60 58 54 53 56 59 60 60 59 57 54 52 53 51 50 48 46 46 46 41 41 38 40
25 21 20 22 23 26 25 25 36 45 48 48 48 50 48 47 47 50 52 53 54 55 57 57 57 58 59 56 53 54 56 57 60 60 59 57 55 52 52 51 48 48 46 46 44 41 37 37 39
25 21 23 21 23 24 25 22 32 40 46 47 48 48 49 46 47 49 51 53 54 54 55 55 56 57 59 57 54 57 58 58 58 57 58 57 55 52 50 51 48 48 45 42 43 41 39 37 39
22 23 23 23 22 17 23 14 24 31 40 45 46 48 48 47 47 49 52 54 54 55 56 56 56 56 58 59 56 57 54 55 57 58 57 54 54 52 48 48 48 47 40 39 39 38 42 41 40
21 26 25 24 22 23 22 15 21 31 33 35 41 45 47 47 47 48 50 52 55 56 56 58 58 57 57 59 58 57 57 56 57 56 54 53 51 50 47 46 45 43 39 40 40 43 43 43 40
28 27 27 27 25 22 21 18 15 19 22 24 33 39 43 45 47 48 50 52 53 56 57 58 58 57 58 59 59 59 58 57 56 53 50 49 46 47 45 42 44 42 39 42 44 46 46 42 40
26 24 21 19 22 20 25 24 18 20 21 27 29 30 39 44 46 48 49 50 53 55 57 58 58 57 58 59 59 59 59 59 56 53 51 49 46 45 46 44 43 43 43 45 44 45 44 41 40
26 22 21 18 20 16 26 19 18 22 26 28 31 32 33 39 45 46 48 50 52 55 57 58 57 57 57 58 59 58 58 58 55 54 52 50 47 45 44 44 44 41 44 44 46 46 42 42 39
26 24 23 25 30 23 18 20 22 21 20 30 32 34 35 36 36 41 45 49 52 54 57 59 57 57 57 58 59 59 59 57 56 54 52 50 47 44 44 45 43 43 44 45 46 42 41 40 41
28 27 25 26 21 18 17 18 15 17 18 22 23 28 31 37 39 39 42 46 49 52 55 58 58 57 57 58 59 59 59 57 56 54 52 48 47 46 44 43 42 44 44 46 43 41 39 39 40
28 25 26 26 25 20 17 17 21 20 20 22 24 28 32 36 39 44 44 45 47 50 53 55 57 57 57 58 59 60 59 57 55 53 52 51 50 46 43 41 44 42 44 42 41 38 35 39 38
25 24 27 26 23 28 29 19 21 25 24 27 27 27 31 37 39 45 47 48 49 51 52 53 54 55 56 57 58 59 58 57 56 55 53 52 49 44 41 42 40 38 39 37 36 34 34 36 37

GFSSGP_sfc_dewp_033.txt.gz
Dewpoint
54 47 33 25 18 14 10 9 7 13 16 36 43 40 26 45 49 46 64 65 62 62 65 69 71 71 71 70 70 69 68 68 69 68 68 68 68 68 68 69 69 69 69 67 65 63 63 64 64
37 27 24 20 13 7 7 7 8 12 31 44 47 51 43 52 58 60 63 66 62 62 64 68 70 70 70 69 69 68 68 68 68 68 68 68 68 68 69 70 69 69 69 67 64 64 64 64 65
35 26 22 19 13 5 10 13 17 20 40 42 43 52 53 52 51 58 65 67 63 62 62 68 69 69 69 68 68 67 68 67 68 68 68 68 68 68 68 69 69 69 69 66 64 64 64 64 66
29 26 20 9 8 7 10 10 15 26 32 39 42 50 54 55 54 58 66 67 64 64 64 68 68 68 68 68 68 68 67 67 68 68 68 68 68 68 67 67 68 69 68 64 63 63 63 65 65
23 20 13 13 8 9 9 9 25 32 32 38 41 48 56 60 61 62 65 67 66 64 67 68 68 68 68 68 68 67 67 68 68 67 67 68 67 67 67 66 67 67 66 64 63 63 63 64 63
21 16 12 7 7 8 15 27 33 38 39 42 43 51 58 63 64 65 67 67 67 67 67 67 68 68 67 67 67 67 67 67 67 67 68 68 68 67 67 66 66 67 66 65 65 64 63 62 61
22 16 13 13 18 33 35 40 38 41 41 42 47 48 59 60 62 63 65 66 66 66 65 66 66 67 67 66 66 67 67 67 67 67 67 66 66 66 66 65 65 65 65 65 64 63 62 59 59
20 17 15 17 17 31 32 37 41 41 42 49 51 48 54 60 62 61 62 62 64 64 63 62 63 65 66 66 66 67 67 67 67 66 65 65 65 65 65 65 64 64 65 64 63 61 60 58 58
20 16 19 15 15 20 26 34 43 47 45 48 57 58 60 60 61 60 59 59 60 61 61 61 61 62 63 64 66 67 67 66 65 64 63 60 56 56 58 64 65 64 63 63 62 60 59 58 56
17 15 16 18 19 20 29 34 40 42 46 50 56 58 60 60 60 59 57 56 56 57 59 60 61 59 57 57 58 59 57 59 58 56 58 54 60 59 56 62 63 62 61 60 59 59 58 55 43
20 19 20 20 22 24 31 35 41 41 47 46 54 56 58 59 59 58 58 56 56 57 58 58 56 56 55 56 57 61 62 62 60 61 58 59 60 60 59 57 57 54 54 45 46 47 47 49 45
18 20 20 21 22 30 35 36 33 45 48 51 57 57 57 57 57 57 56 56 56 56 57 57 57 57 56 57 60 61 60 59 56 56 58 61 59 61 60 56 54 55 50 51 50 49 51 48 46
20 21 20 22 24 36 38 39 40 49 53 56 57 56 56 56 56 56 56 55 55 55 54 54 55 55 56 56 55 55 52 51 53 57 57 57 57 58 55 55 53 52 52 51 51 50 46 47 45
24 23 22 22 28 35 38 40 43 50 52 53 54 55 56 54 52 54 55 54 53 54 54 53 52 52 52 51 52 54 55 52 53 56 55 55 55 59 55 55 52 52 51 51 49 47 45 43 43
24 22 23 25 30 31 38 40 42 51 51 51 53 52 51 56 52 50 54 54 53 51 52 50 51 50 52 50 51 50 52 52 53 52 60 58 54 58 57 54 53 52 51 51 49 47 45 43 39
21 22 24 31 30 32 40 39 46 49 46 46 47 47 49 51 50 49 52 53 53 52 49 47 45 51 53 53 54 53 53 52 50 54 60 60 58 58 57 53 53 52 52 49 47 46 44 42 39
20 16 29 30 26 31 38 40 43 47 44 43 43 45 45 49 50 50 52 52 53 52 51 53 56 53 55 57 56 53 55 54 53 60 63 61 58 56 56 54 54 53 51 49 47 46 44 41 38
17 15 19 25 27 28 30 29 42 45 43 43 42 41 42 44 46 50 49 51 52 54 54 55 56 57 57 59 58 52 50 53 55 60 59 60 57 57 57 54 54 53 50 48 47 47 41 40 39
21 18 18 23 31 25 27 32 34 42 43 44 42 44 41 41 44 50 52 51 52 54 53 53 54 55 56 58 54 50 49 52 57 61 60 59 57 56 57 54 54 53 50 49 49 44 43 38 39
20 18 17 20 21 22 21 24 34 39 42 42 42 43 43 41 42 47 51 52 52 53 54 53 53 55 55 53 52 50 50 51 55 62 60 59 59 56 56 55 53 53 48 49 49 45 40 38 41
19 19 20 18 21 20 20 20 23 30 38 42 42 41 41 42 42 45 48 51 53 53 53 53 54 54 56 55 52 49 49 53 53 57 59 59 59 56 55 55 54 53 50 49 48 45 42 38 41
18 18 22 19 19 17 20 20 22 24 32 39 42 41 40 41 42 44 46 48 51 52 55 54 54 53 54 55 52 51 50 50 54 56 57 58 59 58 54 54 54 52 50 49 47 42 42 42 41
20 25 22 22 21 21 18 13 22 18 25 31 37 41 42 42 41 43 45 47 49 52 53 55 54 54 54 56 56 53 54 54 54 56 58 59 58 57 55 53 54 52 49 48 47 43 43 46 45
22 24 23 24 23 22 19 16 21 17 19 23 29 36 40 41 42 41 43 47 49 51 54 56 54 52 54 55 57 58 56 56 54 58 57 56 56 54 55 51 52 51 49 45 43 45 46 47 45
24 23 21 21 22 22 19 17 18 25 18 21 22 27 35 41 41 40 41 43 47 52 54 55 54 53 54 56 57 59 58 58 57 57 57 54 53 52 51 51 50 49 47 48 48 47 47 47 46
23 21 22 24 27 22 22 17 15 19 21 22 21 23 26 35 40 41 41 43 45 49 53 55 54 54 54 58 57 59 59 59 60 60 58 57 53 51 53 50 49 46 46 47 47 48 47 47 47
23 24 21 21 25 24 22 18 18 20 17 20 23 27 29 30 36 40 41 43 46 48 52 57 55 54 55 56 58 60 60 60 60 60 59 55 51 51 51 49 47 45 46 47 47 47 47 46 46
24 25 24 25 26 23 17 17 16 17 16 18 17 24 26 32 36 36 39 43 45 48 50 58 56 55 55 58 59 60 60 60 60 60 57 54 52 50 47 47 45 45 47 46 47 47 46 44 43
24 25 26 24 24 25 21 18 21 19 19 20 21 22 24 30 36 41 40 41 44 48 51 54 56 56 56 57 59 61 61 61 60 59 56 54 52 49 47 47 47 45 45 44 44 46 43 40 40
22 24 25 28 25 28 30 23 20 21 22 23 22 23 26 31 34 41 44 44 45 47 49 52 55 56 56 57 58 60 61 59 58 57 55 55 54 52 50 47 44 44 43 43 44 42 38 38 38

GFSSGP_sfc_dewp_036.txt.gz
Dewpoint
55 46 42 36 20 19 13 10 11 6 13 44 48 44 45 53 42 45 65 61 65 66 69 70 70 71 71 71 70 69 69 69 69 68 68 69 69 69 69 69 69 69 67 64 64 63 62 61 62
41 37 27 21 19 13 8 15 10 11 32 42 40 42 43 52 55 61 63 66 66 65 68 70 70 70 70 69 69 68 69 69 68 68 69 69 69 69 69 69 68 68 67 64 63 63 62 62 64
40 30 22 20 18 12 9 13 17 17 18 33 35 49 53 53 56 57 61 65 65 65 68 70 70 69 69 69 68 68 68 68 68 68 69 69 69 70 70 69 68 68 66 64 63 63 62 63 64
35 27 23 16 6 7 9 11 9 16 23 28 39 50 53 55 54 57 58 61 64 66 68 69 69 69 69 68 68 68 67 68 68 68 68 68 69 70 69 69 68 68 66 63 62 62 62 64 63
26 21 18 13 12 8 7 9 11 22 27 39 35 53 51 60 61 63 58 62 60 65 68 68 68 68 68 68 68 68 68 68 68 68 67 67 68 68 69 68 68 66 66 63 62 62 63 63 62
25 21 12 10 11 30 35 40 23 28 32 33 48 48 54 62 62 64 66 65 64 65 68 67 68 68 67 67 67 67 68 68 68 67 68 68 67 67 68 67 66 66 66 65 64 64 63 62 61
22 19 15 12 20 32 38 43 41 36 33 49 52 48 56 60 62 63 65 66 62 64 66 66 66 67 67 66 67 67 67 67 68 68 67 67 66 66 67 67 66 66 65 64 64 63 62 60 59
19 18 15 18 16 22 39 40 40 40 45 56 51 49 54 59 61 61 62 63 64 64 65 64 65 66 66 66 66 66 67 67 66 66 65 65 65 65 65 65 65 65 64 63 62 61 60 58 57
19 16 16 20 16 19 20 28 45 47 46 45 54 57 59 60 60 59 59 59 60 62 62 63 64 64 64 64 65 65 66 65 64 64 63 59 58 58 60 64 65 65 63 62 62 61 59 57 55
18 16 20 17 20 20 22 29 37 44 44 47 47 57 60 60 58 57 57 57 57 59 60 60 60 59 61 62 62 64 62 60 58 58 58 58 60 59 61 62 63 63 62 61 60 59 58 55 45
17 16 21 18 22 22 26 31 37 45 43 46 49 55 58 58 58 57 57 56 56 57 59 57 56 57 56 56 57 59 60 61 60 60 59 60 59 59 60 59 58 58 57 50 52 54 51 51 49
15 18 18 19 22 24 32 36 35 48 43 50 55 56 56 57 57 57 56 56 56 57 55 56 55 55 55 54 54 55 59 61 61 59 61 62 60 60 58 57 57 54 53 49 51 54 51 49 48
16 17 20 19 22 28 32 35 43 49 55 55 55 55 55 56 56 56 55 56 55 55 55 56 55 56 56 55 56 56 60 60 57 59 60 60 59 61 59 58 56 54 55 55 55 52 49 48 46
23 23 21 19 21 29 33 40 42 50 53 54 54 54 55 54 55 54 54 54 52 53 53 55 56 57 57 58 58 58 59 59 57 59 59 60 60 59 59 58 57 56 55 55 53 51 48 48 46
21 21 19 21 22 29 35 32 38 48 49 50 51 51 51 53 53 53 53 53 53 52 52 54 55 55 56 56 56 58 56 48 52 57 59 59 57 58 59 57 57 56 55 54 52 48 48 46 42
21 19 18 25 27 36 37 38 38 43 48 48 45 47 46 49 51 53 53 53 52 51 51 51 53 53 53 51 49 53 52 54 55 56 60 59 58 60 60 58 57 56 55 53 51 49 48 46 44
19 15 19 25 28 37 39 40 40 44 44 45 44 45 49 51 47 52 52 52 51 50 49 50 52 50 51 49 49 52 55 58 57 57 61 61 60 59 60 58 57 56 54 54 51 50 48 45 42
17 20 20 26 26 27 39 42 46 48 40 41 40 44 45 48 48 50 51 53 51 49 47 47 48 51 53 51 47 52 53 56 56 57 60 61 60 60 60 59 58 55 54 53 50 49 45 46 44
16 21 22 23 27 26 28 41 48 49 40 40 39 40 41 43 50 51 51 54 52 51 50 51 53 53 53 54 54 55 52 53 54 61 60 62 60 59 59 58 57 55 54 52 52 48 44 42 42
16 16 19 21 26 23 17 33 45 48 41 38 40 42 40 41 47 49 51 52 54 53 53 55 56 56 54 56 57 56 53 52 54 61 61 62 61 58 58 58 56 56 54 53 52 48 46 45 44
17 17 16 19 24 22 19 16 37 41 38 39 39 43 42 40 45 48 50 51 53 54 54 54 55 56 57 57 57 55 53 53 52 59 60 60 60 59 57 58 57 56 55 53 52 49 46 43 44
16 16 20 22 21 15 23 19 25 30 32 37 38 40 41 42 42 47 49 51 52 54 55 54 53 53 54 56 53 53 49 48 52 58 59 59 61 60 58 57 57 57 54 53 51 49 46 44 44
18 23 23 22 19 22 21 20 17 23 23 31 38 40 41 41 43 43 47 50 52 54 55 55 54 54 55 56 56 55 51 51 52 58 58 59 60 60 59 58 57 55 53 51 49 47 45 45 46
19 23 24 24 21 23 24 18 17 20 22 25 33 39 40 41 42 43 45 48 50 53 55 56 55 54 54 56 56 57 55 55 55 57 58 59 59 60 59 56 55 52 51 51 50 50 46 48 47
21 22 21 20 21 25 23 19 22 24 29 33 34 36 44 41 42 42 44 45 48 50 54 55 55 54 55 56 57 57 58 56 56 57 59 58 58 56 55 51 51 51 51 51 50 48 48 48 46
22 22 24 23 27 26 33 23 17 24 26 23 24 38 40 40 42 43 41 46 48 50 52 53 53 54 53 55 57 58 57 58 59 59 60 59 58 55 53 52 51 51 50 48 47 48 47 47 48
23 22 23 23 31 31 35 29 19 21 21 19 20 25 33 31 41 42 42 43 48 51 53 55 54 53 54 55 56 57 60 60 61 61 60 59 56 52 52 52 51 49 47 47 47 47 47 47 48
22 21 27 26 24 25 22 23 19 24 19 18 21 25 29 34 38 40 42 44 46 48 52 56 56 54 54 55 57 58 60 60 61 60 60 58 54 52 53 52 50 47 46 47 47 46 47 47 46
21 22 27 29 26 29 26 23 29 28 22 23 24 27 30 34 40 41 42 43 46 47 47 54 56 55 55 56 58 60 60 59 58 60 60 56 54 54 51 50 48 46 46 46 45 45 46 45 44
22 24 24 27 26 30 36 26 26 30 27 28 27 27 29 33 37 41 44 45 45 47 50 55 55 56 57 58 60 60 60 61 60 59 57 56 55 53 50 48 46 46 46 45 44 45 44 43 42

GFSSGP_sfc_dewp_039.txt.gz
Dewpoint
56 47 48 40 28 21 17 16 16 18 32 45 47 41 47 54 54 48 61 62 63 61 64 70 71 71 71 70 69 69 69 68 68 69 69 69 69 69 70 68 67 67 66 63 61 61 62 63 63
49 39 41 30 19 17 17 16 15 20 42 44 44 42 49 51 54 61 61 61 61 59 63 69 70 70 70 69 69 69 69 68 69 69 69 69 69 69 69 67 67 66 65 62 60 60 62 63 64
50 38 27 21 20 17 15 14 15 12 22 31 51 53 55 53 54 58 60 64 61 64 67 69 69 70 69 69 69 68 68 68 69 69 69 69 69 70 69 67 66 67 65 61 60 61 62 62 63
39 31 26 18 17 16 16 25 33 13 24 44 50 48 53 57 57 58 60 61 65 66 68 69 68 69 69 69 68 68 68 68 68 69 69 70 70 70 69 67 67 66 63 60 60 60 61 62 62
37 26 20 21 20 19 33 36 36 41 42 46 50 51 50 61 63 64 59 61 63 65 68 69 68 67 68 69 68 68 68 68 68 69 69 70 69 69 69 67 67 65 64 62 60 60 62 61 61
26 24 19 17 17 30 32 36 33 47 49 47 45 48 55 62 62 64 64 64 62 65 64 65 69 68 68 68 68 68 68 68 68 68 68 69 69 69 68 67 66 65 65 64 63 63 61 60 60
24 22 18 16 15 29 36 39 38 49 49 50 50 46 52 58 62 64 64 61 63 65 66 65 67 67 66 65 67 67 67 67 68 67 67 67 67 67 67 67 66 66 65 64 63 62 60 58 58
24 19 15 15 20 30 37 38 42 47 50 54 52 50 51 59 61 62 63 63 63 64 64 65 66 66 66 66 66 67 67 66 66 66 65 65 66 67 66 66 65 65 64 63 62 60 58 56 54
22 15 16 16 19 20 30 33 44 50 48 50 54 55 58 60 60 60 60 61 61 63 64 64 64 64 63 63 66 66 66 65 65 64 62 60 60 60 62 65 64 64 63 62 61 59 57 56 53
18 17 17 19 22 21 23 36 46 44 46 47 55 58 60 59 59 58 57 58 60 61 61 62 62 62 62 63 63 63 62 59 58 56 58 57 60 60 62 63 63 63 62 61 60 58 57 52 44
19 17 17 19 24 24 32 38 46 43 42 46 50 55 58 58 58 56 56 56 57 59 58 59 59 59 59 60 62 61 60 60 57 59 58 60 61 60 60 60 59 59 58 54 55 54 48 49 47
15 17 17 19 23 25 32 41 48 45 47 48 55 57 57 57 56 56 55 56 54 54 55 55 56 57 57 55 56 59 60 61 60 60 59 58 59 58 57 56 54 52 51 46 48 51 50 47 45
16 17 18 22 20 28 41 46 51 54 54 55 56 56 57 56 56 56 56 56 55 54 55 55 54 54 54 55 56 58 59 59 59 59 59 59 59 57 56 56 52 52 51 47 52 49 47 46 44
24 23 22 22 20 32 38 43 49 54 55 54 54 55 56 55 54 55 53 53 53 55 55 56 55 55 54 55 56 58 58 57 58 59 58 59 58 58 57 58 54 53 53 53 51 49 48 46 42
27 24 22 21 20 35 33 34 44 51 54 53 53 53 54 54 54 53 53 52 53 54 54 55 55 56 55 55 56 58 58 56 54 52 57 58 58 58 60 58 56 55 53 52 52 49 47 45 43
24 22 20 20 34 37 32 36 40 46 50 49 50 49 52 53 53 53 53 52 52 53 53 54 54 55 55 55 57 58 55 51 48 46 56 57 55 57 57 55 56 55 54 50 48 47 45 43 40
24 19 18 18 28 38 36 38 40 48 51 46 47 45 47 52 53 52 53 52 51 52 52 51 53 54 54 54 56 55 51 47 46 48 56 58 58 57 58 56 57 55 52 52 49 48 46 44 42
22 19 27 24 30 37 40 40 40 43 51 47 45 47 49 50 52 52 52 52 50 51 51 52 53 52 51 51 51 51 50 51 51 55 60 59 59 59 58 58 57 54 52 52 50 47 46 43 41
21 18 19 25 30 33 38 40 36 39 47 47 44 45 50 47 52 51 51 51 50 49 50 52 51 50 49 47 47 48 49 52 54 56 60 60 60 60 58 57 55 53 53 51 49 48 41 40 40
23 20 17 19 29 29 37 38 37 41 46 42 41 44 48 47 49 51 51 50 49 46 46 47 47 48 49 47 45 47 54 51 53 54 60 61 61 60 59 57 54 53 53 52 50 45 43 41 40
22 19 18 22 25 24 24 40 43 44 44 45 40 40 45 48 49 50 51 50 48 47 46 45 45 51 49 50 48 53 55 51 52 55 58 60 58 54 58 58 55 54 54 53 50 46 43 41 43
18 19 19 21 24 21 21 20 41 41 41 43 40 40 42 48 49 49 51 51 49 49 50 51 52 54 52 52 53 54 54 51 49 53 58 59 59 58 59 58 56 55 54 53 50 48 46 44 41
20 25 29 28 25 23 22 22 23 38 39 39 41 42 43 45 48 48 49 52 52 50 51 53 54 54 53 53 54 55 53 52 50 55 58 58 59 59 59 58 57 55 54 53 51 49 47 49 49
21 27 28 27 25 22 22 24 25 34 36 38 40 42 42 42 45 48 49 50 52 53 52 53 53 54 54 55 55 55 55 50 49 50 58 58 59 60 59 58 58 56 51 50 51 50 50 49 49
22 23 22 21 22 22 31 28 27 26 30 30 38 39 42 42 42 46 48 49 50 51 52 52 52 51 52 53 54 54 54 53 51 52 57 58 58 57 58 56 54 51 51 51 51 50 48 47 47
22 23 26 19 23 25 31 26 27 31 34 31 38 38 39 41 41 43 46 48 50 51 52 53 53 52 53 53 54 54 55 54 53 56 57 58 59 59 56 52 52 51 52 51 49 48 47 47 47
21 23 24 25 34 29 32 32 33 30 28 29 29 35 36 38 41 41 43 45 47 50 51 53 53 53 53 54 54 55 55 56 58 58 59 59 59 56 54 52 51 50 49 48 47 47 47 47 47
22 25 25 28 26 24 29 30 29 27 25 24 22 31 34 38 40 42 42 44 45 47 50 52 52 53 53 53 54 56 57 57 59 58 56 57 55 55 53 53 52 51 48 47 47 47 47 47 47
24 22 28 30 31 26 23 24 30 31 29 24 18 25 29 33 36 40 44 44 45 46 47 51 52 56 56 56 55 56 58 59 58 59 59 57 54 54 53 54 52 47 47 47 46 45 47 45 45
22 22 24 30 27 31 31 25 29 29 30 27 24 24 28 36 38 38 40 41 43 46 49 51 53 56 54 55 57 58 59 59 58 58 57 55 53 53 54 52 50 47 47 46 45 45 45 44 44

GFSSGP_sfc_dewp_042.txt.gz
Dewpoint
53 46 47 39 26 22 18 17 19 17 25 44 46 45 52 54 51 45 62 62 64 66 70 69 69 70 70 69 69 68 68 69 70 70 69 70 69 68 68 67 66 65 65 64 64 65 65 65 65
47 38 39 32 19 17 16 18 15 18 38 45 49 50 51 51 55 59 61 62 60 64 68 68 69 70 69 69 68 68 69 69 70 70 69 70 69 68 67 67 65 65 64 63 63 64 62 61 63
45 38 28 23 19 17 16 17 28 38 45 47 51 53 54 53 56 58 60 65 63 60 63 67 69 69 69 69 68 67 68 69 69 69 70 70 68 68 67 66 65 64 63 62 63 62 60 61 63
38 31 27 19 17 18 17 19 35 44 46 46 48 47 53 62 60 63 60 65 65 65 66 68 68 69 69 68 68 68 68 68 68 69 69 70 68 68 67 66 65 64 62 62 60 60 60 62 63
37 26 19 21 19 20 20 34 44 45 45 46 48 49 53 60 62 64 60 62 64 65 66 67 67 68 68 67 68 68 68 68 68 69 69 69 68 68 67 65 65 64 63 60 59 60 61 61 63
30 25 20 20 20 19 29 35 46 45 45 46 45 49 54 61 61 63 63 62 62 64 66 67 68 68 67 67 68 68 68 69 69 69 69 69 68 67 67 65 65 65 64 63 62 61 61 60 61
26 23 20 19 16 22 34 39 47 47 47 48 49 46 51 57 61 63 61 62 63 65 65 64 64 64 67 64 67 67 67 68 68 68 68 69 67 67 66 66 65 64 63 62 61 60 59 59 59
25 23 20 17 16 21 34 38 47 47 48 53 51 47 50 58 61 62 62 62 64 63 63 64 65 64 62 62 66 67 67 67 67 67 67 66 66 66 66 65 64 63 62 61 60 59 59 59 59
21 18 15 15 17 20 34 37 47 49 47 51 54 56 58 60 60 61 61 61 62 63 63 63 63 63 63 63 66 66 66 66 65 66 65 64 64 63 62 63 63 63 61 60 59 59 57 55 57
20 17 16 18 21 21 35 42 47 45 47 52 54 58 59 60 59 59 59 58 59 61 62 62 61 62 62 64 64 64 63 60 60 59 59 60 61 61 61 62 62 61 61 60 59 57 55 52 45
19 18 18 18 22 26 45 46 45 40 41 47 51 56 58 58 58 58 57 59 59 59 61 60 60 61 61 62 62 61 59 59 57 56 58 59 61 61 61 60 59 58 59 55 53 48 48 46 44
18 20 18 17 24 28 38 47 49 47 47 50 54 57 57 56 56 56 56 55 56 58 58 59 59 59 59 60 60 60 57 59 59 59 59 58 58 57 57 56 56 53 51 49 48 49 48 45 43
24 19 20 22 27 43 46 49 52 53 54 55 56 57 56 56 56 56 56 55 55 55 56 57 58 58 58 58 58 59 60 60 60 58 58 56 55 55 55 54 52 50 49 47 51 49 47 45 42
28 28 25 22 23 46 50 52 50 53 54 54 55 56 56 55 55 55 55 54 54 55 55 55 55 56 57 57 57 58 58 58 59 60 58 57 56 55 54 55 51 50 50 47 51 47 46 43 39
27 23 23 22 23 36 39 38 46 54 54 53 54 55 54 54 54 54 54 53 54 55 55 54 55 56 56 56 56 57 58 56 55 56 58 58 57 57 57 57 54 52 51 52 50 49 47 44 40
24 24 20 20 34 35 32 32 43 54 53 51 52 53 53 53 53 53 53 53 54 55 55 55 55 55 54 55 53 55 56 54 51 51 57 57 57 58 58 58 56 55 53 53 51 49 46 45 41
26 20 21 21 27 36 34 35 39 50 52 50 50 51 52 52 53 53 52 53 53 53 54 54 54 54 53 54 54 55 53 49 48 49 53 56 56 57 57 56 56 55 53 50 49 47 46 42 41
21 21 19 20 33 36 37 35 41 46 49 47 48 45 52 52 52 52 52 52 52 52 52 53 53 53 53 54 54 54 52 48 48 49 53 55 57 57 58 56 56 54 52 50 48 47 47 44 42
23 22 20 20 29 35 36 35 38 46 50 47 46 45 46 51 52 52 52 51 51 51 51 52 52 53 52 51 53 52 50 49 50 51 53 57 57 59 58 57 56 54 51 51 49 47 43 42 42
24 22 22 20 27 30 36 36 38 44 47 50 45 46 48 51 52 51 52 50 50 50 51 51 52 52 51 51 51 50 49 49 51 51 55 59 60 59 58 57 56 53 52 51 49 46 43 40 41
24 23 22 17 24 26 36 34 37 39 45 45 48 45 48 51 51 50 51 50 49 49 50 51 51 50 50 49 48 47 49 52 51 51 53 56 59 59 59 57 56 53 52 52 50 46 43 41 42
23 26 22 19 23 20 24 20 39 38 40 42 44 43 49 49 51 50 50 50 49 48 49 50 50 49 49 49 46 45 46 47 49 52 52 56 59 59 58 58 56 54 53 52 51 47 44 43 42
26 28 23 25 24 23 22 20 22 38 38 39 43 41 45 48 49 50 50 50 49 47 46 46 48 47 48 49 47 46 46 48 53 51 51 55 58 58 56 57 57 55 54 54 53 48 46 48 48
26 25 26 27 25 22 23 22 24 36 35 37 41 40 45 48 49 50 51 50 48 47 45 45 45 45 51 49 49 49 50 52 54 51 51 53 56 58 58 58 58 56 56 55 53 51 48 49 47
24 23 22 21 22 22 27 28 27 29 35 38 40 41 41 47 49 49 50 51 49 47 47 47 47 48 51 52 51 51 53 55 53 51 53 54 56 56 58 58 58 56 54 54 53 50 49 48 47
24 23 23 19 22 21 31 24 25 30 33 35 39 41 42 42 47 48 49 51 51 48 48 49 50 51 51 52 52 52 53 54 55 53 53 57 57 58 59 59 58 56 53 52 52 50 50 48 48
24 22 25 24 31 27 28 29 30 31 29 31 33 39 40 42 43 47 48 49 51 52 50 50 51 52 52 53 53 53 54 55 56 54 55 56 58 58 58 57 56 54 53 52 51 50 48 48 48
22 24 23 27 21 23 27 27 25 28 26 29 29 38 39 41 42 43 46 49 50 51 52 52 52 51 52 53 54 54 54 55 56 56 56 57 55 56 56 54 53 52 51 50 50 49 48 47 48
23 22 28 27 29 24 24 24 32 30 30 30 28 26 35 37 39 42 43 47 48 50 51 53 53 53 53 55 55 54 55 56 57 57 57 57 57 56 54 53 51 51 50 49 48 47 47 47 46
23 22 26 25 26 29 27 24 30 30 32 30 26 23 29 32 35 39 42 44 46 47 49 51 53 54 55 55 56 57 58 57 58 58 58 57 57 57 55 53 53 50 49 48 47 46 47 46 45

GFSSGP_sfc_dewp_045.txt.gz
Dewpoint
54 53 46 36 23 23 22 18 20 21 21 46 50 53 53 53 53 43 62 63 66 68 69 68 69 69 69 69 69 69 70 70 70 70 69 69 69 68 67 66 67 67 67 65 65 65 65 65 66
45 41 35 27 19 16 15 19 25 42 45 47 52 52 50 51 56 59 60 61 62 68 67 68 69 69 68 68 68 69 70 70 70 69 69 69 68 67 66 66 66 67 67 65 64 64 65 65 65
42 33 27 24 19 16 16 18 30 40 45 48 50 52 53 53 56 57 59 62 62 63 67 66 68 67 67 66 67 69 69 69 70 69 69 68 68 67 66 65 65 66 65 63 61 60 60 65 66
37 31 26 20 17 18 19 19 37 43 43 45 48 46 55 60 58 62 60 64 65 62 63 66 68 67 67 66 66 69 69 68 69 68 68 68 68 67 66 64 65 66 64 60 59 62 64 65 64
35 25 19 19 19 20 19 29 44 45 44 44 47 46 52 61 62 64 61 64 63 63 62 65 67 66 66 66 66 68 68 68 69 68 68 67 67 66 65 64 65 64 63 60 62 66 65 64 63
28 24 21 20 20 21 22 36 46 46 45 45 45 49 55 60 61 63 62 61 64 64 65 65 66 66 66 64 65 67 68 68 68 68 67 67 66 66 65 65 64 63 62 61 62 64 64 63 62
25 23 21 21 19 18 30 40 44 46 47 47 49 47 53 57 60 62 61 62 64 64 66 65 65 66 65 62 62 65 68 67 67 67 67 67 66 65 65 64 63 62 61 60 60 60 62 62 62
25 23 24 19 16 15 34 39 47 46 44 53 51 47 49 58 61 62 62 63 64 64 63 64 64 64 64 64 64 65 67 67 67 68 67 66 66 65 64 63 62 61 60 60 60 60 62 62 61
23 20 17 16 16 19 35 39 48 49 48 52 55 56 58 60 61 61 60 62 62 62 62 63 64 63 60 60 61 64 67 68 67 67 66 64 63 62 60 62 61 61 60 59 59 58 61 61 60
22 18 17 18 18 21 34 41 46 47 46 51 53 57 59 59 59 60 58 59 60 60 60 61 61 61 59 59 61 61 65 64 65 64 63 62 61 60 59 60 61 61 60 59 59 57 56 53 53
20 19 20 19 19 28 43 45 45 41 41 46 50 54 58 58 58 58 58 59 59 60 59 60 60 60 60 60 61 62 61 61 62 61 60 60 61 60 59 58 57 57 55 50 48 49 45 43 47
18 19 19 20 21 41 43 46 48 46 44 47 51 56 56 56 57 56 56 57 58 59 59 59 60 60 59 59 60 61 60 60 60 59 59 59 59 58 57 55 55 53 51 48 48 48 45 42 45
22 24 26 24 26 40 47 48 49 50 52 54 55 57 55 55 56 56 55 55 57 57 59 59 58 58 60 59 60 59 59 59 59 58 58 57 57 56 55 54 52 50 47 47 49 46 45 42 42
27 27 27 25 40 48 47 50 50 52 54 53 55 55 56 56 55 55 55 54 55 57 58 59 58 57 59 59 58 59 60 58 58 58 56 55 55 55 53 53 50 48 46 49 48 46 44 42 40
29 23 23 22 29 42 45 42 48 53 54 53 54 55 54 53 55 54 54 54 55 55 56 57 57 58 59 58 58 58 59 57 57 58 57 55 54 54 54 53 50 49 47 50 48 47 44 41 39
24 25 20 22 33 36 32 31 41 53 53 52 52 53 53 52 52 54 54 54 54 55 55 56 57 57 57 56 57 56 56 56 55 57 57 56 54 55 55 54 51 51 51 51 50 48 45 43 39
24 17 21 22 25 34 33 32 39 53 53 51 51 51 52 51 52 53 53 54 55 55 55 55 56 57 57 55 56 55 54 51 51 54 57 57 56 56 56 56 55 54 53 52 50 48 46 43 40
17 21 25 20 23 35 34 33 40 52 52 50 49 50 51 51 51 52 53 53 54 54 54 55 55 55 55 55 55 55 54 50 49 50 54 56 56 57 57 56 56 55 53 51 50 47 46 44 41
23 23 21 21 22 30 33 34 36 46 50 48 48 47 50 51 52 52 51 52 52 53 53 53 54 55 55 54 53 53 51 50 49 50 52 53 55 57 56 55 55 54 52 51 49 47 45 43 42
24 23 22 23 23 27 30 34 37 44 49 49 46 47 45 51 51 52 51 51 51 52 51 52 52 53 52 52 51 51 50 50 49 50 51 55 56 56 57 56 56 54 52 50 49 46 43 42 41
24 24 23 22 22 31 34 30 37 38 45 49 49 46 45 48 51 51 51 50 50 50 51 51 51 52 52 52 51 48 49 50 49 49 51 52 56 57 57 57 56 55 53 51 49 47 44 41 41
23 25 25 26 22 21 27 22 24 37 39 44 46 47 46 48 51 51 51 50 49 50 51 51 51 51 51 51 49 49 48 46 46 47 49 51 55 57 59 58 56 55 53 52 51 48 44 44 41
25 28 27 27 22 23 22 19 20 38 37 40 42 45 46 48 50 51 50 51 50 50 50 51 51 51 50 50 49 48 47 48 48 50 51 52 54 57 58 58 57 56 54 53 53 51 51 48 48
28 28 26 27 25 22 22 21 21 32 34 36 39 42 44 47 50 51 50 50 50 49 49 49 50 50 50 50 49 47 48 46 48 50 51 52 53 56 56 57 57 56 55 54 54 53 51 49 49
27 23 21 19 21 21 24 27 26 26 33 36 37 40 43 47 49 50 50 50 50 48 48 48 48 49 49 49 49 48 46 47 47 50 51 52 53 54 56 56 55 56 56 55 55 53 51 50 49
26 24 23 18 21 19 30 26 25 30 30 32 37 38 41 45 48 49 50 50 50 48 46 47 46 47 48 48 48 49 49 48 48 50 53 54 53 54 55 56 57 57 57 55 54 54 53 51 50
26 23 25 23 28 25 25 27 28 31 30 31 34 40 41 43 47 48 49 50 50 49 47 46 45 45 46 46 50 49 49 50 50 52 54 54 54 56 56 56 57 58 57 56 54 53 51 50 49
24 25 22 26 20 22 24 27 24 24 24 28 30 33 39 42 45 48 49 50 51 50 48 48 46 45 45 46 48 51 51 51 52 54 55 54 54 56 56 55 56 55 55 54 54 52 50 49 49
23 23 26 25 26 19 18 21 31 27 28 28 28 31 39 41 43 45 48 49 50 51 50 48 48 47 48 50 51 52 52 53 54 55 55 55 55 56 56 56 55 53 53 51 50 49 48 48 48
25 24 25 23 22 28 25 21 28 30 31 32 32 30 28 39 40 43 44 47 49 50 51 51 50 49 51 52 53 54 55 55 56 57 57 57 57 57 56 55 54 52 51 50 50 48 48 47 47

GFSSGP_sfc_dewp_048.txt.gz
Dewpoint
53 53 45 32 20 22 22 19 21 21 28 49 53 51 50 51 46 38 61 63 66 68 68 66 70 70 69 69 69 69 69 70 70 70 70 69 69 68 67 68 67 67 67 65 65 65 65 65 64
44 43 34 25 18 15 14 19 17 35 44 47 50 52 50 50 56 59 59 62 64 68 67 67 69 69 69 69 70 70 70 70 70 70 69 69 68 68 68 67 67 67 67 65 65 66 65 64 65
41 32 25 21 18 16 16 18 18 38 45 48 50 52 53 51 56 58 59 62 65 67 67 68 68 67 68 69 69 69 70 70 69 69 69 68 68 68 68 67 67 67 66 65 65 65 65 65 65
37 30 25 21 18 18 18 19 20 40 42 45 47 45 54 58 57 61 59 64 63 64 66 68 67 67 67 67 69 69 69 69 69 68 68 68 67 68 67 66 66 66 63 61 62 65 66 65 64
31 24 19 20 19 20 20 20 36 42 44 43 47 45 50 60 62 63 60 63 63 63 65 66 66 66 66 66 66 68 68 68 68 68 67 67 66 66 66 66 65 63 63 63 65 65 65 64 63
26 24 20 18 18 20 21 29 43 44 45 44 44 48 54 60 60 62 62 62 64 63 63 65 66 66 66 64 63 65 66 67 67 67 67 66 66 66 66 65 63 64 66 66 66 65 64 63 62
24 23 22 20 20 18 26 41 43 45 46 46 50 46 52 56 59 62 62 62 64 64 63 62 65 65 65 63 63 64 65 66 67 67 66 66 65 65 65 63 63 64 65 65 64 63 63 63 62
26 23 24 20 18 15 25 40 47 46 42 54 50 45 47 55 61 62 62 63 63 64 65 63 64 64 63 62 61 62 63 64 67 67 66 66 65 64 62 61 61 61 62 63 64 63 62 62 61
23 20 18 18 16 16 36 38 46 48 48 52 54 56 56 58 61 61 61 62 62 62 63 64 64 61 60 59 61 61 60 65 66 67 66 64 62 60 58 60 61 60 60 61 63 63 62 61 61
22 20 18 19 17 19 29 37 43 47 45 50 51 56 58 59 59 59 59 59 59 59 61 62 63 62 61 61 58 57 60 63 65 65 63 62 60 58 57 59 59 59 60 61 63 63 61 59 57
21 20 20 20 19 19 27 43 47 44 40 44 49 54 57 58 58 58 58 59 59 59 60 60 60 59 60 61 60 60 61 61 63 63 62 60 59 59 58 57 56 55 54 51 53 52 52 52 53
18 20 19 20 21 28 42 45 44 41 43 46 50 55 56 56 57 57 57 58 58 58 59 59 58 57 58 60 61 60 61 60 61 61 60 59 59 57 56 54 52 50 48 48 47 46 47 49 51
19 21 25 25 26 29 45 45 46 48 50 53 55 56 54 55 56 56 57 57 59 57 59 59 58 57 57 57 59 60 60 60 61 60 59 58 57 55 54 52 50 48 48 48 46 44 44 46 48
26 26 26 25 25 46 45 48 48 49 53 52 55 54 54 55 55 55 55 55 56 58 58 59 59 58 58 57 58 58 59 60 61 59 58 57 56 54 52 51 48 47 47 49 46 44 43 44 45
28 23 23 22 23 41 46 39 46 51 53 52 53 53 54 55 55 54 55 54 56 56 58 58 58 59 58 58 58 59 59 58 59 58 56 56 55 54 53 51 48 47 48 48 47 45 42 41 42
24 24 20 21 33 36 37 29 35 52 52 51 53 52 52 53 52 53 54 54 55 56 57 58 59 59 59 59 58 58 58 57 58 58 56 54 54 54 52 50 49 48 49 50 48 46 43 41 40
22 17 18 20 24 33 32 32 40 52 52 51 51 51 51 51 51 52 53 54 54 55 56 57 58 58 58 57 57 55 55 57 56 57 56 55 54 54 53 51 51 50 50 51 48 48 45 42 40
20 20 23 20 22 33 33 33 37 51 52 51 49 50 51 50 50 51 53 54 55 54 55 56 57 57 57 57 56 55 54 50 54 55 57 56 55 56 55 54 53 53 51 52 50 47 46 45 41
20 22 20 20 22 23 22 25 26 48 51 50 49 48 49 50 51 51 52 54 54 54 54 55 56 56 56 56 55 54 54 51 49 51 54 57 56 57 57 56 56 55 53 52 50 47 45 43 42
23 22 21 21 24 23 24 27 33 43 48 50 49 48 48 50 51 52 50 52 53 53 54 54 54 55 56 57 56 54 54 50 49 50 53 56 56 57 57 56 56 55 53 51 49 47 45 44 42
24 22 22 21 24 25 31 27 33 38 44 49 49 47 47 47 50 51 50 50 52 52 52 53 53 54 55 55 54 50 50 50 49 49 51 52 55 55 56 56 55 55 53 51 49 47 45 43 42
22 26 25 24 24 21 28 22 23 29 37 44 46 49 46 45 50 51 50 49 50 51 52 52 53 53 53 52 51 50 50 49 49 47 49 50 53 54 56 56 56 55 54 52 51 48 46 44 42
24 27 26 26 24 22 22 21 21 37 32 36 40 45 48 47 48 51 51 50 50 50 51 51 52 52 52 51 51 50 49 49 48 48 48 49 52 53 55 56 56 55 54 53 52 50 47 47 46
28 27 27 27 26 22 23 21 21 25 30 31 36 40 44 47 48 50 51 51 50 50 50 51 51 51 51 50 50 50 50 49 48 48 48 49 51 53 54 56 56 55 54 54 53 52 50 51 50
27 24 21 19 22 22 23 22 22 24 27 32 31 36 41 46 47 50 50 50 50 49 49 50 51 51 51 50 50 49 49 49 48 47 48 49 50 51 52 54 54 54 54 54 54 53 52 52 51
26 25 23 19 21 18 27 24 25 29 29 30 33 36 38 43 47 49 50 50 50 49 49 49 50 50 50 50 50 49 49 48 48 48 49 50 52 52 52 54 54 54 54 54 54 53 54 53 52
27 24 25 22 26 24 23 25 27 29 30 31 31 32 37 42 47 48 50 50 50 49 49 49 49 49 50 50 50 49 49 48 48 49 50 52 52 53 54 54 54 54 55 55 54 54 54 53 53
25 26 23 25 19 20 22 26 22 25 27 27 26 29 36 41 45 48 49 50 50 49 49 49 48 48 48 49 49 49 49 50 50 50 51 52 53 53 54 55 55 56 56 56 56 56 56 55 53
24 24 25 25 25 20 19 20 30 26 26 26 28 29 31 41 42 47 48 49 50 50 49 48 48 48 48 48 49 50 50 50 51 51 53 54 54 54 54 55 56 56 56 56 56 55 52 52 52
24 24 25 24 21 27 24 21 26 30 29 32 32 32 32 38 42 44 47 49 50 51 50 48 48 47 47 48 48 50 51 52 52 52 52 53 52 55 55 55 56 56 56 53 52 51 51 51 50

GFSSGP_sfc_dewp_051.txt.gz
Dewpoint
54 51 43 32 22 22 19 19 22 20 35 46 53 52 46 52 48 39 62 63 65 62 66 67 69 70 70 71 71 71 71 71 71 70 70 70 70 69 68 68 67 67 66 64 64 64 64 65 64
45 41 34 26 19 17 19 19 19 20 42 46 47 50 50 46 57 59 61 63 65 64 67 68 69 69 70 70 70 70 71 71 70 70 70 70 69 68 68 67 67 66 66 64 64 64 64 64 65
38 31 28 23 20 17 18 18 20 24 43 47 48 51 52 50 55 58 60 63 65 67 67 67 69 69 70 70 70 70 70 70 69 69 70 69 69 69 68 67 67 67 66 65 64 65 64 65 65
35 31 26 23 18 20 20 21 21 27 41 44 47 44 53 59 57 62 62 63 65 67 67 68 68 69 70 70 70 70 69 69 69 69 69 68 69 68 68 67 67 67 67 66 65 64 64 65 64
30 26 22 20 20 21 21 21 22 34 42 43 47 43 48 59 61 63 63 63 63 66 68 67 67 67 69 70 70 69 69 68 68 68 68 68 68 68 67 67 66 66 66 65 65 64 64 64 63
28 27 22 18 19 20 22 23 39 41 43 44 43 45 51 60 59 61 63 63 65 64 67 67 67 66 67 68 68 68 68 68 68 67 67 68 67 67 66 65 65 64 66 66 66 65 64 63 62
27 25 20 20 20 20 22 39 39 41 44 44 48 43 49 56 59 61 62 63 65 65 64 66 66 65 65 65 66 66 67 67 67 66 66 66 66 66 65 65 66 66 67 66 65 64 63 62 61
27 25 22 21 19 17 21 39 44 44 41 53 49 44 46 56 60 62 63 63 64 65 64 64 65 66 64 64 63 65 65 65 65 66 65 65 65 65 64 65 67 66 66 65 64 63 63 62 61
25 22 19 19 19 18 29 35 44 48 47 51 53 55 55 57 61 61 61 63 63 63 65 65 65 65 64 63 62 64 65 64 64 65 65 63 62 59 59 62 65 65 64 63 63 63 62 61 61
23 22 20 21 19 19 20 35 36 45 45 47 53 54 57 57 59 59 59 60 61 61 63 64 64 63 63 61 61 63 63 62 62 64 64 61 61 58 56 60 62 63 63 63 63 62 61 58 54
23 22 22 21 20 20 20 32 44 44 41 45 49 52 56 57 58 59 59 60 59 61 61 62 62 61 61 61 60 60 62 63 62 65 62 60 58 58 56 57 56 60 61 59 58 58 54 55 54
21 22 21 20 22 24 25 42 43 43 43 46 49 54 56 55 57 57 58 59 58 59 59 60 61 61 60 60 59 61 61 62 61 64 60 58 57 57 57 54 53 54 56 59 57 55 56 56 54
21 20 21 23 25 26 42 42 43 45 48 52 55 56 54 55 55 57 58 59 58 58 59 58 58 59 60 59 60 61 61 61 62 62 58 56 55 56 52 52 49 50 52 53 53 54 53 54 54
24 22 26 26 24 40 39 44 50 47 52 52 55 53 54 54 55 55 56 57 58 58 59 58 57 58 59 59 59 60 60 60 61 61 59 58 56 56 51 50 49 49 48 50 51 52 52 51 52
27 25 24 23 23 35 46 40 45 49 52 52 54 52 53 54 55 54 55 56 57 58 59 57 58 58 58 58 58 60 59 60 61 60 59 58 56 56 54 50 49 50 50 49 48 49 50 50 50
24 24 21 21 31 39 38 26 31 50 51 50 52 52 51 52 52 52 54 55 56 57 59 58 59 58 58 59 59 59 60 60 60 60 59 57 55 55 53 50 49 51 51 48 46 45 47 47 48
24 18 19 19 25 36 35 31 35 52 51 50 51 51 51 51 51 52 54 54 55 56 58 58 59 58 58 59 59 59 59 59 58 59 58 57 55 53 52 50 50 52 52 50 48 46 45 45 44
20 20 21 19 25 33 32 32 34 50 51 50 50 52 51 50 50 51 54 54 55 56 57 58 58 58 58 58 58 58 58 56 58 59 58 56 54 54 54 51 52 51 52 51 49 48 47 44 43
21 20 20 21 21 22 23 24 25 36 50 50 50 50 51 51 52 51 52 55 54 56 56 57 57 57 57 57 56 56 56 55 56 57 57 57 55 55 56 54 54 52 51 53 53 50 49 46 45
22 21 20 21 22 23 23 24 29 38 46 49 50 50 50 51 52 51 51 53 54 55 55 56 57 57 57 57 57 56 55 53 54 56 58 57 57 56 57 57 56 55 54 54 55 52 49 48 46
24 23 23 20 23 24 28 26 25 32 41 46 50 50 50 49 51 51 51 52 53 54 55 55 56 56 56 57 56 55 53 51 50 52 55 56 57 55 56 58 58 58 58 54 55 54 52 49 47
23 25 24 22 21 15 27 21 25 25 29 38 41 49 50 49 50 51 51 51 52 53 54 54 56 56 56 57 55 53 52 51 50 50 52 52 55 57 57 58 58 58 58 58 57 54 54 53 50
23 27 25 24 23 24 24 23 24 27 27 29 34 42 48 49 50 51 52 51 51 53 53 54 55 55 56 55 55 53 53 52 52 51 51 51 53 54 55 57 58 58 58 58 58 57 55 54 54
28 25 27 28 27 24 25 23 21 21 25 28 30 35 43 48 48 50 52 52 51 51 52 53 53 54 54 55 54 54 53 52 51 50 50 50 50 54 55 54 57 58 59 59 59 58 57 56 54
26 26 20 21 23 22 24 22 23 25 25 29 29 29 37 47 48 49 51 51 51 50 50 51 52 52 54 54 54 54 54 53 52 52 51 52 52 53 54 55 56 57 58 59 59 58 58 57 56
27 25 23 18 21 19 25 22 21 28 28 29 30 33 36 42 48 49 50 51 51 51 51 51 52 52 53 54 53 53 53 52 52 52 52 53 53 53 54 55 56 56 57 57 58 58 58 58 57
27 25 27 25 26 24 24 24 25 27 29 30 31 32 33 36 44 48 50 51 52 51 51 52 52 52 52 53 54 54 53 52 52 53 53 54 54 53 54 55 55 56 57 57 58 58 58 57 57
27 28 24 26 19 18 21 23 21 25 26 29 30 31 31 34 42 47 50 51 52 52 51 52 52 51 52 53 53 53 53 53 53 53 53 53 54 54 54 55 56 56 57 57 57 58 58 57 56
25 25 26 26 26 20 20 21 31 29 29 29 29 32 34 35 40 46 49 51 51 52 51 51 51 51 52 53 54 54 54 54 53 53 52 52 52 52 53 54 55 56 56 57 58 58 58 55 56
24 25 27 26 22 27 27 22 28 31 32 31 32 34 34 35 36 43 48 50 51 51 51 50 51 50 52 52 53 54 54 53 53 53 53 54 53 53 52 53 54 55 56 57 57 57 56 54 54

GFSSGP_sfc_dewp_054.txt.gz
Dewpoint
50 45 43 35 24 19 17 17 21 20 26 35 47 46 40 43 41 39 61 65 66 64 66 67 70 71 72 72 71 71 72 71 71 71 71 71 71 71 70 69 69 68 68 66 64 64 64 65 65
41 40 36 28 18 11 15 20 20 22 27 42 47 45 45 43 52 56 60 64 65 62 65 65 70 70 72 71 71 71 72 71 71 71 71 70 70 69 69 68 67 67 67 64 64 64 63 64 65
37 34 26 21 16 11 15 20 22 23 29 40 41 48 48 46 53 58 61 63 66 63 63 62 70 70 70 71 71 71 71 70 70 70 70 70 69 69 68 67 66 67 66 63 64 64 64 65 65
30 28 27 18 14 18 17 21 21 21 33 38 39 40 49 55 55 60 61 63 66 67 64 67 69 70 70 70 70 70 70 70 69 69 69 69 69 69 68 67 66 67 66 64 64 64 64 64 64
33 26 16 17 16 20 22 22 23 23 33 38 42 38 44 55 59 61 62 62 65 66 66 66 68 69 68 68 70 70 69 69 69 68 68 69 69 68 68 66 67 67 67 64 64 64 64 64 64
24 25 13 8 16 21 22 24 24 30 33 38 40 41 43 58 57 60 63 63 66 66 68 67 68 67 67 67 68 69 68 68 68 68 68 68 68 67 67 67 67 66 66 65 65 65 64 63 62
23 19 12 13 17 20 22 32 30 29 34 35 45 42 45 52 57 60 61 63 65 66 66 68 68 65 66 65 67 67 67 67 67 67 68 67 67 67 66 66 66 66 66 65 65 64 63 62 62
23 19 13 12 17 18 21 29 32 35 28 50 46 39 41 54 57 61 62 62 64 66 64 66 66 67 66 67 66 66 66 66 66 67 66 66 66 65 66 66 67 67 66 65 64 64 63 62 62
25 16 11 10 19 18 22 25 31 41 37 47 48 47 52 55 57 59 59 62 63 64 65 65 63 64 65 65 65 65 65 65 65 65 65 64 62 62 61 62 66 66 64 64 64 63 62 62 61
21 16 14 14 19 19 21 22 23 33 34 41 46 52 54 54 55 57 57 59 61 62 64 65 62 64 64 63 63 64 64 65 64 62 62 62 63 61 57 64 65 65 64 63 63 62 62 57 52
20 17 16 18 19 22 23 23 26 30 31 37 42 48 53 53 54 56 57 58 59 61 62 64 64 64 63 62 62 63 64 63 63 62 61 62 60 57 61 63 62 62 61 56 57 57 52 52 50
17 18 15 17 21 24 24 26 30 34 35 43 45 48 51 52 54 56 57 59 60 60 61 63 64 64 63 62 62 62 63 62 62 62 61 62 58 59 58 58 58 58 56 56 55 53 53 53 51
21 17 19 20 21 25 25 29 30 34 41 46 49 51 52 53 54 55 58 59 59 59 61 62 62 62 61 60 61 62 62 61 62 61 60 58 57 57 54 55 56 56 55 55 54 53 53 52 51
20 19 19 21 23 24 29 25 42 32 45 48 50 51 53 53 54 54 56 58 59 59 59 59 60 61 61 59 60 61 61 61 62 60 57 56 56 56 52 52 50 52 54 54 52 51 50 48 49
19 21 21 22 22 21 30 25 36 34 47 47 49 50 51 52 53 53 54 57 58 58 58 59 59 59 59 59 60 60 61 61 61 58 59 55 55 56 55 48 48 49 50 51 50 51 49 47 47
20 22 18 17 19 23 34 22 22 39 46 45 48 48 50 50 51 50 53 55 57 59 58 58 58 59 59 59 59 59 60 61 61 59 57 55 53 55 53 48 48 48 49 48 48 49 48 47 46
22 16 19 17 20 23 34 24 27 41 44 41 46 47 48 48 51 51 52 54 56 58 59 58 58 59 59 59 59 59 59 59 60 60 55 55 52 51 50 48 49 52 49 48 47 47 47 46 45
17 18 15 15 17 24 25 27 25 33 40 43 43 46 46 48 48 50 53 54 55 57 59 58 58 59 59 59 60 59 59 59 59 58 56 55 52 53 51 48 52 52 50 50 49 48 46 45 43
16 17 14 12 17 20 21 20 21 26 35 41 43 46 47 47 49 51 53 53 55 57 57 58 57 57 58 57 58 58 57 56 57 56 57 58 53 53 53 49 52 52 51 52 53 50 49 45 46
18 17 15 14 19 19 14 18 21 26 33 39 41 44 47 47 49 50 52 53 54 55 57 58 57 58 57 57 58 57 57 54 55 55 56 57 58 53 53 52 51 52 51 55 55 53 50 48 47
20 18 18 17 19 20 20 18 19 23 32 37 41 43 45 47 48 50 51 53 55 55 56 57 57 57 57 57 58 57 57 57 55 54 54 56 57 53 53 54 53 53 52 53 56 55 54 50 51
19 20 21 19 19 11 20 15 17 21 21 30 35 44 45 47 48 49 51 52 53 54 56 57 57 57 57 58 57 56 54 53 54 54 53 54 57 56 53 54 55 56 54 54 55 55 55 55 51
20 21 23 22 21 18 17 16 15 18 21 20 22 33 43 46 48 49 50 52 52 53 55 55 56 57 57 57 56 55 54 53 53 53 54 56 57 56 54 55 57 58 58 58 58 58 58 56 58
23 23 23 24 21 20 16 16 12 14 20 20 20 25 36 43 47 49 51 52 52 53 54 54 55 56 56 56 56 55 55 53 53 53 52 54 55 57 58 56 59 60 59 59 60 60 59 58 57
23 23 19 18 19 18 17 19 18 22 22 23 23 22 34 42 46 48 50 51 51 53 53 54 53 54 56 56 56 56 55 55 54 53 52 52 53 54 55 57 56 56 57 58 58 59 59 59 58
24 22 19 15 19 16 23 21 20 23 25 26 24 27 31 40 46 47 49 51 52 53 53 53 53 53 55 56 56 56 56 55 54 54 52 52 51 52 55 55 55 55 55 56 56 56 57 58 59
25 25 24 21 26 24 22 22 23 22 22 24 25 27 29 34 43 45 47 51 52 53 53 53 52 52 53 55 57 57 57 56 55 55 55 53 53 52 55 55 54 54 54 55 56 55 55 57 58
27 26 25 25 19 18 17 21 20 21 21 22 23 26 26 28 34 40 46 50 52 53 53 54 53 51 52 54 55 55 56 57 56 56 56 55 56 56 55 56 56 55 55 56 56 56 56 56 57
26 26 25 24 23 20 18 19 25 25 29 30 28 26 29 32 35 40 45 48 51 52 53 54 53 52 52 53 55 55 56 56 57 57 56 56 56 56 55 55 55 55 55 55 56 56 56 56 57
25 25 25 23 23 25 28 21 26 28 27 28 29 29 30 32 34 37 45 49 50 52 52 53 53 52 52 53 54 56 56 55 56 57 57 58 57 56 56 55 55 54 54 54 55 55 55 55 56

GFSSGP_sfc_dewp_057.txt.gz
Dewpoint
49 42 41 33 25 18 14 14 15 14 17 27 34 33 33 35 31 37 59 64 65 64 66 67 70 71 72 72 71 71 72 72 71 71 71 71 71 71 70 70 69 69 68 66 66 67 67 66 66
37 34 35 29 17 13 11 17 15 17 21 31 33 34 32 35 43 47 56 62 63 62 65 65 70 70 71 71 71 71 71 71 71 71 71 71 70 70 70 69 69 68 68 65 64 66 66 65 66
44 31 27 20 17 11 11 18 17 19 23 27 30 38 39 36 48 53 60 63 64 64 64 64 70 70 71 71 71 71 71 70 71 71 71 71 70 70 69 68 68 68 67 64 63 64 65 65 66
30 25 24 16 12 14 15 16 18 18 22 29 31 32 41 50 52 58 61 61 65 66 62 67 69 70 71 71 71 71 70 70 69 69 70 70 70 69 68 67 67 67 66 64 65 64 64 65 64
28 25 20 16 15 14 18 16 20 19 22 29 33 35 37 51 56 59 60 61 63 67 65 68 68 69 70 70 70 70 69 69 69 69 69 69 68 68 67 66 66 66 66 65 64 64 64 64 64
23 20 15 11 9 13 18 19 19 21 23 28 34 34 36 56 54 58 62 62 63 66 69 68 68 68 68 68 67 68 68 68 68 68 68 68 68 67 67 67 66 66 65 66 65 64 64 63 63
23 19 16 13 11 14 20 25 22 23 25 27 39 33 36 48 54 57 60 62 63 66 68 69 69 67 67 66 67 67 68 68 68 68 68 67 67 66 66 67 67 66 66 66 64 64 64 63 62
23 19 16 13 10 13 19 23 23 25 23 42 37 30 33 53 56 58 59 59 60 66 67 68 68 67 66 68 66 66 67 66 67 67 67 67 66 66 66 66 66 66 66 65 64 64 63 62 62
23 18 14 11 10 14 19 20 20 27 27 34 40 42 47 54 54 55 56 58 60 64 66 65 66 66 66 65 66 66 66 64 66 67 66 65 63 64 64 64 66 65 64 64 64 63 63 62 61
20 16 14 13 11 16 16 20 19 21 26 30 34 42 51 53 52 52 53 57 60 62 65 65 65 65 65 65 64 65 65 65 64 64 65 63 64 63 60 65 65 64 64 64 63 63 62 57 50
20 16 16 14 14 17 18 19 20 20 23 29 33 37 48 52 50 53 52 55 58 60 63 64 63 63 64 64 65 64 67 66 65 62 61 62 64 62 64 65 64 61 61 58 57 57 51 50 48
18 17 16 13 14 17 19 21 21 23 26 36 38 42 47 48 50 53 53 56 58 59 61 63 62 62 63 64 64 64 63 63 63 62 61 62 62 62 64 61 61 59 56 55 53 51 53 51 50
16 16 15 14 13 18 22 22 22 22 26 38 41 46 46 46 48 52 54 57 59 59 61 63 63 63 63 62 63 63 63 62 62 61 61 62 60 61 61 61 60 57 56 54 53 52 51 51 51
16 19 17 16 16 17 21 22 22 26 29 38 43 46 47 47 48 50 54 56 58 59 60 61 62 62 62 62 62 62 63 62 61 60 60 61 59 60 60 60 57 55 55 53 51 51 50 48 50
19 18 18 16 17 17 20 19 20 22 28 36 42 45 47 48 48 49 51 55 58 58 60 59 61 62 60 60 61 62 62 62 60 60 61 60 58 59 59 57 56 55 55 54 52 52 49 47 48
20 19 16 17 18 18 18 20 19 25 33 34 40 43 46 47 46 47 50 53 57 59 58 59 59 60 60 60 61 61 61 61 60 60 61 58 56 58 58 53 52 51 53 51 49 49 46 46 47
23 17 18 19 18 17 20 22 19 30 34 32 36 41 44 46 47 47 48 52 56 58 58 58 60 60 60 60 60 60 60 60 60 60 57 57 55 53 54 50 53 53 51 50 48 49 48 46 46
20 19 20 18 18 18 15 21 22 26 30 34 35 39 43 45 46 48 50 51 55 58 58 59 58 59 59 59 59 59 59 60 60 58 56 55 52 53 55 54 57 53 48 48 48 51 49 47 46
20 19 17 18 15 17 18 16 19 21 22 27 35 37 42 44 46 47 52 52 54 56 59 59 58 59 59 58 57 57 57 58 58 59 55 56 53 53 55 53 57 56 52 51 53 49 48 46 47
18 19 18 18 15 17 15 12 15 18 21 25 31 36 39 44 45 48 51 52 54 55 58 58 57 58 58 58 58 57 57 57 57 57 59 56 56 52 53 54 53 55 52 55 55 54 49 45 46
20 20 19 18 16 19 16 13 15 17 20 23 29 31 35 42 44 48 50 53 54 55 57 57 57 57 57 58 59 58 57 56 55 55 55 56 57 53 53 55 55 55 55 55 57 56 54 49 49
22 21 20 18 18 16 16 11 15 16 18 24 27 29 33 38 44 46 49 52 54 54 56 57 57 57 57 58 57 57 55 53 53 53 52 52 57 56 53 54 56 57 55 56 58 56 56 55 51
22 22 21 20 20 20 17 14 17 17 16 19 22 26 32 37 43 45 48 51 53 54 56 57 57 57 57 57 57 57 55 55 53 53 53 54 57 58 56 55 57 57 56 57 58 59 59 57 55
21 21 21 23 22 21 20 16 14 15 16 20 19 20 26 36 41 44 48 50 52 53 55 56 57 57 57 57 57 57 55 54 53 53 53 54 55 57 57 55 57 59 60 60 59 60 60 59 58
21 22 20 19 21 20 19 17 17 18 20 21 20 20 26 32 38 44 46 48 51 53 54 55 55 56 57 57 56 57 56 55 55 54 53 52 55 56 57 58 57 58 60 60 59 60 61 61 60
21 22 20 18 22 19 19 17 15 21 22 22 23 22 25 32 39 43 46 49 50 53 53 53 54 54 57 57 56 57 56 55 55 55 54 54 53 55 57 58 58 59 59 60 59 59 59 59 59
23 22 20 22 24 25 19 21 22 23 21 21 21 22 25 30 37 41 44 48 50 52 54 54 52 52 54 57 57 56 56 55 55 56 56 55 55 54 57 58 59 59 59 59 59 59 59 59 59
23 23 21 23 21 21 19 23 23 21 21 23 23 24 24 26 31 37 42 46 50 52 53 55 52 51 52 55 57 57 57 56 57 56 57 57 56 55 56 57 57 57 57 58 58 57 57 57 57
23 24 26 23 23 22 22 20 23 27 28 28 28 27 30 31 32 34 37 42 48 51 52 54 53 51 51 54 56 57 58 58 58 57 58 57 57 56 54 54 55 55 55 56 56 56 56 56 56
24 25 28 25 26 25 29 23 27 28 27 28 27 28 29 29 30 32 37 43 46 50 51 53 54 52 51 52 55 58 59 59 58 59 59 59 58 58 56 54 54 54 54 55 55 55 54 55 55

GFSSGP_sfc_dewp_060.txt.gz
Dewpoint
51 41 38 38 26 24 17 15 14 13 14 23 30 30 30 28 29 41 59 63 64 64 69 69 72 72 72 72 72 72 72 72 71 72 71 71 71 70 70 70 70 69 70 68 68 68 67 68 68
36 32 35 30 25 19 13 16 15 15 22 28 28 29 28 32 45 47 59 62 62 62 67 68 71 72 72 72 71 71 72 71 71 71 71 71 71 71 70 69 69 69 68 68 68 67 66 67 67
43 39 27 26 21 18 15 16 16 18 21 22 24 29 37 35 48 50 61 63 63 63 66 66 70 70 72 71 71 71 71 71 70 71 71 71 71 70 69 69 68 68 67 66 67 66 66 66 66
37 32 25 19 17 17 13 14 17 17 18 24 28 29 38 46 48 56 60 61 65 65 65 68 69 70 70 71 71 70 70 70 70 70 70 71 70 70 69 68 67 67 66 65 66 65 65 65 65
31 23 20 19 18 16 15 17 16 18 18 21 28 31 34 52 56 57 60 61 65 67 68 68 68 69 70 70 70 70 70 69 69 70 70 70 69 69 68 67 67 67 66 66 65 65 64 65 64
24 23 19 16 14 12 13 18 17 18 20 20 26 32 37 54 54 59 62 62 67 68 69 69 68 69 68 69 68 68 67 68 68 69 69 69 68 67 67 67 66 67 66 66 65 65 64 64 63
25 20 18 15 14 14 14 21 20 19 20 24 37 33 34 50 55 57 61 63 65 67 68 70 69 68 67 66 66 66 65 63 68 68 68 68 67 66 67 67 67 67 66 66 65 64 64 63 61
22 21 19 17 15 14 12 22 23 20 21 36 35 26 33 55 57 59 60 60 61 66 68 68 68 68 66 66 66 64 64 60 61 68 67 66 66 66 67 66 66 66 66 65 65 64 64 62 61
21 19 18 17 15 13 19 20 21 19 25 25 33 37 48 54 53 55 57 59 61 65 66 67 67 67 67 65 66 64 64 60 66 67 66 64 64 64 65 65 66 66 64 64 64 64 62 61 59
20 21 18 17 15 12 14 19 19 17 23 27 27 37 51 53 52 51 52 57 61 62 65 65 66 66 65 65 65 63 63 63 66 65 65 64 64 63 63 64 65 65 64 64 63 62 61 57 53
20 19 19 16 16 14 14 16 18 18 20 25 37 34 51 52 51 54 52 56 59 61 64 65 65 65 64 64 64 64 64 64 65 64 64 64 64 63 64 64 64 63 63 60 60 58 52 50 51
18 18 19 17 16 14 14 17 17 19 23 25 34 37 40 48 51 53 52 57 58 60 61 64 64 64 64 64 64 63 62 64 62 62 62 63 62 62 63 62 60 58 57 56 55 53 53 51 52
18 17 17 17 16 14 14 17 19 20 22 26 36 41 43 45 44 50 52 57 58 58 61 63 63 62 63 63 64 63 63 62 62 61 61 62 62 62 62 61 58 55 55 54 52 52 52 53 52
18 16 15 15 16 16 13 15 19 21 21 24 36 41 44 46 44 47 53 55 58 59 61 62 63 63 62 62 63 63 63 62 60 60 60 61 62 61 61 61 58 55 55 54 52 53 53 52 52
18 15 15 17 18 16 17 15 17 20 20 22 33 39 44 47 44 45 52 55 59 59 60 61 61 62 62 62 62 62 62 61 60 59 60 60 61 59 60 59 58 56 55 54 53 53 53 52 52
18 20 17 17 17 17 17 18 17 19 21 24 31 38 43 45 46 46 50 54 58 59 59 60 61 61 61 61 61 62 62 61 59 59 59 59 59 59 59 59 58 56 54 54 55 52 51 51 51
22 18 19 17 18 17 17 19 18 19 27 29 29 35 42 45 46 46 49 53 57 58 59 59 60 60 60 60 61 61 61 61 59 59 58 58 58 58 59 59 59 57 56 55 53 53 51 50 50
19 19 20 19 18 20 17 17 19 23 27 32 30 30 39 44 46 46 48 51 57 58 58 59 59 60 59 60 60 60 60 59 59 58 58 59 56 56 57 55 56 55 54 53 53 52 52 51 50
22 19 19 20 20 19 20 17 16 18 21 28 30 33 35 43 45 48 50 52 58 58 58 58 58 59 59 58 58 58 57 58 58 59 57 57 55 54 55 54 54 54 52 51 53 53 52 51 51
23 22 21 20 19 17 16 16 16 15 19 22 25 33 36 40 44 48 51 52 55 58 58 58 58 58 58 58 57 57 57 58 58 58 55 54 54 53 54 54 54 54 55 54 53 51 51 50 51
20 22 21 19 19 18 17 18 18 14 16 19 25 27 34 38 43 47 51 52 54 56 57 58 57 57 57 58 57 57 57 57 56 56 55 53 54 52 52 55 55 55 56 55 54 54 53 49 50
20 20 18 19 19 17 18 16 17 16 16 17 22 29 32 34 43 47 50 53 53 55 57 57 57 57 57 57 57 56 55 54 52 55 56 54 57 54 52 53 55 55 55 56 57 56 55 55 49
22 25 23 22 21 22 18 17 17 17 16 17 23 28 31 34 41 46 49 52 53 55 57 57 57 57 57 57 57 56 55 53 52 54 54 54 56 58 54 55 56 55 54 54 57 57 56 56 56
23 23 24 24 24 21 20 19 18 17 17 18 20 24 29 33 38 44 50 51 53 54 57 57 57 56 57 57 57 56 55 54 51 52 51 52 53 57 58 54 55 57 57 56 57 58 57 57 57
23 23 20 21 22 23 21 19 22 22 19 21 22 23 30 36 40 43 48 49 52 53 56 56 56 56 57 56 56 56 56 55 53 52 51 50 51 53 57 56 56 57 57 58 59 58 58 59 58
24 24 22 21 25 20 20 18 19 22 20 23 23 27 31 34 41 41 46 50 51 53 56 55 55 55 56 57 56 56 56 55 54 53 52 51 50 53 55 56 55 56 57 57 59 59 58 57 58
25 27 23 25 25 26 26 21 20 21 22 20 21 23 30 31 37 41 45 50 51 53 54 56 55 55 56 55 57 56 56 55 55 54 53 52 52 53 56 57 57 56 56 57 58 58 57 57 57
26 26 25 24 21 23 24 22 20 24 23 22 24 26 29 32 35 40 43 49 51 53 54 56 54 53 56 56 56 56 56 56 56 55 55 54 53 53 53 56 57 56 56 57 58 58 57 57 57
24 25 28 28 23 25 26 27 32 30 30 30 31 32 34 35 35 36 41 45 50 52 53 55 54 53 53 56 57 56 55 55 57 55 55 55 55 54 54 54 54 55 57 57 57 56 56 56 56
23 24 25 28 28 27 30 26 33 34 29 31 31 31 32 34 34 36 38 44 47 51 52 54 54 53 53 55 57 57 56 56 56 56 56 56 55 55 54 53 53 54 54 55 55 55 54 55 54

GFSSGP_sfc_dewp_063.txt.gz
Dewpoint
56 49 41 39 33 26 22 21 21 16 28 31 32 33 30 31 41 46 62 64 66 67 70 71 72 72 72 71 72 72 72 72 72 72 71 70 70 70 70 70 70 70 70 69 68 68 68 68 69
44 37 35 34 26 23 23 22 21 23 26 27 29 30 31 43 55 60 61 63 63 68 69 71 72 72 72 71 72 72 72 72 72 72 71 71 71 71 70 70 70 70 70 68 68 67 68 68 68
45 38 34 29 25 23 23 21 19 22 24 23 26 29 40 47 50 59 62 64 64 66 67 70 71 71 71 71 71 71 71 71 71 71 71 71 71 71 70 69 69 69 69 68 68 67 67 68 68
37 37 31 21 20 21 21 20 17 20 22 24 29 33 44 52 52 60 62 64 63 64 66 69 70 71 71 71 71 71 71 70 70 70 70 71 71 70 69 68 68 69 69 67 66 67 67 66 66
32 30 21 20 19 19 18 17 19 19 21 29 30 33 47 55 59 60 61 61 63 63 67 68 68 70 71 71 71 70 70 69 70 70 70 70 70 69 68 68 67 68 68 67 66 66 66 65 65
27 25 20 18 19 20 20 20 17 22 21 22 26 32 49 56 57 61 62 61 63 64 67 68 68 69 69 69 69 69 69 68 68 69 70 70 69 68 68 67 66 66 66 66 66 65 65 64 63
28 25 20 19 18 17 19 21 21 21 22 32 38 34 51 54 59 61 61 61 62 64 66 68 66 67 67 66 66 65 66 65 66 67 68 68 67 67 67 67 67 67 66 66 65 65 64 63 62
29 26 21 20 19 18 18 23 23 21 26 39 34 30 50 56 58 58 60 60 61 64 65 66 65 66 65 65 65 64 63 62 63 63 65 67 66 66 67 67 67 66 66 65 65 64 63 62 60
31 23 18 18 19 19 19 23 24 22 24 32 36 30 54 57 57 56 57 57 57 64 64 64 64 65 65 65 64 63 62 62 63 63 62 65 65 65 65 66 66 66 65 64 64 63 62 60 59
24 19 18 19 19 19 17 21 19 20 28 28 31 53 55 54 53 52 51 55 57 60 62 63 63 65 65 65 63 63 62 61 62 62 62 65 65 64 64 65 65 65 64 64 63 62 61 57 53
26 22 21 19 21 22 19 15 19 18 26 29 38 52 53 52 51 51 52 55 57 61 63 62 64 64 64 64 62 62 61 62 61 64 65 65 65 64 64 64 63 63 63 61 59 58 53 51 51
24 23 21 20 20 19 17 15 18 20 26 36 35 51 52 52 52 52 52 56 58 60 63 62 63 63 63 64 63 62 62 63 62 64 64 64 64 63 63 62 62 61 60 58 57 54 52 49 51
25 23 21 20 19 19 18 15 18 19 22 33 41 41 43 50 50 52 56 57 57 59 61 62 63 62 63 63 62 62 63 63 63 63 63 63 63 62 62 60 59 57 57 55 53 52 51 49 50
26 24 21 19 17 16 17 16 17 20 21 21 40 43 44 45 48 51 56 57 57 60 61 62 62 62 62 62 62 62 63 62 62 62 62 61 62 62 61 57 55 55 54 52 51 52 51 50 50
25 21 19 17 15 14 19 17 14 18 21 21 37 42 45 46 45 52 53 57 58 59 59 61 62 62 62 61 62 62 62 60 59 60 60 60 61 60 61 56 54 55 54 50 51 52 52 52 53
26 24 18 18 18 19 18 18 18 17 19 20 23 41 45 46 44 45 53 58 58 58 59 61 62 62 61 60 61 62 61 59 58 59 59 60 59 60 61 58 54 56 53 53 52 53 51 52 52
27 21 20 18 20 18 18 18 18 19 20 23 28 39 44 46 46 46 53 58 59 58 59 59 60 60 60 61 61 61 61 60 59 59 59 60 59 58 61 60 58 56 55 55 53 52 50 50 51
25 21 19 19 20 19 17 17 19 19 25 31 30 30 43 45 45 47 53 58 58 58 59 59 60 60 60 60 61 61 61 61 59 58 58 59 58 58 60 59 59 58 57 55 52 51 50 50 51
25 23 23 22 22 24 21 17 18 21 23 31 31 30 40 44 46 47 52 57 57 57 58 58 59 59 59 59 58 59 58 58 58 58 57 58 57 56 55 56 56 55 57 53 50 52 50 50 50
25 23 23 23 23 24 21 18 18 18 18 23 31 31 32 43 46 47 55 56 57 56 57 58 57 58 58 58 58 58 58 58 58 58 58 57 56 54 54 54 55 54 55 54 52 50 50 50 50
22 23 24 23 23 21 19 16 18 20 21 19 24 30 33 43 46 47 51 56 57 56 57 57 57 57 57 58 58 58 58 57 57 57 57 55 54 53 53 53 53 53 53 53 51 50 48 48 49
13 18 20 19 19 18 20 17 19 20 20 19 19 27 34 44 46 48 49 53 56 56 57 57 57 57 57 57 57 56 55 54 54 55 54 53 54 53 52 53 53 53 55 54 52 50 52 50 47
28 25 24 24 23 21 21 19 19 21 20 17 18 26 29 43 46 49 50 50 55 57 57 57 57 57 57 56 56 55 54 53 54 55 55 54 53 53 52 54 54 53 54 55 55 54 52 54 53
32 32 28 26 25 23 23 20 20 20 20 22 20 26 29 36 46 49 51 51 53 56 56 56 56 56 57 56 56 55 54 53 52 53 54 54 54 54 54 53 55 54 53 54 57 56 54 54 55
30 31 25 23 23 23 23 22 21 23 23 24 24 25 29 34 46 48 51 52 51 55 56 55 56 56 56 56 55 55 54 53 50 53 53 53 53 55 56 54 54 55 55 53 55 57 57 55 56
29 28 27 22 23 22 23 21 21 24 23 24 23 27 32 37 46 48 50 52 52 55 55 55 55 55 56 56 56 55 55 54 51 51 53 53 52 53 55 56 54 55 56 57 57 57 57 57 57
30 27 26 27 30 28 28 28 22 23 22 21 21 28 34 37 43 48 49 51 52 53 55 55 55 55 55 56 56 56 55 54 53 51 51 52 50 51 54 56 55 55 55 57 57 57 56 57 57
30 28 28 33 27 26 25 27 29 29 23 27 24 27 31 33 37 47 49 50 52 54 55 55 55 54 55 56 56 56 56 56 55 54 52 51 50 50 50 55 56 55 55 56 57 57 57 57 56
28 30 36 35 30 25 25 28 34 30 31 30 31 32 31 31 34 38 47 50 52 53 55 54 54 54 54 54 55 56 56 56 55 55 53 53 52 50 50 53 55 56 55 54 56 56 56 56 55
28 28 35 34 31 32 29 32 37 33 28 29 30 28 31 35 38 40 41 44 50 52 53 54 53 54 55 55 55 55 56 56 56 55 55 55 53 52 51 51 53 55 55 55 54 54 55 56 55

GFSSGP_sfc_dewp_066.txt.gz
Dewpoint
58 48 39 39 32 26 23 23 23 21 28 30 33 30 33 38 40 37 61 65 68 69 71 71 71 72 72 72 72 72 72 72 72 71 71 71 70 70 69 69 69 70 70 69 68 69 69 69 69
44 38 35 33 28 23 22 24 22 23 29 29 31 30 35 50 58 60 61 65 67 68 70 71 71 71 72 72 72 71 72 72 72 71 71 70 70 71 71 70 69 69 69 67 67 69 68 69 68
41 38 32 29 26 23 22 24 20 22 26 24 26 34 42 50 59 61 62 64 67 67 69 71 71 71 71 71 71 71 71 71 71 70 71 71 71 71 71 70 70 69 70 68 68 68 68 68 67
35 37 35 23 21 24 24 24 23 20 22 25 30 38 48 53 58 60 63 64 66 67 69 70 70 71 71 71 71 71 71 71 71 70 71 71 71 71 70 69 69 69 69 68 67 68 68 67 66
32 30 27 22 20 20 21 21 19 19 22 29 29 36 48 58 60 62 62 64 63 65 67 70 70 71 71 71 71 71 70 70 70 70 70 70 70 70 69 69 68 68 69 68 67 68 67 67 65
27 27 21 21 19 19 21 21 20 21 27 30 30 46 51 58 60 61 62 63 64 66 67 68 70 71 70 69 69 70 70 70 70 70 70 70 69 69 69 68 68 68 67 67 67 66 65 64 63
26 24 20 20 19 20 21 23 21 22 23 30 36 42 53 55 60 61 61 62 64 66 66 67 68 68 67 67 67 67 68 67 67 65 68 69 68 67 68 68 68 67 66 67 66 65 64 63 63
28 27 27 23 22 21 22 21 23 21 22 40 35 48 51 55 61 61 60 60 62 64 65 66 66 67 66 65 66 66 66 66 65 64 64 64 67 67 67 67 67 66 66 66 66 64 63 62 62
32 27 23 22 21 21 21 21 20 22 35 36 35 47 52 58 58 58 57 57 62 64 63 63 64 65 65 64 65 65 65 66 65 64 63 61 65 65 66 65 66 66 65 65 64 63 62 61 61
32 27 28 24 22 20 20 20 19 19 30 31 51 56 57 57 56 55 56 55 60 60 61 62 63 63 64 64 62 62 63 63 62 62 62 61 64 65 65 65 65 65 64 64 63 62 61 57 55
28 29 25 22 22 21 20 21 21 18 21 29 48 54 55 55 54 54 54 56 57 61 61 62 62 64 64 63 63 61 60 61 61 61 60 61 65 64 65 64 63 63 63 60 60 59 53 52 52
29 29 26 25 24 22 20 20 18 17 22 30 50 53 52 51 52 51 54 55 59 61 60 61 62 64 64 63 62 61 60 59 60 61 60 63 64 64 63 61 62 61 60 58 57 54 51 50 52
31 31 30 27 24 22 21 19 19 17 20 36 51 51 51 51 51 52 54 58 59 60 61 61 63 63 64 63 62 60 60 62 60 63 61 63 63 63 62 61 61 60 59 57 54 52 49 50 52
29 30 29 26 24 21 19 17 17 19 20 39 49 49 51 51 50 55 57 57 59 59 59 60 62 63 63 62 62 60 62 62 63 64 63 63 63 62 61 60 58 58 57 55 52 51 48 49 51
29 25 24 24 21 19 18 15 16 18 18 20 40 41 46 49 51 54 56 57 59 59 59 60 60 62 62 61 61 62 62 62 62 63 63 62 62 61 60 57 56 56 54 51 51 52 50 49 51
28 26 22 22 20 19 17 17 18 19 17 17 31 42 44 46 50 53 56 57 58 58 58 61 62 62 62 62 62 61 61 60 60 61 61 62 62 60 58 55 54 53 52 49 51 52 51 50 52
28 24 22 21 21 20 19 19 20 20 20 17 19 40 44 45 46 51 56 58 58 58 58 60 61 61 61 61 62 61 59 59 60 60 60 60 60 60 57 55 55 52 51 49 51 53 51 51 52
25 24 21 20 21 22 22 22 22 20 19 21 20 33 44 45 44 48 57 58 58 58 58 59 60 61 60 61 61 61 60 59 58 59 58 59 58 60 60 56 57 53 52 50 52 52 52 51 52
24 24 24 24 25 25 23 23 26 25 19 22 29 34 43 45 46 52 58 58 57 57 57 58 59 60 60 60 59 59 59 59 59 59 58 59 58 58 60 57 57 56 55 53 52 51 50 51 52
24 24 25 25 24 24 23 24 22 21 20 23 30 31 42 45 45 53 57 57 57 57 56 57 59 59 59 59 59 59 59 59 59 58 58 58 58 57 58 58 56 57 57 55 52 51 50 50 51
19 18 24 24 24 23 25 22 20 20 20 21 28 31 37 44 45 52 56 56 56 57 56 56 58 58 58 58 58 57 58 58 57 58 58 59 58 55 54 57 55 56 56 54 51 51 49 49 50
29 18 17 21 22 24 25 22 21 21 21 22 21 28 33 44 45 50 55 56 55 56 57 56 57 57 57 58 57 57 55 55 56 57 57 58 57 55 54 55 54 55 55 55 53 51 49 49 48
28 34 32 30 27 25 24 21 20 21 21 21 22 22 31 44 45 49 54 55 56 56 56 56 57 57 57 57 57 56 56 56 56 56 56 57 57 55 53 53 55 53 55 56 55 52 50 49 51
37 33 32 28 27 24 25 23 23 21 21 22 23 22 31 43 45 47 52 55 56 56 57 56 56 56 56 57 57 55 55 54 54 55 54 55 54 53 54 52 53 54 54 55 55 53 50 50 50
35 33 26 25 24 24 26 24 24 25 24 25 26 24 29 44 46 48 49 54 55 55 56 55 55 55 56 56 56 55 54 53 53 54 54 53 53 52 53 53 54 54 54 54 56 55 52 51 53
32 35 29 25 26 25 24 22 22 25 25 25 25 26 32 44 47 49 49 52 55 55 55 55 55 55 56 56 55 55 54 53 52 53 53 53 53 52 53 53 53 54 53 53 54 56 56 54 55
33 35 34 31 30 30 29 28 29 30 25 24 23 31 38 44 47 49 50 50 55 55 55 55 55 55 56 56 56 55 54 54 52 52 53 53 53 54 55 54 53 54 55 55 55 53 55 56 55
31 36 33 35 27 25 26 26 29 29 30 28 30 32 39 45 47 49 51 51 52 55 55 55 55 55 55 56 56 55 55 54 53 52 51 53 53 52 53 56 55 55 54 55 56 56 56 55 55
31 36 36 35 33 29 26 30 39 35 30 31 35 38 39 40 43 48 50 52 52 55 55 55 54 54 55 56 56 56 56 55 55 53 51 51 52 51 51 54 55 55 54 54 54 55 56 56 55
33 35 35 33 30 32 32 33 44 39 35 30 36 38 40 41 42 43 48 51 52 54 55 54 54 54 54 55 55 55 56 56 56 55 54 53 51 51 50 50 54 55 55 54 53 52 52 55 55

GFSSGP_sfc_dewp_069.txt.gz
Dewpoint
58 47 37 39 29 28 25 23 24 22 23 30 32 31 29 37 33 30 58 66 68 69 70 71 71 72 72 71 72 72 72 72 72 72 71 71 71 71 71 71 71 71 71 70 70 70 70 70 70
47 37 35 33 28 22 20 25 23 24 26 30 38 42 41 48 58 59 61 66 68 70 70 70 71 71 72 71 71 72 72 72 71 71 71 71 71 70 70 70 70 70 70 69 70 70 69 69 69
40 36 31 30 27 22 19 24 22 22 22 28 27 35 47 49 58 60 62 67 67 69 70 70 71 71 71 71 71 71 71 71 71 71 71 70 70 70 70 70 69 69 70 69 69 69 68 68 67
35 34 32 27 25 26 23 23 24 21 20 24 28 39 48 56 59 61 64 67 67 67 70 70 70 70 71 71 71 71 71 70 70 70 70 70 71 70 70 69 69 69 69 69 69 68 67 67 67
32 32 29 25 24 23 24 24 22 21 21 22 30 41 47 57 60 63 63 66 66 66 68 70 69 70 71 71 71 71 71 70 70 70 70 70 71 71 70 69 69 69 69 69 68 68 67 67 66
26 28 23 24 22 21 21 21 22 23 23 23 30 46 50 59 60 61 63 63 65 65 67 69 70 70 70 70 69 69 70 70 69 70 70 70 70 70 69 69 68 68 68 67 67 66 66 65 65
22 24 23 21 20 20 22 23 22 22 24 24 39 48 53 58 60 61 62 64 65 65 66 67 69 70 69 68 68 67 67 68 69 69 68 68 68 68 68 68 68 68 67 67 67 66 64 65 64
28 26 25 22 21 20 22 22 22 21 20 40 50 49 51 56 60 60 61 63 64 64 64 65 66 66 64 65 66 66 66 65 66 66 66 66 66 67 67 67 67 67 67 66 65 64 64 64 63
30 26 23 23 22 21 23 21 21 23 28 34 37 52 52 58 60 59 58 58 61 63 63 63 64 64 64 65 67 66 65 64 64 66 65 63 64 66 65 66 66 67 65 65 64 63 63 63 62
34 29 24 25 23 22 21 21 21 21 23 24 46 55 58 59 59 58 57 57 60 60 60 62 62 63 63 65 65 65 63 64 63 64 63 62 64 65 64 65 65 65 65 64 63 63 63 61 58
32 29 28 26 26 26 22 22 23 20 21 27 40 53 57 57 56 56 56 57 60 60 60 61 62 64 63 62 62 63 64 64 63 62 62 62 63 64 64 64 64 63 63 60 59 58 56 57 56
30 29 29 30 28 25 24 24 21 20 21 23 26 54 56 55 55 54 55 56 58 59 60 61 63 63 63 62 61 61 61 62 61 61 60 62 62 63 64 63 62 61 60 59 56 52 52 53 53
32 32 32 31 30 26 26 23 22 21 22 21 45 54 54 54 53 52 54 56 58 59 59 62 62 62 63 62 62 60 60 60 60 60 60 62 62 63 64 62 61 59 58 57 54 51 51 52 53
29 30 30 31 32 29 26 24 21 21 20 30 52 52 52 52 52 52 55 57 59 59 59 61 61 63 63 62 61 60 59 60 60 61 60 62 62 63 62 60 60 59 57 56 53 49 50 52 53
29 27 27 26 25 23 23 19 17 19 19 32 50 50 50 51 51 52 55 57 59 60 59 60 61 62 63 62 61 61 62 62 61 61 60 62 63 63 61 60 59 58 56 53 52 50 49 51 53
28 28 25 25 24 23 19 20 20 19 19 19 42 47 50 50 50 53 56 58 59 58 59 59 61 61 62 61 61 62 61 61 62 62 62 61 63 62 60 58 57 57 54 53 51 51 49 50 53
28 25 24 24 23 21 18 19 20 22 22 19 19 40 45 49 49 54 57 58 58 58 58 59 61 60 61 61 61 61 60 60 60 61 62 62 61 60 58 56 55 55 53 52 50 52 50 50 53
25 25 24 22 23 25 24 23 25 25 24 23 20 29 42 46 47 51 57 58 57 57 57 59 59 61 61 61 61 60 60 59 60 60 60 62 61 59 57 55 55 53 50 50 51 51 51 51 52
27 25 24 25 26 25 24 23 24 25 26 22 20 22 41 44 45 53 57 57 57 57 57 59 58 60 60 60 59 59 58 58 59 58 59 60 61 59 56 55 54 52 48 49 52 51 50 51 52
19 20 24 25 26 25 24 23 23 24 24 22 22 24 31 43 46 55 57 57 57 57 57 58 57 59 60 60 60 60 60 59 59 58 58 59 59 60 57 55 55 52 51 52 52 51 50 50 51
23 18 23 24 25 26 24 22 25 26 22 21 22 26 35 44 45 55 56 56 56 56 56 57 57 57 58 60 58 58 58 58 58 58 58 59 59 59 60 56 56 55 53 53 52 51 50 49 50
25 24 26 18 18 21 25 22 25 26 24 23 22 28 34 44 46 53 55 55 55 55 56 56 57 57 58 58 58 57 57 56 57 58 58 59 58 58 58 59 57 57 56 55 53 51 50 50 49
28 36 34 32 28 26 24 23 24 24 23 23 23 23 29 42 45 51 55 55 55 56 56 56 56 57 57 57 57 57 55 55 57 57 57 58 58 57 56 57 57 56 57 56 55 52 49 50 51
34 35 33 32 28 24 23 24 24 25 24 24 24 24 25 39 44 48 54 55 55 55 55 55 55 55 56 56 56 55 55 55 56 56 56 57 58 57 56 57 56 56 56 56 56 54 52 51 51
35 35 28 24 23 21 26 25 24 27 27 27 27 26 26 37 44 49 54 55 54 55 55 55 55 55 55 56 56 55 54 55 55 55 56 56 56 56 55 55 56 55 56 56 57 56 55 52 51
31 37 30 23 24 25 28 24 24 31 31 31 27 26 26 32 44 49 53 54 54 54 55 54 54 54 55 56 56 56 55 55 54 55 55 55 55 55 54 55 56 56 56 56 56 56 55 55 53
36 33 38 32 33 28 28 28 30 33 32 35 29 25 28 39 44 47 53 54 54 55 54 54 54 54 54 55 55 56 55 53 53 54 54 54 55 54 53 53 55 56 56 55 55 56 55 55 52
37 39 33 35 27 24 27 30 34 34 32 37 39 39 41 45 47 48 51 54 55 55 54 55 55 54 54 55 55 55 55 54 53 52 53 53 53 53 54 53 53 54 55 55 54 53 53 55 53
37 37 36 36 34 28 26 33 40 40 39 37 39 41 42 45 48 50 51 53 54 55 54 55 55 55 54 54 55 55 55 54 53 52 52 53 53 52 53 55 54 53 54 54 53 52 52 52 53
34 35 37 32 31 33 34 33 43 43 39 38 39 41 42 46 48 50 51 53 55 55 55 55 54 54 55 56 55 55 55 55 54 54 53 52 52 53 52 52 55 55 53 53 53 54 54 55 54

GFSSGP_sfc_dewp_075.txt.gz
Dewpoint
58 50 39 39 26 27 16 16 24 22 22 26 30 29 29 30 40 31 57 66 68 68 70 70 69 70 72 72 72 73 73 73 73 73 73 73 73 72 72 72 72 71 72 72 71 71 70 70 71
48 36 37 36 20 10 4 23 22 23 24 25 35 39 39 34 52 53 59 66 67 69 70 70 69 70 71 72 72 72 73 73 73 73 73 73 72 72 72 72 71 71 71 71 70 71 70 70 70
38 34 30 32 26 8 3 17 25 25 25 23 27 36 37 41 56 56 61 67 68 68 69 69 69 68 70 71 72 71 71 72 72 72 73 72 72 72 72 71 71 71 70 71 70 70 70 70 69
36 35 32 25 22 22 12 18 25 23 20 23 26 26 41 53 57 59 62 67 68 68 69 69 69 69 70 71 71 72 70 70 72 72 72 72 72 72 72 71 71 71 71 71 70 70 69 68 68
34 31 23 26 24 25 25 23 24 22 22 21 23 25 39 54 61 62 65 67 68 68 69 70 69 70 70 71 71 71 71 69 71 71 71 71 72 71 70 70 70 69 70 70 70 69 68 68 67
27 30 20 13 22 23 24 24 23 21 21 22 24 25 31 58 61 64 67 67 68 69 68 69 70 70 70 70 70 70 69 70 70 70 71 71 70 70 69 68 68 69 69 69 69 68 68 67 66
24 27 16 19 20 20 20 23 21 20 21 23 28 30 42 57 61 64 66 67 68 69 70 69 69 70 69 68 69 68 68 68 69 69 68 68 67 68 67 67 68 68 68 68 68 67 67 67 66
25 26 20 21 17 15 20 22 22 23 20 29 46 36 38 54 62 64 65 66 67 68 69 69 68 69 70 71 67 67 67 67 67 67 67 66 66 66 66 66 67 67 68 67 67 67 66 66 65
28 21 18 18 19 17 22 20 22 23 22 24 26 36 50 57 62 62 63 64 65 66 67 68 67 69 69 70 68 67 67 67 67 67 66 65 65 65 65 65 66 67 66 66 66 66 65 64 63
30 24 20 22 21 19 20 23 22 23 24 24 25 41 57 60 61 60 60 61 64 65 66 67 67 67 67 68 68 68 67 68 67 66 65 66 65 65 64 64 65 65 66 65 65 65 64 62 60
33 25 27 26 24 23 23 24 25 22 23 26 27 28 45 57 59 60 59 60 62 64 65 66 66 66 66 65 67 67 67 68 67 65 65 66 66 65 65 65 65 64 65 64 64 63 60 61 59
27 32 30 27 26 27 27 27 27 27 28 28 29 28 28 39 57 59 58 59 61 62 63 65 65 65 64 65 64 66 65 65 65 66 65 65 65 64 63 63 64 64 64 63 63 61 61 60 59
27 26 28 29 30 29 29 28 28 27 28 29 28 29 28 30 43 56 58 58 60 61 63 63 64 64 64 63 64 64 64 65 64 64 64 63 64 64 63 62 64 63 61 62 61 60 59 59 57
24 26 25 27 27 28 28 28 30 29 30 29 27 26 27 37 45 52 58 57 58 60 62 62 62 64 64 63 63 63 64 64 63 63 63 63 64 64 62 63 63 61 60 60 59 58 58 57 56
26 25 27 28 28 27 31 29 30 31 31 29 26 25 25 36 50 54 56 57 58 59 61 61 62 63 63 62 62 62 62 63 63 62 63 63 63 63 62 62 62 61 59 57 57 57 57 56 55
23 26 22 27 28 28 28 18 24 27 26 25 25 25 25 33 48 54 56 56 57 60 61 61 61 62 62 62 61 62 62 61 62 62 62 62 62 63 62 61 61 61 57 56 55 56 55 55 54
24 20 24 25 26 26 25 24 25 24 25 24 25 26 27 33 47 53 54 55 57 59 61 60 61 61 61 61 61 61 62 62 61 62 61 62 62 63 63 61 61 59 57 55 54 55 56 55 54
18 22 25 25 26 26 25 24 25 26 26 29 27 28 29 29 38 47 53 55 57 59 61 60 61 61 61 61 61 62 62 62 62 62 61 61 63 62 62 61 59 59 57 54 53 55 55 55 54
20 20 19 19 23 23 22 25 27 28 27 27 27 27 28 29 33 43 54 57 58 60 60 59 60 60 61 60 60 60 59 61 61 62 62 61 61 63 61 59 58 59 57 55 55 54 55 54 55
22 21 21 22 21 20 19 20 26 27 27 28 28 28 28 29 29 45 55 56 57 58 60 59 60 60 61 59 59 60 60 60 60 61 62 63 61 61 60 59 58 57 57 56 55 55 54 54 55
29 28 28 26 26 26 23 20 20 22 27 27 27 28 28 28 29 41 54 56 57 58 59 59 59 60 60 61 60 60 60 59 59 59 60 60 60 59 58 58 57 56 56 55 54 54 54 52 54
29 30 29 28 26 21 22 18 22 23 24 26 27 29 30 30 30 35 52 55 56 57 59 58 58 59 60 60 59 59 57 57 58 59 59 60 60 59 58 56 56 55 55 55 55 53 53 53 53
30 33 32 31 30 29 27 24 23 25 24 25 28 30 31 32 33 42 51 54 56 58 58 57 57 58 59 60 59 58 57 57 58 59 59 59 60 59 58 57 56 54 53 55 55 55 54 54 54
34 33 32 31 30 26 26 24 22 22 23 27 30 34 36 34 36 43 52 54 56 57 57 56 57 57 59 59 59 59 58 57 57 58 58 59 59 60 58 58 57 55 54 54 54 54 55 54 55
31 30 25 23 25 21 24 25 25 27 29 37 39 39 41 40 39 48 52 53 55 56 56 56 56 56 57 58 59 58 57 57 57 57 58 58 58 58 59 58 58 57 56 55 55 54 54 54 54
31 29 26 20 22 23 27 22 25 38 39 40 41 43 44 44 36 48 52 54 55 55 55 55 55 54 55 56 58 58 57 57 57 57 57 57 58 57 58 59 58 57 57 57 56 55 54 54 56
32 31 33 34 30 28 25 27 37 38 39 40 43 45 47 47 45 42 52 54 55 54 54 54 54 54 54 55 56 57 56 56 56 57 57 58 58 57 57 58 58 58 57 57 57 56 55 54 54
34 38 34 34 23 22 22 27 33 37 38 40 43 45 48 49 49 49 53 54 54 54 54 55 55 55 54 54 57 56 56 56 56 56 56 57 58 58 57 58 57 57 57 57 57 57 56 55 56
34 32 36 35 31 25 26 32 39 39 40 41 43 43 44 46 51 51 52 53 54 54 55 54 54 54 54 54 55 57 56 56 56 56 56 56 57 56 56 56 57 56 57 57 57 57 57 56 55
33 32 36 31 29 33 32 30 43 41 39 41 41 41 42 43 45 51 53 54 54 54 54 54 54 53 54 54 54 54 56 56 56 56 56 57 56 56 55 55 56 56 56 57 57 56 56 56 55

GFSSGP_sfc_dewp_078.txt.gz
Dewpoint
53 45 36 32 21 15 7 4 8 14 23 25 28 22 24 29 34 30 56 64 64 66 69 70 70 71 72 72 73 73 73 73 73 73 73 73 73 73 72 72 72 72 72 72 71 71 71 71 71
41 38 31 28 12 5 4 5 12 10 20 23 25 30 31 30 37 47 57 63 63 64 68 69 70 71 72 72 73 73 73 73 73 73 73 73 73 73 72 72 72 72 72 73 72 71 71 71 70
39 32 22 18 14 4 2 4 9 22 22 23 29 35 35 34 47 48 55 64 64 64 66 68 70 70 72 72 72 72 73 73 73 73 73 73 73 72 72 72 72 72 72 73 71 71 71 70 70
33 27 24 17 8 13 7 4 13 23 21 17 21 24 30 44 50 51 58 63 64 65 66 69 69 69 71 72 72 71 70 72 72 72 73 73 72 72 72 71 71 72 72 72 71 70 70 69 69
32 22 14 12 8 8 14 14 19 23 23 19 16 19 27 43 53 57 60 63 64 66 68 70 68 69 70 72 72 72 71 70 72 72 72 72 72 72 70 71 71 71 71 70 70 70 69 68 68
25 22 12 7 8 12 15 10 17 18 17 16 18 25 25 48 52 58 62 64 67 68 69 70 70 70 70 70 71 71 70 70 71 71 71 71 70 71 70 69 70 70 69 68 70 69 68 68 67
24 19 13 11 9 9 14 12 17 13 12 11 28 28 30 43 54 60 63 65 68 69 70 71 70 69 69 68 69 69 69 69 69 69 68 69 68 68 67 68 67 68 68 69 69 68 68 67 66
27 21 18 15 13 13 12 15 14 15 11 28 29 27 30 42 56 63 63 63 64 69 70 70 70 70 70 70 68 68 68 68 68 68 67 66 67 68 68 66 67 67 68 68 68 68 67 66 65
26 21 18 17 16 16 16 15 14 17 16 18 22 26 34 46 54 61 62 62 63 66 68 70 69 69 70 70 69 68 68 68 67 67 67 66 67 67 67 66 66 67 67 67 67 67 66 65 64
23 19 18 19 19 18 17 17 16 19 21 22 21 24 42 46 50 58 59 59 62 64 66 68 68 68 69 68 70 69 68 66 66 67 68 67 66 66 64 65 66 66 66 66 66 65 64 63 61
27 20 20 21 22 20 19 18 18 18 20 21 22 22 27 29 45 52 56 55 59 62 63 66 69 68 69 69 68 67 65 66 68 67 67 67 65 64 62 64 66 66 65 66 65 64 62 62 60
26 26 25 21 22 22 21 21 20 19 22 23 22 23 24 27 33 44 51 55 57 61 62 64 66 66 68 68 67 67 66 65 67 66 67 65 64 64 63 63 64 65 66 65 66 65 64 62 59
22 19 17 20 22 20 20 19 19 20 22 22 21 23 26 28 30 32 41 48 56 59 61 63 66 66 66 66 66 66 66 65 66 66 66 64 63 63 65 65 65 64 65 64 66 63 62 61 59
21 23 22 23 23 24 23 22 21 23 24 25 25 25 25 27 28 29 34 45 54 58 61 63 65 65 66 65 65 66 65 65 66 66 66 65 64 64 63 63 64 64 63 64 64 61 62 59 57
23 21 22 23 23 24 23 21 22 25 26 25 24 24 23 25 26 31 37 46 53 58 60 64 65 64 65 64 64 64 65 65 65 64 65 64 64 65 63 62 64 63 63 63 63 61 60 57 56
21 21 18 18 26 26 27 21 17 21 24 25 25 25 22 23 25 28 39 47 53 57 60 63 63 65 65 64 63 63 64 65 65 64 65 64 63 64 63 62 62 62 61 62 62 59 58 57 55
19 13 16 19 22 23 24 23 23 25 24 25 25 24 23 24 26 32 42 49 54 57 61 62 63 63 64 63 63 63 63 64 63 63 63 64 63 63 63 63 63 61 60 61 60 58 57 56 54
12 15 16 19 22 23 22 22 25 25 25 27 26 26 26 26 26 28 39 50 55 57 61 62 62 63 63 63 63 62 63 63 63 62 63 63 63 63 63 63 61 61 59 59 59 59 58 55 54
18 18 17 16 18 19 19 19 19 21 25 27 28 27 26 26 26 28 38 51 55 59 60 61 62 62 62 62 61 61 62 62 62 62 62 62 62 63 63 62 60 61 58 58 58 57 57 55 55
20 18 18 21 23 24 22 22 22 21 21 23 27 28 28 27 25 27 38 52 56 58 60 60 61 61 61 60 59 60 61 62 62 62 62 62 63 63 62 61 60 59 58 58 59 58 55 55 55
24 25 25 25 27 28 27 23 21 23 24 23 26 27 28 28 26 27 38 51 55 57 60 59 60 61 61 60 59 61 61 61 61 61 61 62 63 61 61 61 60 59 59 58 58 58 57 54 55
24 27 28 27 27 18 24 16 20 22 23 22 23 28 28 28 27 28 33 48 53 56 60 59 60 59 60 59 59 59 58 57 59 59 60 61 61 60 60 60 60 59 60 58 58 56 57 55 54
24 30 28 28 28 28 25 23 21 23 23 23 25 27 29 30 27 31 34 42 51 56 59 60 60 59 59 58 59 57 58 58 58 59 60 60 60 59 59 59 59 59 59 60 59 58 57 56 54
29 27 24 26 28 24 23 23 19 21 25 26 30 29 33 34 36 34 36 45 50 56 59 59 59 58 59 58 59 59 58 58 58 59 59 59 59 59 59 58 58 58 57 58 59 58 57 56 55
29 23 14 19 23 19 22 22 23 25 34 35 35 38 40 42 41 37 43 47 52 56 58 58 58 57 58 58 57 58 58 58 57 58 57 59 59 59 58 58 57 56 56 57 57 58 57 56 55
24 22 19 15 16 16 23 21 23 36 37 39 40 43 45 45 45 38 46 49 52 56 56 57 57 56 57 57 56 59 58 58 57 58 58 59 59 59 60 59 57 57 55 55 56 56 56 57 57
30 29 29 28 27 25 20 22 32 35 36 38 41 43 45 48 49 42 46 51 53 55 55 57 56 56 56 57 57 59 59 59 58 59 58 58 58 58 59 59 59 58 57 55 55 55 55 55 56
32 33 31 32 25 19 17 22 27 36 38 40 42 43 44 47 50 46 49 52 54 55 55 57 56 55 56 56 57 55 57 58 57 57 57 57 58 58 58 59 58 58 58 58 56 55 55 54 54
31 31 33 36 31 23 21 33 41 39 40 41 41 42 43 45 47 50 51 52 53 54 55 56 55 56 55 55 56 55 55 56 57 56 56 56 58 58 57 58 58 58 58 57 57 56 55 54 54
27 28 31 29 27 34 34 31 42 39 38 39 39 39 41 42 44 46 52 53 54 54 55 55 55 55 55 55 55 55 56 56 57 56 56 57 57 57 58 58 58 57 57 57 57 57 57 55 53

GFSSGP_sfc_dewp_081.txt.gz
Dewpoint
55 45 37 25 19 16 7 5 4 4 11 17 24 22 17 19 26 34 51 61 59 62 65 69 71 72 73 73 73 73 73 73 73 73 73 73 73 73 73 73 73 73 73 73 71 71 71 71 71
41 36 31 21 16 10 6 7 3 9 6 23 23 26 25 27 30 40 51 59 60 61 66 66 70 72 72 73 73 73 74 73 73 73 73 72 73 73 72 73 72 73 73 72 71 71 71 71 71
47 33 23 17 15 14 6 2 3 7 17 17 17 28 32 30 34 39 55 59 57 57 63 67 70 71 72 72 73 73 73 73 73 73 73 73 73 73 72 72 72 72 73 72 71 71 71 71 70
37 29 23 16 13 11 11 10 4 5 19 17 17 22 30 36 44 46 56 58 57 58 60 69 70 71 72 72 72 73 73 72 72 73 73 73 73 73 71 70 72 72 72 72 71 71 71 70 69
30 22 18 14 13 11 9 9 8 11 17 17 16 17 22 34 42 50 55 57 60 61 63 70 69 69 71 72 72 72 71 72 72 72 72 72 73 72 70 71 71 71 71 71 70 71 70 69 69
27 24 18 13 12 10 10 8 9 10 16 21 19 19 22 34 40 49 55 60 62 64 66 69 69 69 70 71 71 71 71 71 71 72 71 72 70 70 69 69 69 69 69 68 70 70 69 68 68
27 22 18 15 13 12 10 13 13 10 14 12 14 17 24 30 45 49 56 61 64 66 68 70 70 69 69 69 70 70 70 70 70 70 69 69 68 69 69 68 68 68 67 68 69 69 68 68 67
27 25 20 17 14 13 11 12 12 11 11 14 15 20 22 41 44 55 58 59 63 66 68 70 70 70 70 70 69 69 70 69 69 70 68 68 68 67 68 68 67 67 68 67 68 68 67 67 66
28 24 21 18 16 16 15 14 13 14 11 12 18 22 25 40 40 54 57 59 60 64 67 70 70 70 70 69 68 69 69 69 68 68 67 66 67 67 67 65 65 66 66 66 67 67 66 65 64
25 23 20 19 17 16 16 16 16 15 17 19 15 19 23 39 38 47 54 57 58 62 65 69 69 69 69 65 70 68 68 67 67 65 67 67 68 66 65 63 64 66 66 67 67 66 64 64 63
22 21 20 16 16 18 19 18 18 16 18 20 22 22 23 28 31 43 48 54 56 60 62 65 69 69 69 66 69 67 66 65 68 67 67 68 69 66 67 65 65 67 67 67 66 65 66 64 63
21 22 21 19 19 19 20 20 17 17 20 20 21 21 21 23 29 33 40 49 53 57 60 63 66 66 67 64 68 66 65 67 65 66 67 68 67 66 66 64 65 65 66 66 65 66 66 63 62
15 16 17 19 16 17 19 19 18 18 19 20 21 23 23 22 23 26 31 41 51 53 59 62 64 65 65 68 68 67 64 64 67 66 67 67 65 65 63 62 64 63 65 65 65 65 65 62 60
16 16 17 17 15 17 17 17 18 18 18 19 20 22 23 23 23 24 30 33 45 52 58 62 65 65 66 66 66 66 67 66 66 66 66 66 66 64 64 62 63 65 65 64 63 64 64 62 59
22 19 17 16 17 17 19 18 19 21 21 21 21 23 24 25 23 23 29 33 37 46 55 62 66 66 65 65 65 65 66 67 66 66 67 65 65 65 64 64 64 64 64 63 63 63 64 59 57
17 18 14 14 16 19 22 19 18 19 19 21 23 25 25 25 22 20 28 31 35 45 56 61 63 65 64 64 64 64 65 66 66 66 67 65 64 65 64 63 63 64 63 63 63 62 62 59 55
17 12 12 12 16 19 20 21 20 22 23 21 22 24 25 25 21 21 27 30 37 48 57 61 64 64 64 64 64 63 64 65 66 66 65 65 64 64 64 63 63 63 63 62 62 62 61 57 56
8 10 13 13 15 21 22 19 19 21 22 25 25 25 25 24 21 21 27 34 42 50 57 62 63 64 64 63 62 62 63 63 64 63 64 64 65 64 64 63 62 62 62 61 62 61 60 56 55
16 14 12 13 13 15 16 15 15 16 17 21 25 26 27 27 25 24 30 36 46 53 58 61 62 63 62 61 61 61 61 61 62 63 63 63 64 64 64 62 61 61 61 61 61 60 58 58 56
16 16 15 15 16 22 22 21 20 20 18 19 20 25 27 28 26 25 28 38 50 54 58 61 61 62 61 59 59 59 61 61 61 62 63 62 62 63 62 62 61 61 60 59 59 60 58 56 56
17 17 17 18 21 21 21 19 20 21 24 23 22 21 23 28 28 25 26 37 51 53 58 59 61 61 61 60 59 60 61 61 60 61 62 61 62 62 63 62 61 60 59 58 58 59 57 55 57
18 19 22 24 22 16 19 16 18 17 18 21 23 25 25 28 28 26 25 35 49 53 58 59 60 60 60 60 59 59 59 57 59 59 61 61 61 62 62 61 60 60 59 58 59 60 59 57 54
22 24 27 25 21 19 17 16 15 18 19 21 24 24 25 28 29 27 26 28 45 53 57 59 60 59 59 59 59 57 56 57 58 58 60 61 61 61 61 61 60 59 59 59 59 59 59 57 56
24 26 26 23 19 18 19 16 13 17 25 27 28 29 27 28 29 28 26 27 41 51 58 59 59 58 59 59 58 58 57 57 57 58 59 60 60 59 59 60 60 60 59 59 59 59 59 58 57
26 25 15 10 18 19 18 19 18 22 32 33 34 34 39 39 39 35 31 31 39 51 57 59 58 57 59 59 58 57 57 59 58 58 59 59 58 58 58 58 58 59 60 60 59 59 59 59 57
22 23 17 13 14 20 25 19 25 33 34 35 37 40 42 45 48 43 36 37 44 51 57 58 57 57 58 58 58 57 57 57 57 58 57 59 59 59 59 58 58 58 58 59 59 59 58 59 59
24 23 22 22 22 19 16 16 28 35 35 36 39 41 43 45 48 48 40 46 48 54 59 59 57 57 57 57 57 56 57 57 57 58 59 60 60 60 60 59 57 57 57 57 58 58 58 59 59
26 30 29 28 22 17 15 17 35 36 37 39 41 41 43 44 45 50 45 48 50 57 57 58 57 57 57 57 56 57 57 57 58 59 58 57 58 58 59 59 59 57 56 56 56 56 56 55 56
27 28 30 31 29 23 22 32 39 37 38 38 38 40 41 41 42 46 50 52 55 56 56 58 57 57 57 57 56 56 57 57 58 58 57 57 58 58 58 59 59 58 57 56 55 55 54 54 54
21 26 28 29 23 28 29 31 39 39 38 38 38 38 38 39 40 41 45 48 54 55 56 56 56 55 56 56 56 57 56 56 57 56 56 57 57 57 58 58 57 58 58 57 57 56 55 53 53

GFSSGP_sfc_dewp_084.txt.gz
Dewpoint
55 48 42 35 20 18 13 9 9 7 4 10 15 21 19 17 32 37 57 60 66 66 69 70 72 73 73 73 73 73 73 73 73 73 73 74 74 74 73 73 73 73 73 73 72 72 71 71 72
42 40 36 26 17 13 10 10 8 6 7 21 23 22 21 21 26 47 54 59 61 63 67 69 71 72 73 73 73 73 73 73 73 73 73 73 74 73 73 73 73 73 73 72 71 71 71 72 71
44 35 28 23 17 14 13 12 13 6 15 16 16 14 23 26 26 44 58 61 60 63 64 69 71 71 72 72 72 73 73 73 73 73 73 73 73 73 73 72 72 72 73 72 71 71 72 71 70
34 36 28 20 15 14 12 14 13 9 11 17 15 13 26 37 43 48 57 58 59 62 64 69 70 71 72 72 72 73 73 73 72 73 73 73 73 72 72 71 71 72 72 71 71 71 71 70 69
28 30 24 19 16 15 14 13 12 10 10 16 17 16 21 32 39 53 58 57 62 66 70 69 69 71 72 72 72 72 72 72 72 72 73 73 72 71 71 71 71 72 71 71 71 71 70 69 69
31 28 21 17 16 15 15 13 10 8 9 13 17 17 20 28 39 50 58 62 67 68 71 70 70 70 71 71 71 71 71 72 72 72 72 72 72 70 69 69 69 69 69 69 69 69 69 69 69
32 27 22 20 18 16 15 16 11 9 10 9 14 22 25 24 47 52 58 64 68 70 71 71 69 69 70 69 70 70 70 70 71 71 70 71 69 68 69 68 68 68 68 68 68 69 69 69 68
34 29 23 21 18 17 17 14 11 11 11 18 12 15 16 38 49 59 61 60 64 70 71 71 70 70 69 70 69 69 70 69 70 70 69 68 68 68 68 68 66 67 67 67 68 68 68 67 66
32 28 24 22 20 19 19 15 15 14 12 12 12 16 25 41 42 56 58 59 63 67 69 71 71 70 70 70 69 69 70 69 69 69 68 67 68 68 68 67 67 67 66 66 67 67 66 65 65
25 28 25 24 22 19 17 16 17 16 16 15 15 21 26 35 40 45 55 57 61 65 67 69 70 71 70 66 69 69 69 68 68 68 68 68 68 67 67 66 66 66 66 66 67 66 65 64 64
19 22 24 22 20 18 17 17 18 18 18 20 22 24 26 31 38 46 45 52 58 62 65 69 69 70 70 68 70 69 68 68 68 68 68 68 68 66 64 63 64 65 66 66 66 65 65 65 64
18 18 18 17 19 19 17 19 18 20 22 20 20 22 24 24 36 41 42 46 54 58 62 68 68 68 69 68 68 68 68 68 67 68 67 68 67 64 64 63 64 65 65 66 65 65 65 64 64
14 14 15 18 17 18 18 17 16 18 19 19 19 21 23 25 25 30 30 35 45 54 60 64 68 68 68 68 68 68 68 67 67 68 67 67 67 65 65 64 64 64 65 65 65 64 64 64 63
15 14 13 12 14 14 14 14 13 15 15 16 17 19 21 25 26 25 27 30 42 49 58 64 66 67 67 67 68 68 68 68 68 68 66 66 66 65 64 64 64 64 64 65 64 64 64 63 62
21 19 19 18 17 15 16 14 14 17 17 18 19 21 20 23 24 25 27 30 38 47 54 64 66 67 66 66 67 67 67 67 66 66 66 66 66 65 63 63 63 63 64 64 63 63 63 63 63
19 17 13 13 11 11 12 15 14 16 18 19 21 22 23 24 25 27 30 28 31 43 51 63 65 66 66 66 66 65 65 67 66 66 66 66 64 65 64 63 63 64 64 63 62 62 62 62 61
18 15 14 12 12 12 13 17 18 19 20 21 23 22 23 26 26 28 30 26 28 37 52 63 65 65 66 66 65 64 64 66 66 66 66 65 64 64 64 63 64 63 63 62 62 62 62 61 60
14 13 13 11 10 14 13 15 19 20 18 21 22 24 26 26 27 29 30 26 27 35 56 64 64 65 65 65 64 63 64 65 65 65 64 64 64 64 64 63 63 63 62 62 62 61 62 60 58
17 17 15 14 12 12 14 13 14 15 15 17 17 20 26 28 29 28 31 29 38 51 58 64 64 64 64 63 61 62 61 62 63 63 63 64 64 64 64 63 62 62 61 61 61 61 60 60 57
15 14 13 13 14 16 15 14 19 22 23 21 17 19 23 29 29 31 33 38 49 55 58 63 63 63 63 62 61 60 60 62 61 62 62 63 64 64 63 63 62 61 61 61 60 60 59 59 58
17 15 14 14 14 17 21 17 17 19 19 22 22 22 21 24 29 31 32 37 51 56 59 62 62 63 62 61 61 60 61 61 59 61 62 62 63 62 63 63 61 61 61 60 60 60 59 57 58
18 16 16 19 19 19 20 17 17 14 17 21 24 26 26 23 23 30 32 33 51 54 60 61 62 61 62 61 59 59 58 58 58 59 62 62 62 62 62 62 61 61 60 60 60 60 59 58 55
15 19 21 22 24 24 21 15 14 14 15 17 23 27 29 28 28 31 32 32 50 54 60 61 62 61 61 60 60 59 58 58 59 60 60 60 61 62 62 61 61 60 60 59 59 60 59 59 56
23 23 21 23 23 22 21 14 13 16 27 31 31 34 39 33 30 30 33 33 45 53 59 61 61 60 60 60 60 60 58 57 58 59 59 60 60 59 60 61 60 60 60 59 59 60 59 59 58
24 24 17 15 14 17 28 29 20 32 34 32 33 40 43 46 48 49 44 30 35 53 59 60 60 59 60 60 60 59 59 58 58 58 59 59 59 58 59 59 59 59 59 59 58 59 59 59 58
21 23 21 12 17 17 22 30 29 33 39 42 41 42 43 44 46 48 49 51 42 54 59 59 59 58 59 60 59 59 59 58 58 59 59 59 59 58 59 59 59 59 59 59 59 58 59 59 58
21 20 21 22 21 19 18 26 39 41 37 39 40 41 42 43 44 46 48 51 46 54 59 59 58 57 59 59 59 59 58 58 59 59 59 60 59 59 58 58 58 58 58 59 59 58 58 58 58
22 24 28 32 21 16 13 21 35 37 38 38 38 39 41 42 41 43 45 49 56 57 59 60 58 57 59 59 59 57 58 58 59 59 60 60 60 59 59 58 57 57 57 57 58 58 58 58 58
22 25 26 28 27 23 25 32 38 38 39 37 37 38 39 39 39 40 42 45 50 57 59 58 58 58 58 59 58 58 57 58 59 59 59 58 59 59 59 59 57 56 56 57 57 56 56 56 55
22 21 26 28 23 27 28 28 40 38 38 38 37 38 38 37 37 38 39 41 45 48 53 57 57 58 58 58 57 58 58 58 58 58 58 59 58 59 58 59 58 57 56 56 56 55 55 55 54

GFSSGP_sfc_dewp_087.txt.gz
Dewpoint
56 54 48 40 27 21 16 15 16 13 11 18 23 23 21 21 39 43 62 67 68 69 70 71 72 73 73 73 73 73 73 73 74 74 74 74 73 74 73 73 73 74 74 73 72 72 72 72 72
48 44 41 34 20 15 15 17 15 14 14 26 25 21 21 27 45 56 60 66 67 69 70 71 71 72 73 73 73 73 73 73 74 74 74 74 73 73 73 73 73 73 74 73 72 71 71 71 71
45 41 33 27 21 16 14 15 15 15 15 21 21 20 27 31 49 55 59 64 66 67 69 70 71 71 72 72 73 73 73 73 73 73 74 74 73 73 73 72 73 73 73 73 71 71 72 71 70
37 37 32 24 20 18 16 15 15 14 16 19 17 21 30 44 48 57 61 63 64 64 68 70 70 71 72 72 72 73 72 72 72 73 73 73 73 73 72 72 72 73 73 72 72 72 71 70 69
29 30 27 23 21 21 19 18 16 15 14 18 17 22 26 44 56 57 58 61 65 67 68 69 69 70 71 72 72 72 72 72 72 72 72 73 72 72 72 71 71 72 72 71 71 72 70 70 69
25 30 25 23 23 21 20 18 16 16 15 12 17 18 21 34 53 56 59 64 68 68 68 68 70 70 71 71 71 71 71 71 71 72 72 72 72 71 70 70 69 69 69 69 69 70 70 69 69
32 29 26 24 21 21 21 21 18 17 15 10 17 23 23 47 53 57 61 65 69 70 68 68 69 70 70 69 69 70 70 71 71 71 71 71 70 69 69 69 68 68 68 68 68 69 69 69 68
34 33 31 28 23 22 22 21 20 16 11 25 19 19 16 48 52 58 62 64 68 70 68 68 67 68 68 68 69 69 69 69 69 70 69 69 69 69 69 68 68 68 67 66 68 68 68 68 67
34 32 30 30 27 25 24 22 21 19 13 17 19 15 41 48 50 52 55 61 66 68 69 68 68 68 68 67 68 69 70 69 69 69 68 67 67 67 68 65 66 66 65 66 67 67 67 66 66
23 28 29 29 28 26 25 21 19 18 21 21 20 25 39 42 47 51 52 54 64 65 69 68 68 68 68 69 67 67 68 68 67 67 66 67 66 66 66 65 66 66 66 66 66 67 66 65 64
21 19 21 27 28 26 23 19 19 18 20 26 26 24 26 37 38 41 50 53 62 64 68 68 67 69 68 67 67 68 67 67 67 66 66 67 66 65 65 65 65 65 66 65 66 66 65 65 64
21 21 19 19 20 21 17 20 20 18 21 23 22 23 23 25 37 40 41 43 49 64 66 67 67 68 68 67 68 68 67 67 66 66 66 66 65 64 63 62 63 64 65 65 64 65 65 64 63
15 15 16 17 17 17 19 16 16 17 17 17 16 17 20 25 27 37 40 41 42 59 65 67 67 68 67 66 66 66 67 67 66 66 66 66 65 64 63 62 63 64 64 65 64 64 65 64 63
14 17 17 19 19 19 17 17 16 17 15 14 14 15 17 20 25 23 31 33 35 41 63 68 66 67 67 66 65 65 66 66 66 66 66 66 65 64 63 63 62 63 64 65 64 64 64 64 64
24 20 19 18 17 17 17 16 15 16 16 16 16 17 18 18 18 24 23 25 27 38 53 67 66 67 66 66 65 65 65 65 65 65 65 65 65 64 64 64 63 63 64 64 63 62 62 63 63
23 22 17 17 15 14 13 12 14 14 14 14 14 15 17 19 22 19 25 24 24 30 53 66 66 66 65 66 65 64 64 64 64 64 65 65 65 65 63 63 63 63 63 63 62 62 61 62 62
23 19 17 17 18 15 13 13 16 15 19 19 20 21 22 20 21 23 24 27 25 29 53 64 65 65 64 65 64 63 64 64 63 64 64 64 64 64 63 62 62 63 63 62 61 61 61 61 61
19 16 15 15 16 16 13 13 15 15 14 15 14 14 16 20 25 23 26 29 27 25 56 64 64 64 64 64 63 62 62 64 62 62 63 65 64 63 62 61 62 62 62 61 60 61 61 61 61
17 15 15 16 17 15 13 13 14 14 14 14 15 16 16 16 22 29 30 28 27 26 61 63 63 64 63 62 61 61 60 63 61 61 62 62 62 63 61 62 62 62 61 61 61 61 60 60 61
18 16 15 14 15 15 14 13 16 20 19 19 19 19 18 17 18 28 30 30 29 45 63 63 63 64 62 62 61 60 60 61 60 60 61 63 62 62 62 62 62 61 61 61 61 60 60 60 60
19 18 17 15 16 16 16 15 20 21 21 20 17 20 22 17 21 22 29 32 36 56 62 62 63 63 62 61 61 60 60 59 59 60 60 62 63 62 62 62 62 61 61 61 61 60 59 58 59
18 20 19 16 17 20 24 21 22 22 20 17 30 25 20 21 19 26 29 31 49 61 62 62 62 62 61 61 59 59 59 58 58 59 61 61 61 62 62 62 62 61 61 61 60 60 59 59 57
19 21 20 21 20 22 21 21 21 22 19 16 42 42 30 26 30 27 27 29 48 58 62 62 62 62 60 60 59 58 57 57 57 58 59 60 61 61 61 61 61 61 61 61 61 60 59 59 58
23 25 26 25 22 19 20 24 25 24 23 38 44 44 44 44 46 47 48 50 48 57 61 61 61 61 60 59 59 58 57 57 57 57 58 58 60 60 61 61 61 61 61 60 60 60 59 59 58
23 24 22 17 18 17 23 23 30 40 43 41 42 43 44 44 44 45 46 48 50 52 59 60 60 60 59 59 58 58 58 56 57 58 58 59 58 57 58 60 60 60 60 60 60 60 59 59 58
23 24 23 18 18 19 21 21 32 40 41 40 41 42 43 42 42 43 44 45 48 52 59 60 60 59 59 59 58 59 58 57 58 59 59 58 58 57 58 58 60 59 60 59 59 60 59 59 58
25 22 24 23 23 21 19 19 38 40 41 41 39 39 39 39 40 41 43 44 48 55 58 60 59 59 59 59 59 59 57 57 58 58 58 58 58 58 58 58 59 59 59 59 59 59 58 58 58
23 26 24 30 24 21 19 30 34 36 36 39 39 38 38 38 38 39 40 43 46 50 57 59 59 59 59 60 59 58 57 58 59 60 59 58 58 58 58 58 58 58 58 59 58 57 58 58 58
24 25 27 29 29 24 23 29 38 38 39 39 39 37 37 36 37 37 38 40 43 46 49 51 58 59 59 59 58 58 57 58 59 59 59 59 59 58 58 58 57 57 57 57 58 58 57 57 57
26 28 28 25 24 28 29 31 40 40 41 38 37 36 36 35 36 36 36 37 39 42 44 46 51 58 58 58 58 58 58 59 59 59 58 59 59 59 58 58 57 56 57 57 56 57 57 56 56

GFSSGP_sfc_dewp_090.txt.gz
Dewpoint
55 52 46 39 26 20 16 18 17 14 16 14 22 23 20 21 36 33 64 67 68 69 71 72 72 72 72 73 73 73 73 73 73 73 73 73 73 73 73 73 74 74 74 73 72 72 72 72 72
47 45 40 33 22 16 15 18 15 16 17 18 18 21 20 24 52 62 63 67 67 69 70 71 72 72 72 72 72 73 73 73 73 73 73 73 73 73 73 73 73 73 74 73 72 72 72 72 71
43 41 33 30 22 16 13 16 17 17 17 16 18 18 26 36 57 61 64 67 68 69 70 70 71 72 72 72 72 72 73 73 73 73 73 73 73 73 73 72 72 73 73 73 72 72 72 71 70
37 37 34 26 22 21 17 16 18 17 17 16 16 15 29 45 55 61 66 67 67 68 69 70 70 71 72 72 72 72 72 72 72 73 73 73 73 73 73 72 72 73 73 73 72 72 70 70 69
29 32 28 26 24 23 23 22 22 20 19 17 17 18 24 50 58 64 64 64 65 67 69 70 69 70 71 72 72 72 72 72 72 72 72 73 73 73 72 71 72 72 71 70 70 70 69 70 69
24 28 26 24 22 24 24 23 21 21 20 18 17 19 20 53 59 62 63 63 65 67 68 69 70 70 71 71 71 71 71 71 71 72 72 72 72 72 71 71 70 70 69 69 69 69 69 68 69
24 28 27 25 24 24 24 25 22 21 22 17 19 20 28 48 56 59 64 66 67 67 68 68 69 70 70 69 69 69 70 71 71 71 71 71 71 70 70 70 70 69 69 68 68 68 68 67 68
34 33 31 28 26 26 26 25 24 23 18 24 18 16 18 49 57 63 66 67 67 66 67 67 67 68 68 69 68 69 70 70 70 70 70 69 70 70 69 69 69 68 68 68 68 67 68 66 66
33 31 30 31 31 30 31 28 28 21 20 23 23 18 37 52 58 61 65 67 67 67 66 67 67 67 67 67 68 69 69 69 69 69 68 67 68 68 68 67 68 67 66 67 67 66 66 66 66
25 27 30 32 32 29 29 29 27 21 21 24 23 28 41 49 55 57 61 64 66 66 66 66 66 66 66 68 67 67 68 68 68 68 67 67 66 66 66 65 66 65 65 66 67 66 66 66 66
23 23 25 23 23 25 27 28 28 22 20 23 25 26 29 38 45 52 56 62 64 67 67 67 66 67 67 67 66 66 68 67 66 66 65 65 66 66 65 64 65 64 65 65 66 66 65 65 64
21 22 21 20 21 20 19 20 20 19 22 23 23 22 23 25 38 42 51 54 63 66 67 68 67 67 67 68 66 66 66 66 66 65 65 66 65 64 65 64 63 64 64 64 64 64 65 65 64
21 23 23 22 21 20 19 18 19 18 18 19 17 17 18 21 27 34 38 44 58 64 67 67 68 68 68 67 67 66 66 66 66 65 66 66 64 63 63 62 63 63 64 64 63 63 64 64 64
16 14 16 18 18 20 19 19 18 19 19 17 17 17 18 19 20 25 31 37 41 63 66 67 66 68 67 67 66 66 67 66 65 65 66 65 64 63 62 61 63 63 63 63 63 62 63 64 64
26 23 23 21 18 17 17 13 13 16 17 16 16 16 16 17 20 20 22 30 36 42 64 66 66 67 67 66 66 66 65 66 66 65 65 65 64 63 62 61 62 63 63 63 64 63 62 62 63
22 24 20 21 19 18 15 15 15 14 14 14 14 14 15 16 17 17 21 24 30 33 60 66 66 66 66 66 66 65 65 65 65 65 65 65 64 64 63 62 61 63 64 63 63 62 61 61 61
22 20 20 19 19 18 17 17 16 18 17 16 18 18 20 21 22 20 20 22 24 26 49 65 66 66 66 65 65 65 64 64 63 64 64 64 64 64 63 63 63 63 63 63 62 62 61 60 60
19 20 18 16 16 17 16 15 16 15 15 16 15 15 15 16 18 21 24 24 24 24 51 65 65 66 65 65 64 64 64 63 64 63 64 63 64 63 63 62 62 63 63 62 62 61 60 60 60
19 18 17 17 16 17 14 14 14 16 16 16 19 19 18 16 18 19 26 28 27 27 57 63 65 65 65 64 63 62 62 62 62 62 62 63 63 63 62 61 62 63 62 61 60 60 59 60 61
18 17 16 17 16 15 14 13 15 16 16 18 19 21 21 20 20 20 20 29 30 32 55 63 64 64 64 64 62 61 61 61 63 61 61 61 61 61 61 61 62 62 61 61 60 59 59 59 61
19 18 18 18 19 18 16 17 19 21 23 24 24 28 42 42 29 22 20 25 30 38 60 63 63 63 63 63 61 60 59 59 60 61 59 60 61 61 61 62 62 61 61 60 61 60 59 58 59
17 22 21 20 19 15 23 18 19 22 22 23 24 44 43 43 45 36 38 41 41 42 59 62 63 63 62 61 60 59 58 57 59 60 58 59 60 60 61 62 61 61 61 60 60 60 59 59 57
19 23 23 21 21 21 19 20 18 28 39 41 43 44 44 43 43 45 47 48 50 57 60 62 63 62 61 61 60 59 58 57 58 58 58 58 59 60 61 61 61 61 61 61 60 60 59 59 57
24 25 25 25 24 20 19 19 22 36 38 37 42 43 44 43 42 44 46 47 47 51 61 62 62 61 61 60 60 59 58 57 57 58 58 59 59 60 61 61 61 61 61 60 60 60 59 59 58
20 23 21 19 18 18 20 21 25 37 39 39 41 43 43 42 41 42 43 45 47 50 53 62 62 60 61 59 59 58 58 57 57 57 58 59 59 59 60 61 61 61 61 61 61 60 60 59 58
21 23 22 18 17 14 21 20 32 39 39 39 44 42 41 41 40 41 42 43 46 49 54 62 61 60 59 59 58 58 58 57 57 58 59 58 58 58 59 60 60 60 60 60 60 60 60 59 59
24 23 23 23 22 22 21 31 37 38 38 41 44 41 38 37 38 39 40 41 43 46 52 59 61 60 59 59 58 58 58 57 57 58 58 58 58 57 57 58 58 59 59 59 59 60 59 59 59
26 29 21 25 19 19 20 23 31 35 37 39 40 39 36 36 36 37 38 39 43 45 48 54 59 59 59 59 59 58 57 57 58 58 57 58 58 58 57 57 58 58 59 59 59 59 59 58 58
20 23 29 28 27 21 20 23 38 37 38 40 37 37 35 34 35 35 36 38 41 43 45 49 52 59 59 59 59 57 57 58 59 58 58 58 58 58 57 57 58 57 58 58 57 57 58 58 57
21 29 34 29 26 27 25 24 39 39 39 37 35 34 34 34 34 34 34 35 38 38 42 44 47 50 58 59 58 58 59 59 59 59 59 59 58 58 58 57 57 57 57 57 57 57 57 57 56

GFSSGP_sfc_dewp_093.txt.gz
Dewpoint
54 49 45 37 25 20 14 15 18 14 13 15 22 23 20 20 31 22 63 66 68 69 71 71 72 72 73 73 72 72 73 73 73 73 73 73 73 73 73 73 73 74 74 73 72 71 71 71 72
45 45 38 30 18 16 11 18 16 13 17 19 18 18 20 22 54 61 63 67 68 69 71 71 72 72 72 72 72 72 73 73 73 73 73 73 73 73 73 73 73 73 74 72 72 72 72 72 71
42 39 33 30 22 15 9 14 16 17 18 18 16 19 23 25 57 61 64 67 68 69 70 71 71 71 72 72 72 72 73 72 72 73 73 73 73 73 73 73 73 74 73 73 71 71 71 71 70
38 37 33 26 21 21 16 16 18 21 21 19 17 17 21 46 60 61 67 68 68 69 70 70 70 71 72 72 72 72 72 72 72 72 73 73 73 73 73 72 72 73 73 72 72 72 70 70 69
29 33 28 26 26 25 22 23 24 23 23 21 21 20 21 41 59 65 66 67 67 68 69 70 70 71 71 72 72 72 71 71 71 72 72 73 73 73 72 71 72 72 72 71 70 70 70 69 69
25 29 26 23 21 23 24 25 24 25 24 22 18 19 20 52 63 64 65 65 67 68 69 69 70 71 71 71 71 71 71 71 71 71 72 72 72 72 71 71 71 70 70 69 69 69 69 69 69
20 27 24 26 25 25 25 26 24 24 25 19 23 21 24 53 61 64 63 63 66 67 68 69 70 70 70 69 69 69 70 70 70 71 71 71 71 70 71 71 70 70 69 69 69 68 68 68 68
35 30 29 27 25 25 28 29 27 27 20 26 25 20 25 40 59 66 66 66 65 66 66 67 69 69 69 69 68 69 69 70 70 70 70 70 70 70 70 70 70 69 68 68 68 68 67 67 66
34 32 30 28 28 29 32 31 31 29 23 23 24 24 34 55 63 65 65 65 64 65 65 67 67 68 68 68 69 69 70 70 69 70 69 68 68 68 68 68 68 68 67 67 68 67 67 66 66
26 29 28 32 31 31 32 31 30 27 28 27 24 27 25 45 52 62 64 64 64 64 65 66 66 66 66 68 67 67 69 69 68 68 67 67 66 66 66 66 67 67 66 67 66 66 64 65 65
23 27 27 27 28 26 24 24 25 24 23 26 24 26 26 21 43 53 57 64 64 65 65 65 65 66 66 67 67 68 68 66 66 66 66 65 66 67 64 65 64 63 65 64 65 64 64 64 65
23 23 22 22 22 21 21 22 20 20 21 24 23 25 22 22 25 32 49 53 63 65 65 65 65 65 66 66 66 66 66 67 65 65 64 66 66 65 64 64 64 62 64 63 64 64 64 64 64
21 21 23 25 25 24 23 20 19 19 20 20 20 19 19 23 23 23 30 43 55 62 66 66 65 65 66 65 66 66 66 66 65 64 66 66 65 64 64 64 63 63 63 63 62 63 64 63 64
17 16 17 18 18 17 19 19 19 19 18 18 18 19 19 21 22 22 23 26 41 53 64 66 66 66 66 66 65 65 65 65 65 64 66 65 64 63 63 62 62 61 62 63 61 62 62 63 63
26 23 24 23 21 18 18 16 15 16 16 15 15 15 16 18 20 21 22 23 26 43 61 66 67 67 67 66 66 65 65 65 65 64 66 64 64 62 62 61 62 61 62 63 61 61 61 63 63
21 23 21 22 21 20 17 15 17 19 16 16 17 16 16 17 17 17 20 22 23 33 57 66 66 67 67 66 66 66 66 65 65 64 65 65 64 62 62 61 62 62 62 63 62 61 62 62 62
20 19 20 20 21 19 17 17 18 18 17 16 16 16 17 17 18 19 21 20 22 25 43 63 66 66 67 66 66 65 65 65 65 65 65 65 64 63 62 61 61 62 62 62 62 62 61 60 61
17 17 21 19 18 18 16 16 18 16 16 17 16 16 17 17 17 18 19 21 23 23 29 57 65 66 66 65 64 64 63 63 65 64 64 65 64 64 63 62 61 62 61 62 62 61 61 60 60
19 19 17 17 18 17 17 16 16 16 16 16 17 18 19 22 33 38 25 21 24 26 28 51 64 65 66 65 64 64 63 63 63 64 64 64 64 64 63 62 62 61 61 61 61 61 60 59 61
17 16 16 17 18 18 16 16 18 17 17 17 19 27 42 43 43 45 46 39 24 26 36 49 62 65 65 65 64 63 64 64 63 63 63 64 63 62 63 62 61 62 62 61 61 60 59 59 60
19 17 17 18 19 20 17 16 17 20 26 41 43 44 44 43 42 43 45 47 48 42 41 56 61 64 64 64 62 60 61 61 61 62 62 62 62 61 62 61 62 62 61 61 60 60 59 58 60
19 21 21 21 19 17 18 16 18 20 39 41 41 42 43 43 43 43 44 46 47 47 50 56 61 63 64 64 61 60 60 60 61 62 62 61 60 61 61 61 62 62 61 60 60 60 59 58 58
21 24 22 23 20 22 20 18 16 33 36 38 37 40 42 43 42 42 43 44 46 48 50 57 62 63 64 62 61 60 59 59 59 59 60 59 60 61 61 62 62 61 61 60 60 60 60 59 58
22 24 24 24 23 19 16 19 18 34 37 38 39 43 43 42 41 41 42 43 43 47 51 59 62 62 62 62 61 60 58 57 58 58 58 58 59 60 61 61 61 61 60 61 60 60 60 59 59
19 19 17 16 18 17 20 20 21 37 38 39 40 43 41 41 40 39 39 41 42 44 48 56 62 62 61 61 60 59 58 58 57 58 58 57 58 58 59 61 61 61 61 60 60 60 59 59 59
20 20 19 15 18 13 20 19 23 39 40 42 44 41 40 39 38 38 38 39 41 43 46 52 62 61 61 61 60 59 58 58 58 58 58 58 57 58 59 59 60 61 61 60 60 60 60 60 59
23 21 22 21 21 20 20 24 36 39 38 41 41 39 37 37 37 36 37 38 40 42 44 48 60 60 61 60 59 59 58 58 57 57 58 58 58 58 58 60 60 60 60 60 60 60 60 60 59
20 26 22 26 22 18 19 21 24 33 35 39 38 36 35 35 34 34 35 37 40 41 43 46 52 60 59 59 59 59 58 58 57 57 57 57 56 57 58 57 58 58 58 59 59 59 59 59 59
16 20 27 30 27 22 19 20 34 34 37 37 35 35 34 33 33 33 34 35 38 40 41 44 47 58 59 59 59 58 57 57 57 57 56 56 57 57 57 57 57 56 57 57 58 58 58 58 58
20 30 30 26 24 25 27 24 37 37 36 35 34 33 33 32 32 32 33 34 35 38 40 41 43 48 55 59 59 58 58 58 58 57 57 57 56 56 56 57 57 57 57 57 57 57 57 57 57

GFSSGP_sfc_dewp_096.txt.gz
Dewpoint
53 47 43 33 17 19 14 7 19 14 10 17 19 19 17 18 22 26 59 66 67 68 70 71 71 72 73 73 72 72 73 73 73 74 74 74 74 73 73 73 73 74 74 73 72 72 72 72 71
44 43 37 30 10 9 4 17 15 14 14 19 21 19 20 21 35 56 62 66 68 69 70 70 71 71 73 72 72 72 73 73 73 73 74 74 74 73 73 73 73 74 74 73 72 71 72 72 71
41 38 29 28 18 8 6 12 16 17 21 21 18 19 22 23 46 59 64 67 69 69 70 71 71 72 72 72 72 72 72 72 72 73 73 73 73 73 73 73 73 74 73 73 72 72 72 71 70
38 37 32 23 20 22 14 16 21 23 23 21 19 21 23 25 52 61 67 68 68 69 70 70 71 71 72 72 72 72 72 71 72 72 73 73 73 73 73 72 73 74 73 73 72 70 71 70 70
31 33 24 25 25 24 23 22 26 24 24 24 24 21 23 24 59 66 67 67 68 69 70 70 70 71 71 72 72 72 71 71 71 72 72 73 73 73 72 72 72 73 73 72 72 71 70 69 70
27 30 23 18 20 23 23 24 24 26 26 24 20 22 21 38 60 64 66 66 67 68 69 70 71 71 71 71 71 71 71 71 71 71 72 73 72 72 72 72 71 72 71 71 70 70 69 69 69
20 24 21 23 24 25 24 24 24 25 28 22 25 23 23 29 53 64 63 65 66 67 68 69 70 70 70 69 69 69 70 70 70 71 71 71 71 71 71 71 71 71 70 69 69 69 69 69 69
26 23 25 25 24 23 26 28 28 31 26 27 26 23 23 32 62 66 65 65 65 67 68 68 69 70 69 69 68 69 69 69 69 70 70 70 70 70 70 70 70 70 69 69 69 68 68 68 68
36 30 27 25 26 25 31 31 32 31 27 28 26 25 27 50 64 64 63 63 63 65 65 67 67 67 68 69 69 69 70 69 69 69 69 68 68 68 69 69 69 69 67 68 68 68 67 67 67
32 31 26 30 28 28 32 33 31 29 29 29 28 29 29 38 57 61 62 61 61 62 64 66 66 66 66 67 68 68 69 69 69 69 68 68 67 67 67 67 68 68 67 67 67 67 66 65 65
23 25 28 29 31 30 26 25 26 26 25 26 25 25 27 25 29 57 59 62 63 64 64 65 64 65 65 65 67 68 67 68 68 68 67 66 66 66 65 66 65 65 66 66 65 64 63 63 64
21 23 24 26 28 24 22 23 21 22 23 23 24 24 24 22 24 31 52 57 60 64 65 64 65 65 65 66 66 66 66 66 67 66 65 67 67 66 64 65 63 63 63 64 64 64 63 63 64
24 25 25 24 24 24 25 24 23 20 20 21 21 21 21 22 23 24 25 35 50 61 65 65 65 65 65 65 65 65 65 66 66 66 66 67 67 66 65 64 64 62 62 63 63 62 63 63 64
19 18 17 19 18 19 17 19 18 19 19 18 18 19 19 21 22 21 21 21 28 49 60 66 65 65 64 65 65 64 65 65 65 66 66 67 66 65 64 64 64 63 63 62 62 62 63 63 63
24 24 23 23 23 22 19 17 16 18 18 16 16 17 17 18 19 19 21 21 22 32 46 62 66 65 64 65 64 64 65 64 64 64 65 65 65 64 63 63 62 62 62 62 60 62 62 62 63
20 23 20 22 22 21 18 16 16 18 18 18 17 16 17 18 19 19 19 21 21 24 36 48 65 66 65 65 65 64 64 64 64 64 65 65 64 63 63 62 62 62 62 62 61 61 61 62 61
20 18 19 19 21 20 17 19 19 19 19 17 17 16 17 18 19 23 28 25 22 21 28 44 62 66 66 65 65 65 64 64 64 64 64 64 63 63 62 62 62 62 62 62 62 61 61 60 61
18 18 20 18 18 18 16 16 19 19 16 17 17 17 18 28 34 44 45 46 47 38 23 31 56 65 66 66 66 66 65 65 65 64 64 64 63 62 62 62 62 62 62 62 62 61 61 61 61
19 18 18 17 18 17 17 17 17 19 17 17 19 32 43 43 44 44 44 46 47 47 39 27 47 63 66 66 64 64 63 64 65 64 64 64 63 63 63 62 61 62 61 61 61 61 60 60 61
16 15 15 17 18 18 17 17 19 19 18 33 41 42 43 43 43 43 43 45 47 47 48 45 37 59 65 64 65 64 64 64 64 64 64 64 64 63 63 62 62 61 61 61 61 61 60 60 61
19 17 17 17 19 20 18 17 17 18 35 42 42 42 43 43 42 42 42 44 45 45 47 48 50 54 64 64 65 61 63 62 61 62 63 63 64 63 63 62 61 61 61 60 61 61 60 59 60
19 21 21 20 20 17 19 15 14 28 35 39 39 38 42 42 42 41 42 42 43 44 46 47 50 53 63 64 64 62 61 60 61 62 62 63 63 63 63 62 61 60 62 61 61 61 60 59 58
21 24 23 22 20 21 20 17 18 32 33 37 37 41 43 41 41 40 40 40 41 43 44 47 50 55 62 64 63 62 61 61 61 61 56 60 62 62 62 62 60 61 61 61 60 60 60 60 58
22 23 24 24 23 17 17 17 16 23 35 36 39 42 42 40 39 39 39 39 40 43 44 45 49 58 63 63 63 61 60 58 60 61 60 61 61 61 62 62 61 61 60 60 60 60 60 59 59
21 18 15 14 17 15 20 19 19 28 37 39 41 42 41 39 37 37 37 37 38 40 42 44 47 54 63 62 62 61 60 58 59 60 60 60 60 60 60 60 60 60 60 60 60 60 60 60 59
22 19 17 13 17 15 19 18 21 36 39 42 42 39 38 37 36 36 36 36 37 39 41 43 46 50 62 62 61 61 58 58 58 59 59 59 60 60 60 60 60 59 59 60 60 60 59 59 59
23 19 24 19 22 19 18 21 27 38 39 41 38 37 36 35 35 34 35 36 36 38 41 42 44 48 60 61 60 59 58 58 58 58 59 59 59 58 58 59 59 60 60 60 60 60 59 59 59
18 25 24 25 20 16 18 21 23 32 35 37 35 35 34 33 33 33 33 35 36 38 39 42 44 47 60 60 60 59 59 58 58 58 58 58 58 58 57 58 59 60 60 60 60 60 60 59 59
12 20 28 28 27 23 19 20 35 35 36 35 34 34 33 32 32 32 32 33 35 37 39 39 43 46 51 59 59 58 58 58 58 58 58 57 57 57 57 57 58 58 58 58 58 58 58 58 59
21 30 28 23 22 24 25 22 36 35 34 34 33 33 32 32 31 31 31 32 33 35 36 37 40 44 47 51 58 57 57 58 57 57 57 56 56 56 56 57 56 56 56 57 57 57 57 57 57

GFSSGP_sfc_dewp_102.txt.gz
Dewpoint
49 37 38 33 20 13 11 7 8 11 12 16 18 19 18 18 18 21 30 64 65 65 70 72 72 72 73 73 73 74 74 74 74 73 73 74 74 73 73 73 74 74 74 74 73 72 72 74 74
34 34 33 25 14 11 10 9 8 8 15 21 21 21 20 22 25 35 43 61 65 64 69 70 72 72 72 72 73 73 74 75 74 74 74 74 74 73 73 73 73 74 75 74 73 72 74 74 73
35 35 25 21 16 12 12 10 11 12 20 19 19 22 24 25 32 39 48 61 65 65 67 68 71 71 72 72 72 73 73 74 74 74 74 74 74 73 73 73 73 74 75 74 73 73 74 72 71
29 27 23 17 17 17 15 14 15 16 17 19 20 20 24 31 37 41 53 65 66 66 66 70 71 71 71 72 72 72 72 72 73 73 74 74 74 73 73 73 74 75 74 74 73 73 72 70 70
29 24 18 19 18 18 19 17 17 15 18 19 21 19 25 28 34 46 55 65 67 67 68 70 70 71 71 72 72 72 71 71 72 73 73 73 74 73 73 72 73 73 74 73 73 73 71 70 70
22 25 18 17 18 18 20 21 20 19 20 20 23 24 26 29 31 46 56 65 69 69 70 71 71 71 71 71 71 71 70 71 71 72 73 73 73 73 72 72 72 73 73 72 72 71 70 70 70
22 22 19 19 18 19 21 24 21 21 23 23 27 27 28 28 32 45 56 65 69 70 71 71 72 71 70 70 70 69 70 70 70 71 71 72 72 71 72 72 72 72 71 71 71 70 70 70 70
21 20 18 18 17 17 19 21 21 23 21 31 28 24 27 32 30 39 53 62 67 70 71 71 71 71 72 72 69 69 69 69 70 70 70 70 70 71 71 71 71 71 71 71 70 69 69 69 69
22 16 15 16 16 18 18 20 23 30 28 26 28 28 30 29 28 31 40 53 65 68 69 70 70 71 71 71 70 70 70 69 69 70 70 69 69 70 71 70 70 71 69 69 69 68 68 68 68
22 17 17 16 17 17 16 22 20 22 20 23 25 26 26 27 28 31 31 38 62 65 67 69 70 70 70 68 70 71 70 69 70 69 70 69 69 69 66 68 69 69 68 68 68 68 67 68 68
20 19 20 20 20 17 17 18 19 19 21 23 24 25 26 26 29 32 30 28 44 60 64 66 69 70 70 69 69 69 70 69 70 70 69 70 68 69 68 68 69 70 68 67 67 67 67 66 66
14 17 16 16 16 21 18 18 17 17 20 20 20 23 24 24 26 27 26 28 29 38 53 64 66 68 70 68 68 68 69 69 69 69 71 70 69 68 68 66 67 68 67 66 66 65 66 66 66
19 13 13 15 15 15 15 16 18 19 21 20 20 23 23 23 23 23 24 26 28 30 35 50 64 67 68 69 67 67 68 68 68 68 69 69 68 68 67 66 66 67 66 67 66 66 66 66 66
15 17 17 21 21 21 21 18 19 20 21 21 21 21 21 22 23 23 25 29 34 35 35 39 50 63 66 67 67 66 66 66 67 67 68 69 68 68 67 67 67 65 66 67 66 67 66 66 66
20 17 17 19 18 17 20 18 18 21 22 21 20 20 20 22 23 25 34 41 43 43 45 48 46 52 63 66 66 66 64 65 64 66 68 68 68 68 68 66 66 67 66 68 68 68 67 66 65
18 20 17 19 19 19 21 18 19 18 19 17 19 21 22 22 27 38 44 44 45 46 49 50 49 50 52 62 63 65 65 65 64 64 67 67 68 67 68 66 66 66 67 66 66 65 65 64 65
19 15 18 17 21 20 21 18 17 18 19 19 20 21 22 26 38 43 44 44 45 46 50 52 53 53 51 53 61 63 66 66 65 64 65 67 68 67 67 66 65 66 66 65 65 64 64 64 64
17 16 16 16 16 19 17 16 16 13 16 22 22 22 27 34 38 43 43 45 46 47 49 50 51 54 55 52 54 61 61 67 66 65 64 66 68 67 67 66 66 66 65 65 65 64 63 63 62
17 16 16 16 17 17 16 11 11 18 21 22 21 27 34 39 41 41 44 45 46 47 47 48 50 52 52 51 47 56 59 64 63 64 65 66 67 67 66 66 65 65 64 64 64 63 62 62 63
19 16 15 15 14 12 14 16 18 19 20 20 22 35 38 39 39 41 43 45 46 46 48 48 48 49 50 51 51 51 57 59 61 63 66 66 66 67 66 65 64 64 64 64 64 63 61 62 63
18 15 14 10 16 20 20 17 17 18 21 30 34 38 40 40 40 41 41 43 45 45 46 46 47 48 50 52 52 51 57 59 62 64 66 66 66 66 66 65 64 64 64 64 64 63 62 60 62
15 14 13 16 19 14 19 8 14 15 24 31 35 38 40 40 40 40 40 41 43 44 44 44 45 46 47 50 51 53 52 56 59 61 64 65 65 65 65 64 63 63 64 64 64 63 63 62 60
16 18 21 20 20 19 17 14 9 15 19 28 35 39 40 40 39 39 39 39 40 42 42 41 43 44 45 47 49 53 53 59 58 60 63 64 64 64 64 64 64 64 64 64 64 64 64 63 61
23 22 22 22 20 17 15 13 8 14 19 27 36 40 40 39 39 38 38 38 39 41 41 40 41 41 43 45 48 52 57 57 58 59 62 63 64 64 64 64 64 64 63 63 63 63 63 63 62
25 21 18 16 16 12 11 11 10 19 28 32 39 39 39 39 38 37 36 37 38 39 40 39 39 40 41 44 47 52 58 57 61 60 62 62 62 63 63 64 61 62 63 63 63 62 64 63 62
23 19 17 12 10 8 17 12 24 37 39 40 39 39 39 37 37 35 35 36 37 38 40 39 38 39 41 44 48 52 59 59 62 62 62 62 62 62 64 62 59 59 61 62 63 63 64 63 64
19 19 18 17 17 15 11 18 35 38 38 38 37 37 37 36 35 35 35 36 37 38 39 38 38 38 40 44 47 52 63 62 63 63 63 62 64 62 61 60 61 61 62 63 62 63 63 62 61
24 23 24 24 15 10 7 11 18 33 33 31 32 35 36 35 34 34 34 35 37 38 39 38 37 38 39 43 46 51 62 62 62 63 63 61 62 61 61 61 62 62 62 62 63 62 61 61 61
16 22 27 26 23 16 12 19 33 32 30 30 31 34 35 35 34 33 33 34 36 37 37 36 36 37 38 41 45 48 61 61 62 62 62 61 62 62 61 61 61 60 61 62 61 60 60 60 60
13 19 19 19 15 21 24 19 33 33 32 31 30 33 34 34 33 32 32 33 34 35 35 34 35 35 37 39 42 46 48 55 60 60 60 61 61 61 61 61 60 60 60 60 61 60 60 60 59

GFSSGP_sfc_dewp_105.txt.gz
Dewpoint
52 39 32 30 22 18 13 10 8 9 11 14 14 14 17 17 16 22 34 54 63 63 70 71 72 73 73 73 74 74 74 73 73 74 74 74 74 74 74 74 74 74 74 74 73 73 73 73 74
39 30 30 27 19 13 11 11 9 9 14 16 17 16 17 19 23 32 39 49 57 63 66 70 72 72 73 73 73 74 74 74 74 74 74 74 74 74 73 74 74 74 74 74 74 73 73 74 73
37 30 27 22 20 15 12 13 12 12 16 15 16 19 23 24 27 35 45 55 59 61 64 69 71 71 72 72 73 74 74 74 73 73 74 74 74 74 74 73 73 74 74 74 73 72 74 73 72
28 27 26 21 19 18 17 17 14 13 15 16 15 17 22 30 34 37 47 55 63 63 64 70 71 71 72 72 72 73 73 73 73 73 74 74 74 74 73 73 73 74 75 74 73 74 73 71 71
30 26 22 20 19 19 19 18 18 17 16 17 17 20 21 28 30 36 46 56 65 66 66 71 70 71 71 72 72 72 72 73 73 73 73 73 73 73 73 73 73 74 74 74 73 72 71 70 70
24 24 21 19 18 18 19 21 21 20 20 19 19 21 23 29 28 34 46 58 67 69 68 71 71 71 71 71 71 71 71 72 72 73 73 73 73 73 72 72 73 73 73 72 72 72 71 70 70
25 23 22 21 20 20 21 21 22 21 21 20 22 25 28 28 33 32 41 55 65 69 70 70 73 71 71 70 70 70 70 71 71 72 72 73 72 72 72 72 72 72 72 71 72 71 70 70 70
22 22 20 20 19 19 20 20 22 21 20 28 27 25 26 30 33 32 34 45 61 68 70 71 71 71 71 71 70 70 70 70 70 71 71 71 71 71 71 71 72 72 71 71 71 70 70 69 69
24 18 19 20 19 19 19 18 21 22 25 25 27 27 29 31 28 29 32 38 56 66 69 72 71 72 71 70 70 70 70 70 70 70 70 69 71 71 71 70 70 71 70 69 69 68 69 68 68
23 22 21 21 20 18 17 18 19 21 22 24 21 26 28 27 27 29 31 32 42 61 66 70 71 71 71 69 71 70 69 68 68 68 69 70 69 69 67 68 69 70 69 69 69 68 68 68 66
24 23 24 22 21 20 19 17 17 16 20 22 23 25 27 26 28 30 29 30 30 46 63 66 69 71 70 70 70 70 68 68 69 70 69 69 68 68 67 66 68 70 69 68 68 68 68 66 65
22 21 18 19 19 18 19 21 19 19 20 20 20 21 21 23 27 28 27 28 30 32 46 62 65 68 71 69 68 68 68 69 67 68 71 69 68 68 67 64 66 69 67 67 67 67 67 66 66
21 20 19 15 15 15 14 14 13 14 16 18 19 21 22 23 24 25 24 25 28 30 34 40 56 64 67 69 67 67 67 67 68 69 70 67 66 67 65 64 63 66 65 67 66 66 66 66 66
19 17 17 18 16 17 15 15 16 18 19 18 18 19 22 22 23 23 25 26 33 37 37 42 43 52 62 66 68 67 67 66 67 66 69 70 69 68 65 64 63 62 65 68 66 65 67 67 67
21 18 19 18 19 20 19 18 19 18 19 19 19 22 21 21 23 24 29 36 38 40 43 48 51 48 52 61 64 66 65 65 63 64 68 69 69 69 68 66 67 64 64 68 68 68 67 66 65
22 23 20 22 21 19 19 20 19 19 19 20 20 20 21 22 23 28 39 39 40 43 47 49 49 53 55 54 57 61 62 65 64 63 65 67 68 69 68 65 66 66 65 67 67 66 67 65 65
27 21 23 22 22 20 19 20 20 20 19 19 19 19 21 22 26 39 40 40 42 43 47 49 51 52 55 56 54 57 64 64 64 64 64 67 67 66 68 66 66 67 65 67 67 66 66 65 64
26 25 23 21 22 20 20 20 20 18 17 19 19 20 21 23 30 39 40 43 44 46 48 48 49 52 54 53 55 53 54 62 63 63 65 67 68 68 68 66 67 67 65 67 66 65 65 64 64
26 25 26 21 20 20 19 17 16 18 16 16 19 22 22 28 36 38 42 44 46 47 47 48 50 51 50 50 50 50 47 55 59 61 64 67 66 69 68 66 67 66 65 66 65 65 64 64 64
26 24 24 25 23 19 18 16 14 14 14 18 20 21 27 34 35 38 40 43 45 46 47 48 48 49 49 49 50 51 52 51 55 60 63 65 66 68 67 66 66 66 65 65 64 64 63 63 64
31 27 23 25 27 20 16 13 15 17 18 19 19 26 34 35 37 38 40 42 44 44 46 46 46 47 49 50 50 50 52 53 55 60 61 63 66 67 67 67 66 66 65 64 64 64 62 61 63
29 29 23 25 21 14 16 14 16 16 17 19 28 34 35 37 38 38 39 40 42 43 45 45 46 46 46 49 49 50 50 50 48 55 58 62 65 65 67 67 65 65 65 64 64 64 63 62 60
30 28 27 26 18 17 17 16 16 14 16 22 30 34 38 39 38 38 39 39 39 42 44 45 45 44 46 46 47 47 49 51 53 53 58 62 65 65 66 67 65 65 64 64 64 63 63 63 62
33 32 26 25 21 19 23 18 15 15 15 22 31 36 39 38 38 38 38 38 39 41 43 44 43 43 44 43 44 45 47 50 53 53 57 60 65 65 65 65 65 65 65 64 64 65 65 64 63
32 32 24 22 22 21 17 16 19 18 18 26 35 37 39 38 38 37 36 37 38 40 42 42 41 41 41 41 42 44 47 49 52 55 57 61 64 64 64 64 64 64 64 59 58 61 64 64 63
29 29 22 18 17 17 18 17 28 33 36 38 38 38 38 36 36 36 36 37 37 39 40 40 40 40 40 40 41 44 46 49 52 56 58 60 62 63 63 64 63 63 63 61 63 64 64 64 63
30 25 23 21 22 19 23 28 35 36 36 36 36 36 35 34 35 35 35 36 37 38 39 40 39 39 38 39 41 43 46 50 57 60 61 62 64 62 63 64 63 63 64 63 63 62 63 63 64
23 27 22 25 21 13 15 20 26 35 33 32 31 32 31 32 33 35 35 36 37 38 38 39 39 38 38 39 39 42 45 48 59 61 61 62 63 63 63 63 63 61 60 62 62 61 62 63 64
19 30 28 29 25 19 16 25 36 34 31 30 30 30 30 31 32 33 34 35 36 37 37 37 37 37 37 37 39 41 43 47 52 60 61 61 62 62 61 62 61 61 61 59 60 61 61 61 62
18 17 23 27 21 26 21 23 34 32 31 26 26 27 29 31 32 33 33 34 35 35 35 36 36 36 36 36 37 39 41 43 46 50 57 61 62 62 61 60 60 60 60 61 58 57 59 60 60

GFSSGP_sfc_dewp_108.txt.gz
Dewpoint
53 41 36 31 25 24 18 13 12 9 10 14 14 12 14 16 17 28 47 52 59 68 70 70 72 73 73 74 74 74 73 74 74 74 74 74 74 74 74 74 74 74 75 74 73 73 73 73 73
39 39 30 27 25 19 15 13 10 13 16 16 16 16 14 16 23 31 42 52 58 64 71 69 72 72 73 73 73 74 74 74 74 74 74 74 74 74 74 74 74 74 74 74 73 73 73 74 73
46 37 27 26 22 19 16 14 14 14 16 14 15 18 21 25 32 34 47 55 60 62 69 69 71 72 72 73 73 73 74 73 73 73 74 74 74 74 74 74 73 74 74 74 74 73 73 73 72
31 27 27 24 21 19 19 19 16 13 15 16 15 16 20 31 34 36 46 53 63 65 66 70 70 71 72 72 73 73 73 73 73 73 74 74 74 73 73 73 73 74 74 74 74 73 73 72 71
29 28 24 22 20 20 20 19 19 17 17 16 16 18 20 30 31 36 46 56 66 69 71 70 70 71 72 72 73 73 73 73 73 73 73 73 73 73 73 73 73 73 74 74 73 73 72 71 70
26 26 23 20 20 19 20 20 20 20 20 19 19 19 22 29 31 38 44 58 68 71 72 71 71 71 71 71 71 72 72 72 72 72 73 73 73 73 73 72 73 73 73 73 72 72 71 70 70
25 25 23 22 21 21 22 23 21 21 21 20 22 22 27 28 37 37 43 51 66 71 73 73 72 71 71 70 70 70 71 72 72 72 72 72 72 72 72 72 72 73 72 72 72 71 70 70 70
24 23 22 22 21 20 21 20 20 21 21 25 27 24 27 36 37 40 41 41 58 70 72 73 73 72 71 71 70 70 70 70 71 72 71 71 71 72 72 71 72 72 72 71 71 71 70 69 69
24 21 20 21 20 21 21 19 20 21 20 24 24 26 29 32 31 34 40 41 49 67 70 72 72 72 72 71 70 70 70 70 70 71 71 70 72 72 71 70 70 71 70 70 70 70 69 68 68
23 22 23 24 23 22 21 19 18 19 21 24 25 28 29 31 32 34 34 39 48 55 70 71 72 72 72 70 71 70 70 69 70 70 71 72 72 72 70 70 69 70 69 69 69 69 68 68 68
24 23 25 25 25 25 22 20 21 19 19 21 24 26 29 31 38 41 33 32 38 49 66 70 71 71 71 71 72 70 69 69 69 69 70 70 69 70 69 69 69 70 69 70 69 68 68 68 68
24 24 24 23 23 21 19 20 19 21 23 22 23 23 23 24 31 35 33 34 37 50 47 68 70 71 71 71 70 71 71 69 69 69 70 70 69 69 69 67 69 70 69 69 68 68 68 67 67
27 26 24 23 22 22 20 17 18 17 18 18 18 19 22 25 26 28 29 30 44 44 46 50 57 68 71 70 71 70 69 71 69 71 70 68 69 68 68 67 67 68 68 68 67 67 67 66 66
27 25 24 23 19 19 19 19 18 18 18 17 18 19 22 23 25 26 31 37 39 43 46 52 54 56 56 69 69 70 70 70 70 69 69 70 69 67 66 67 65 67 67 67 66 66 66 66 66
28 25 24 24 24 22 21 20 20 23 22 21 20 20 20 23 23 26 35 39 42 44 48 54 55 59 60 59 62 68 68 69 69 68 69 69 69 70 68 67 65 64 66 65 67 67 68 66 66
27 27 26 27 26 25 23 21 21 22 21 21 20 22 23 24 23 27 37 41 42 45 50 52 52 57 59 60 60 58 59 67 67 66 67 69 68 68 68 67 65 67 66 66 67 66 66 66 66
28 26 27 28 29 26 24 24 23 21 23 20 21 22 22 23 25 35 41 44 43 45 51 52 54 55 57 59 59 59 59 57 66 66 66 68 68 67 68 67 66 66 66 66 66 66 66 65 65
25 24 25 27 28 28 25 24 22 22 21 22 21 21 22 23 24 41 41 44 45 48 50 51 52 55 56 56 58 58 57 57 56 63 65 66 68 67 67 67 67 66 65 65 67 65 66 65 64
26 25 25 26 27 28 29 27 21 22 23 22 21 21 22 25 37 40 45 47 47 49 49 49 50 52 51 51 51 52 52 55 55 57 62 66 67 67 66 66 66 66 65 64 66 65 64 64 64
27 28 28 30 29 27 28 31 33 21 21 21 19 19 23 26 35 39 42 45 47 47 48 47 47 48 49 49 51 51 52 52 54 55 57 62 64 66 66 67 66 66 65 64 65 64 63 63 64
24 25 28 28 28 28 28 30 31 26 20 18 19 19 23 34 37 38 39 43 46 46 47 45 46 46 48 49 48 49 50 51 52 53 53 55 62 64 66 66 66 66 65 64 65 64 62 61 63
25 27 28 28 29 29 29 28 28 23 21 17 18 24 34 37 37 37 39 40 43 45 46 45 46 45 45 47 46 47 47 47 49 51 53 54 63 63 65 66 66 65 64 64 64 64 62 61 61
26 33 32 34 32 29 28 25 25 22 23 23 27 34 38 38 38 38 38 38 40 43 44 45 44 43 44 45 45 44 44 46 48 50 52 54 55 62 64 65 65 64 64 63 64 64 62 61 60
34 34 32 32 30 27 26 23 26 26 23 20 30 38 38 38 38 36 37 38 38 41 43 43 42 41 42 43 42 42 42 43 45 47 49 52 55 59 62 64 66 65 64 64 63 60 63 62 62
30 33 26 25 26 21 21 23 28 28 36 27 40 39 38 38 37 36 36 36 38 40 41 40 40 40 41 41 40 40 41 42 43 45 48 50 54 58 59 63 65 65 64 63 63 63 63 62 62
27 31 24 20 22 20 23 29 31 41 40 42 43 41 36 36 36 35 35 37 37 38 39 39 39 39 40 40 39 39 40 43 44 46 48 50 53 57 61 63 64 64 64 63 63 62 61 60 60
32 31 30 25 27 28 28 28 33 41 39 40 42 38 33 32 33 34 34 36 37 38 39 39 38 37 38 38 39 39 41 43 44 46 49 52 54 57 61 64 63 63 63 63 60 59 59 58 61
30 30 31 31 22 21 19 25 32 35 36 34 34 31 29 29 30 32 33 36 36 37 37 38 37 36 37 37 37 38 39 42 44 46 49 55 57 60 61 63 63 63 63 63 60 60 61 62 62
22 23 33 35 25 23 18 30 39 37 37 32 29 28 29 30 30 31 33 35 35 36 36 37 37 36 35 36 36 37 38 39 42 43 45 47 51 59 61 63 63 62 62 62 62 61 61 61 60
21 22 32 31 28 31 28 27 39 38 35 27 25 27 29 30 30 31 32 33 33 34 33 34 35 35 34 34 35 35 36 37 39 40 42 46 46 52 60 61 62 62 61 60 61 60 59 59 57

GFSSGP_sfc_dewp_111.txt.gz
Dewpoint
52 42 42 35 26 26 22 19 20 13 13 17 18 17 14 16 28 37 50 56 68 68 71 71 72 73 74 74 73 73 73 74 74 74 74 74 74 74 74 73 74 74 75 74 73 73 73 73 73
47 42 38 30 25 22 21 21 14 17 18 18 18 18 16 23 32 44 48 54 65 68 70 71 72 72 73 73 73 73 74 74 74 74 74 74 74 74 74 73 73 74 75 74 73 73 73 73 72
47 44 31 27 24 22 21 19 16 16 17 16 17 20 27 34 36 43 51 59 62 69 69 70 71 72 72 73 73 73 73 73 73 73 74 74 74 74 74 73 73 74 75 75 73 73 74 72 72
35 31 27 24 24 23 22 21 17 15 17 16 18 22 25 39 36 43 54 61 64 68 68 70 70 71 72 72 73 73 73 72 72 73 74 74 74 74 73 73 73 74 74 74 75 74 72 72 71
38 29 25 25 23 23 22 22 22 19 18 18 17 22 26 34 38 43 55 63 64 70 70 70 70 71 72 72 72 72 72 72 72 73 73 73 73 73 73 72 73 73 74 74 73 72 72 71 70
28 27 24 23 23 23 23 23 21 22 24 22 22 25 24 34 34 36 47 62 66 70 71 70 71 71 71 71 71 72 72 72 72 72 72 73 73 72 72 72 72 72 73 72 72 72 71 70 70
25 25 23 23 23 23 24 24 23 23 26 23 31 28 29 34 35 33 34 47 67 70 71 70 70 71 70 70 70 70 71 71 71 71 72 72 72 71 72 72 72 72 72 72 71 71 70 70 69
26 24 21 21 21 21 23 23 23 22 22 31 29 26 26 34 34 32 32 34 67 69 71 70 70 70 70 69 69 70 70 70 71 71 71 71 71 71 71 71 71 71 71 71 71 70 70 69 68
25 22 21 20 21 21 24 25 22 22 23 27 27 30 29 34 30 28 31 33 57 68 68 71 71 70 70 70 70 70 70 70 70 71 70 70 71 71 71 70 70 71 70 70 70 70 69 68 68
23 22 21 22 23 24 25 24 22 21 23 25 27 30 32 32 30 29 30 31 36 64 68 69 70 70 70 70 69 69 69 70 70 70 71 71 71 71 71 70 69 69 69 69 69 69 68 68 68
25 23 24 24 24 26 25 23 23 19 21 26 27 29 30 31 33 31 29 31 30 62 68 69 70 70 71 70 69 69 69 69 69 69 70 70 71 71 70 70 69 69 69 70 69 68 68 68 68
27 28 26 25 24 24 23 24 22 19 21 23 22 24 25 27 26 32 28 29 30 33 65 70 70 69 68 69 71 70 68 68 68 68 69 69 69 68 69 69 69 69 69 69 68 68 68 68 68
28 28 29 28 26 24 23 20 21 21 19 19 18 18 21 23 24 27 28 28 31 38 45 50 64 66 68 68 69 70 70 69 68 68 68 69 68 68 68 68 69 69 69 68 68 68 68 67 67
31 31 30 28 25 25 25 24 21 21 21 19 18 19 20 24 24 23 25 28 38 42 48 50 52 54 55 60 65 67 67 68 69 69 69 68 68 67 67 67 67 68 68 68 68 67 67 67 67
31 28 28 28 26 25 25 23 23 24 22 21 22 21 21 22 24 23 32 37 41 47 48 50 52 53 55 56 57 59 65 68 67 68 68 69 68 68 67 66 66 67 68 67 67 66 67 66 66
29 28 25 27 27 28 28 26 26 23 22 22 22 22 21 22 23 31 38 40 45 48 48 50 51 53 54 54 56 56 58 59 63 67 68 67 68 68 68 67 66 65 66 65 66 66 66 65 65
29 26 26 26 29 29 29 27 28 32 29 23 22 22 21 23 36 39 39 43 46 47 48 49 50 51 52 53 54 55 55 56 58 61 65 67 68 67 67 67 67 65 65 66 65 65 65 64 65
25 26 25 24 24 31 31 29 28 30 32 28 22 21 21 23 38 41 44 45 46 47 47 47 49 49 49 50 52 52 53 54 55 54 57 65 67 68 67 66 66 66 65 64 65 65 65 65 64
27 25 23 24 28 29 30 30 31 32 33 32 22 21 21 36 41 44 44 44 45 45 45 46 47 47 48 48 48 48 50 50 51 52 53 54 64 67 67 66 66 66 66 64 65 65 64 62 64
23 22 24 26 27 28 28 29 29 30 32 33 31 21 23 39 40 42 43 43 44 45 45 45 45 45 45 47 47 48 49 50 51 52 52 53 54 58 66 66 66 66 66 65 64 64 63 62 63
21 24 24 23 25 29 28 27 28 29 30 32 31 21 24 38 39 40 40 42 43 43 44 44 44 43 44 44 45 45 45 46 48 49 49 50 52 54 58 65 66 66 66 65 64 63 63 61 61
23 26 31 31 31 29 32 26 27 28 28 30 34 27 37 39 38 38 38 39 41 42 43 42 42 41 41 43 42 42 42 42 43 45 47 48 49 52 55 58 63 65 65 64 62 59 59 57 59
29 34 33 33 31 30 28 29 25 27 25 27 34 35 38 37 36 36 37 38 39 41 41 41 41 41 41 41 41 40 39 41 42 43 44 46 48 50 53 56 61 62 64 63 59 57 59 61 61
34 33 31 32 32 26 25 25 23 23 29 35 38 38 36 35 35 36 37 37 38 39 40 39 39 39 39 39 39 39 38 39 40 41 42 44 46 49 51 55 59 62 62 63 62 60 60 61 60
34 30 24 20 25 21 20 26 27 29 35 40 41 41 36 35 35 36 36 36 37 38 38 37 37 36 37 38 38 38 38 38 39 41 43 44 46 48 50 54 57 60 61 61 62 62 62 61 61
30 28 23 19 20 25 28 28 30 41 44 43 41 40 37 34 34 35 35 36 36 36 37 36 36 35 36 37 37 37 38 39 39 42 43 44 46 48 50 52 56 58 61 62 62 62 60 59 61
32 29 29 27 26 23 24 30 36 38 41 42 38 37 34 31 33 34 35 35 35 35 36 36 36 34 34 36 36 36 37 39 39 40 42 45 47 49 53 52 54 53 56 58 61 60 60 58 56
31 32 29 30 21 20 21 28 29 34 35 38 35 31 32 34 32 33 34 34 34 34 35 35 34 35 34 34 35 36 36 37 38 39 41 42 45 47 50 55 55 57 54 57 60 60 60 59 59
28 29 32 33 32 24 22 30 34 32 36 36 35 32 30 30 31 31 32 32 33 32 33 34 34 34 34 33 34 35 35 36 37 38 39 40 42 45 48 50 59 59 59 59 59 60 59 59 58
26 27 29 28 27 30 29 29 38 36 37 37 30 29 29 30 30 30 30 30 31 31 31 32 33 34 34 33 33 34 34 35 35 36 37 39 39 42 44 49 56 59 58 58 60 59 59 58 59

GFSSGP_sfc_dewp_114.txt.gz
Dewpoint
52 41 40 34 25 25 23 21 21 16 14 17 19 16 14 21 29 32 50 63 69 69 71 72 72 73 73 73 73 73 73 73 73 73 73 73 73 73 73 73 74 75 75 73 73 73 73 73 73
47 41 36 30 24 21 21 23 17 16 16 18 21 22 22 32 43 48 49 62 68 69 70 71 72 73 73 72 72 73 73 73 73 73 73 73 73 73 73 73 73 74 74 73 73 72 73 73 72
45 43 31 26 24 22 22 19 18 16 16 17 19 23 29 33 41 46 51 65 68 69 70 70 71 72 73 72 72 72 73 73 73 73 73 73 73 73 73 72 73 74 75 73 72 72 74 72 71
37 30 27 24 23 24 23 24 22 15 16 16 18 22 29 39 39 49 59 64 68 69 68 70 70 71 72 73 72 72 72 72 72 73 73 73 73 73 73 72 73 74 75 75 73 73 73 71 71
36 28 25 25 23 24 24 24 24 22 17 19 18 24 29 37 48 56 61 61 68 69 68 70 69 71 72 72 72 72 72 72 72 72 73 73 73 73 73 72 72 73 74 74 74 73 72 71 71
25 27 24 23 23 24 25 25 23 23 21 21 20 23 30 38 39 52 62 62 69 69 70 70 70 71 71 71 71 71 71 71 71 72 72 73 72 72 72 72 72 72 72 72 72 71 71 71 70
25 24 23 23 23 23 25 25 23 23 23 23 29 27 34 34 35 33 51 65 69 70 69 70 70 71 70 69 70 70 70 71 71 71 71 72 71 71 71 71 72 72 71 71 71 71 70 70 70
25 24 22 21 21 21 24 26 25 23 21 29 29 25 29 33 34 31 31 62 68 70 69 69 69 70 70 69 69 69 70 70 70 70 70 70 70 71 71 70 71 71 71 71 71 70 70 69 68
25 21 21 21 21 21 23 25 26 23 22 23 26 28 32 35 31 28 31 41 67 69 69 68 69 69 69 69 69 70 70 70 70 70 70 69 71 71 71 70 70 70 69 70 70 70 69 68 68
23 22 21 23 23 22 24 24 25 24 24 24 25 29 34 35 29 28 29 29 58 66 68 69 69 69 68 69 69 69 70 70 71 71 71 71 71 70 71 70 69 69 69 69 69 69 68 68 68
25 22 23 24 25 26 25 25 25 24 23 24 25 27 27 29 31 31 28 28 29 43 67 69 69 69 69 69 68 68 68 68 69 70 70 70 69 71 70 70 70 69 69 69 69 68 68 68 67
27 27 28 28 28 27 26 25 24 23 24 24 24 23 23 21 28 31 28 28 32 53 66 68 68 68 68 68 68 68 68 67 68 68 69 69 69 70 70 70 69 68 69 68 69 69 68 67 67
31 30 30 31 31 30 28 26 26 25 25 23 21 20 20 23 23 27 28 28 44 50 60 64 64 62 65 68 69 70 69 68 67 68 68 69 69 69 69 69 69 68 68 69 68 68 67 67 67
32 32 31 30 29 28 27 26 25 26 26 25 25 23 21 22 23 24 27 34 43 48 50 53 54 55 55 59 59 64 67 67 67 68 68 68 68 68 68 68 68 68 68 68 68 68 67 67 67
32 30 30 29 28 27 28 26 26 28 26 25 25 25 23 22 23 23 29 43 47 49 50 52 53 53 53 54 56 59 60 62 65 68 67 67 68 68 67 67 67 68 68 68 68 67 67 67 66
29 29 27 27 28 28 28 25 28 29 29 28 26 27 26 24 23 32 43 46 48 49 49 49 49 50 50 51 52 53 56 58 59 61 64 67 68 68 68 68 67 67 68 68 68 67 66 66 66
29 26 27 27 28 28 29 28 30 30 31 30 32 32 32 26 36 41 46 47 47 47 47 47 47 47 48 49 50 51 52 53 55 56 57 62 65 67 68 67 67 66 66 67 67 66 66 65 65
25 26 25 25 26 28 28 27 28 30 31 31 31 32 32 27 40 45 46 45 45 45 46 46 46 46 47 47 48 49 50 50 52 52 53 54 56 60 65 66 66 66 65 65 66 66 65 64 64
29 27 26 27 25 27 25 26 28 29 30 28 29 31 32 41 44 44 44 44 44 44 44 44 44 45 44 45 45 46 46 46 48 49 51 52 55 56 55 63 66 65 65 64 64 64 63 63 64
30 28 26 24 25 25 25 27 28 29 28 27 28 30 40 42 42 43 43 43 43 43 42 42 42 42 42 43 45 45 44 47 46 48 48 49 50 52 53 55 60 65 65 64 63 64 63 64 64
27 25 23 22 30 28 27 27 26 26 29 29 29 30 39 42 41 41 41 42 41 41 41 41 41 41 41 42 42 41 42 43 44 43 44 46 47 48 50 52 54 56 64 65 64 63 62 60 61
25 31 31 31 29 25 31 24 24 24 25 28 28 38 41 41 39 39 39 40 39 39 40 40 40 39 40 40 40 39 39 39 40 41 42 43 45 47 49 51 53 55 58 62 64 63 62 59 56
30 34 32 32 30 29 27 27 22 23 24 26 38 42 42 42 40 37 38 38 38 38 38 37 37 37 37 38 39 39 38 38 39 40 41 42 44 46 48 49 50 52 54 58 63 61 57 57 55
35 32 31 31 30 21 23 25 23 24 31 36 41 40 40 39 37 36 37 37 37 37 36 36 35 34 36 37 37 37 37 37 38 39 40 42 44 45 47 48 50 52 55 58 61 62 60 57 56
32 28 25 18 21 19 25 24 25 39 41 41 39 39 39 37 37 35 35 35 36 36 35 35 35 34 34 35 35 36 36 37 38 38 40 40 42 44 46 48 50 51 52 55 60 60 59 58 58
30 28 24 17 19 22 25 23 32 38 37 39 39 39 39 37 36 34 34 34 34 34 33 33 34 34 34 34 34 35 36 37 37 37 38 39 42 43 45 47 49 50 52 54 57 61 60 59 59
31 27 28 27 27 20 22 28 34 36 35 35 35 37 37 37 35 34 34 33 33 33 34 33 34 34 34 34 34 35 36 36 37 37 38 39 40 41 43 44 47 49 53 53 55 60 59 60 60
30 32 28 28 19 19 21 27 27 33 33 34 34 33 34 36 34 33 33 32 32 32 33 33 34 33 34 33 33 34 34 35 36 37 37 37 39 40 41 42 45 48 52 54 54 56 59 59 59
31 29 32 30 28 22 21 25 35 33 35 34 34 34 32 30 29 30 31 32 31 31 32 32 32 32 32 32 33 33 33 34 35 35 35 36 37 38 39 40 43 47 49 56 55 54 57 59 59
30 29 32 25 23 27 25 28 38 36 37 33 31 31 30 30 29 28 29 29 30 30 31 31 31 31 32 32 32 32 32 32 32 33 33 34 34 36 37 38 40 43 44 48 58 56 57 58 58

GFSSGP_sfc_dewp_117.txt.gz
Dewpoint
51 40 39 32 24 24 24 21 22 15 13 16 17 18 17 25 27 23 50 61 69 69 72 72 72 73 73 73 73 73 73 73 74 73 73 73 74 73 73 74 74 75 75 74 73 73 73 73 71
48 41 34 28 23 20 19 23 22 19 18 18 18 20 25 37 47 50 51 65 68 70 71 72 72 72 73 73 73 73 73 73 73 73 73 73 73 74 73 73 74 74 74 74 73 73 73 73 71
42 40 28 25 24 21 20 23 24 24 22 18 16 22 33 36 46 48 52 66 68 69 70 71 72 72 72 72 72 72 73 73 73 73 73 73 73 73 73 73 73 74 74 73 72 72 74 72 71
37 29 27 24 23 24 23 24 24 23 23 18 16 24 32 39 44 49 59 68 68 69 69 70 71 71 72 72 72 72 72 72 72 72 73 73 73 73 73 72 73 74 74 74 73 74 73 71 70
33 28 24 23 23 24 25 25 25 24 24 17 18 22 32 42 52 57 64 68 68 68 69 70 70 71 72 72 72 72 72 71 72 72 72 72 73 73 72 72 73 74 74 74 73 73 72 71 70
26 27 23 23 23 25 25 25 24 25 24 22 20 22 30 35 47 57 60 63 69 68 69 70 70 71 71 72 71 71 71 71 71 72 72 72 72 72 72 71 72 72 73 73 72 72 71 71 70
25 24 24 23 23 23 26 26 25 23 25 22 26 28 31 32 34 47 60 65 68 69 68 68 70 70 70 69 70 70 70 70 70 71 71 71 71 71 71 71 71 72 72 71 72 71 70 70 70
25 24 27 22 21 21 24 24 26 24 24 27 29 26 29 32 34 34 58 65 68 68 68 68 68 69 69 69 69 69 70 70 70 70 70 70 70 70 70 70 71 71 71 71 71 70 70 70 69
25 21 21 22 21 22 24 24 26 25 23 26 25 28 30 37 32 29 35 60 65 68 67 67 67 68 68 68 69 70 70 70 69 70 70 69 70 70 70 70 69 70 69 70 70 70 69 68 68
24 21 21 23 23 23 24 25 25 25 26 27 24 28 33 32 31 29 29 41 64 66 67 67 67 67 67 69 68 68 69 70 70 70 70 70 70 70 70 69 68 69 68 69 69 69 68 68 67
24 22 23 24 25 29 27 29 26 24 25 25 26 26 27 29 31 32 31 29 52 66 67 68 68 68 67 68 67 67 68 69 70 69 69 70 68 69 70 70 69 68 68 68 68 68 68 68 67
26 27 29 29 31 31 30 29 27 26 27 26 26 26 24 22 25 32 31 30 30 50 61 68 68 68 68 69 67 67 67 67 68 69 69 69 69 69 68 68 68 68 68 68 68 68 68 68 67
31 31 32 32 30 30 30 29 28 28 28 27 26 24 23 24 24 24 30 33 42 54 64 64 60 62 66 67 68 69 67 67 66 67 68 68 68 68 68 68 68 68 68 68 68 68 68 68 67
33 33 31 31 31 30 29 29 27 27 28 27 28 28 28 26 25 23 23 32 50 53 53 54 54 54 55 58 59 61 63 66 68 67 67 67 68 68 68 68 68 68 68 68 68 68 67 67 67
32 30 30 30 30 28 28 25 25 25 30 30 31 32 32 33 29 24 24 41 50 51 51 51 51 51 51 52 53 56 57 60 61 62 64 66 67 67 67 67 68 69 68 68 68 67 67 67 67
30 30 27 27 27 27 29 25 28 30 28 29 31 32 32 32 32 28 40 48 49 49 48 48 49 49 49 50 51 51 54 55 56 59 60 61 63 64 67 67 67 68 68 67 67 67 67 66 66
30 26 26 26 28 27 27 25 30 27 29 30 31 31 31 32 35 46 47 47 47 47 46 46 47 47 48 48 49 49 50 50 53 53 55 56 58 59 60 63 67 67 67 67 67 67 67 66 65
25 27 24 26 25 26 27 26 26 26 30 31 30 29 30 36 44 45 45 45 45 45 45 45 44 45 45 46 47 47 46 46 49 49 50 52 54 55 56 58 62 66 65 65 66 65 66 65 65
29 27 27 27 28 27 26 25 25 27 28 28 28 28 32 43 44 43 43 43 43 42 41 42 42 42 43 43 43 45 43 45 45 47 46 47 50 50 50 52 54 57 63 64 63 64 63 64 65
30 29 28 29 29 26 25 25 27 27 27 28 28 29 41 42 42 42 42 41 40 40 40 40 41 41 41 41 42 42 42 44 43 44 43 46 45 47 48 50 51 54 55 58 64 64 62 62 63
29 29 28 27 29 29 28 26 23 24 25 26 28 29 40 42 41 40 39 39 39 38 39 38 39 38 39 40 40 40 41 40 41 40 41 42 44 45 47 48 50 51 53 53 57 63 63 62 61
27 28 29 30 27 24 30 22 22 24 30 36 40 41 40 40 39 38 38 38 39 36 36 35 36 36 38 38 38 38 38 38 39 39 40 41 43 45 47 48 48 49 51 53 55 59 63 63 58
27 33 31 31 28 27 28 24 25 31 34 39 40 39 40 40 39 38 38 37 36 37 36 35 34 34 36 36 37 37 37 38 38 39 39 41 43 44 46 48 47 48 49 50 53 54 58 63 61
34 31 30 31 29 20 23 22 22 32 33 36 40 38 38 38 37 37 38 38 36 34 34 35 34 33 34 35 35 36 36 36 37 37 38 39 40 42 45 46 47 49 50 51 52 54 57 61 60
31 30 28 21 21 20 24 24 30 34 34 37 37 37 37 37 37 36 34 34 34 34 33 33 34 33 33 34 34 35 35 36 36 36 37 38 39 41 43 44 45 46 49 50 52 52 54 59 60
30 29 25 18 18 20 25 20 30 36 36 36 36 36 36 35 36 35 35 33 32 32 32 33 33 33 34 33 34 34 34 35 36 36 36 37 38 39 41 42 43 44 46 48 50 53 53 56 60
30 27 28 27 27 21 22 30 35 36 34 34 35 35 34 34 34 34 34 34 32 32 32 32 32 32 33 33 34 34 34 35 35 35 36 36 36 37 39 40 41 42 44 47 50 53 53 54 59
30 31 26 27 19 18 20 25 23 31 33 35 34 34 34 34 34 34 34 33 33 33 32 32 32 32 32 33 33 33 34 34 34 34 34 34 34 36 37 37 39 41 42 45 47 50 54 54 58
30 29 30 28 25 20 20 20 29 33 35 34 34 34 33 32 32 31 31 31 32 33 33 31 31 31 31 32 32 33 34 33 32 32 32 32 33 34 34 35 37 38 38 41 42 44 54 54 55
31 29 31 22 22 27 19 20 35 36 36 34 33 32 32 31 31 31 31 29 29 30 30 29 30 30 31 32 32 33 33 32 32 31 31 32 31 32 32 33 34 35 36 38 38 40 43 54 55

GFSSGP_sfc_dewp_120.txt.gz
Dewpoint
51 41 39 31 22 22 23 21 22 19 21 18 17 16 16 26 37 29 48 57 68 70 71 71 72 73 73 73 73 73 73 73 73 74 74 74 74 74 74 74 74 74 75 75 73 73 73 71 71
46 41 32 27 22 18 16 23 21 22 23 23 19 23 30 37 47 50 53 65 68 70 71 71 72 73 73 73 73 73 73 73 73 73 74 74 74 74 74 74 74 74 74 74 73 73 73 72 70
42 36 27 25 24 19 18 23 24 25 25 21 18 25 32 36 46 51 51 68 68 70 71 71 71 72 72 72 72 72 73 73 73 73 73 73 73 73 73 73 74 74 75 74 73 73 74 72 70
35 29 27 23 22 24 23 24 25 24 24 21 16 21 33 40 46 48 62 68 68 69 70 70 71 71 72 72 72 72 72 71 72 72 73 73 73 73 73 73 73 74 74 74 73 73 73 71 70
30 28 24 24 23 24 25 25 25 25 25 24 22 23 30 40 52 59 66 68 67 68 69 70 70 71 71 72 72 72 71 71 71 72 72 72 73 73 73 72 73 73 74 73 73 73 71 71 70
26 27 23 22 23 25 25 25 25 26 26 25 24 26 29 35 48 58 62 66 68 68 68 69 71 71 71 71 71 71 71 71 71 71 71 72 72 72 72 72 72 73 73 72 72 71 71 70 70
26 25 25 27 23 24 25 25 25 24 25 24 26 29 31 31 34 45 57 63 67 68 68 68 69 71 70 70 70 69 70 70 70 70 71 71 71 71 71 71 72 72 72 72 71 71 71 70 70
26 24 25 22 22 22 24 25 25 25 25 29 27 22 23 30 34 33 41 63 66 67 67 67 68 69 69 69 69 69 69 69 70 70 70 70 70 70 70 70 70 71 71 71 71 70 70 70 69
25 22 22 22 22 23 25 25 26 26 25 27 26 26 26 32 32 30 29 49 64 67 66 66 67 68 68 68 69 69 70 70 69 70 69 68 70 69 69 69 69 70 69 70 70 70 69 69 68
25 23 22 24 23 23 25 27 28 26 27 28 27 30 30 30 28 30 30 31 51 64 66 66 66 67 67 69 68 68 69 69 70 70 70 70 70 70 69 69 68 69 68 69 69 69 68 68 68
26 22 23 24 25 31 30 30 29 27 27 29 28 28 30 26 26 29 32 31 31 59 66 67 66 66 67 68 67 67 68 69 70 70 70 70 70 69 69 69 69 68 68 68 68 68 68 68 67
27 26 28 30 32 30 30 30 29 27 30 30 28 28 27 25 28 28 28 31 31 31 61 66 66 67 67 68 67 67 68 68 68 69 69 69 69 69 69 68 68 68 68 68 68 69 69 68 67
31 31 33 32 31 31 31 30 29 29 29 29 28 28 29 30 29 30 27 26 31 31 61 67 69 68 68 68 68 67 66 67 67 68 69 69 69 68 68 68 68 68 68 68 67 68 68 68 68
33 33 32 32 31 31 30 29 28 28 29 31 32 32 31 31 32 31 31 30 38 55 58 55 57 60 58 59 60 61 62 64 66 66 67 68 68 68 68 68 68 68 68 68 67 67 67 66 67
32 30 30 29 29 28 28 21 25 28 27 26 27 31 32 32 33 33 34 31 50 52 51 51 52 53 53 54 54 56 57 59 59 61 62 62 63 62 65 67 67 68 68 67 68 67 67 67 66
30 29 26 25 28 27 26 22 25 29 26 25 27 30 31 31 36 46 48 48 47 46 46 47 48 49 50 50 52 53 53 54 55 56 58 58 59 60 61 61 63 67 68 68 67 67 66 66 66
29 23 26 26 26 27 26 25 28 28 26 26 27 30 31 31 44 44 44 44 44 44 44 43 44 45 46 48 49 49 49 50 50 51 52 53 55 55 56 59 61 62 65 66 66 66 66 66 66
23 26 23 25 24 25 26 27 28 27 26 28 28 29 29 43 43 43 42 41 41 41 41 42 42 42 44 45 46 45 45 46 46 47 46 49 50 50 51 53 54 56 60 64 65 64 65 64 65
27 25 25 26 28 29 28 27 26 26 28 28 28 28 33 42 42 40 39 39 39 40 39 40 40 40 41 42 43 43 41 44 44 43 44 46 46 48 48 49 50 53 54 55 59 64 62 61 63
30 29 28 29 29 27 25 26 27 28 28 35 39 38 41 41 39 38 37 37 36 36 36 36 37 38 38 39 41 41 41 43 43 41 43 43 44 46 46 47 48 50 51 52 53 58 63 62 63
29 29 29 28 28 29 28 25 25 30 38 41 39 39 39 38 37 37 36 37 37 36 35 34 35 35 37 38 39 39 40 40 40 40 40 41 43 45 46 47 48 48 49 50 52 54 56 61 62
29 30 30 28 28 23 28 22 28 32 34 38 38 38 39 38 37 36 36 35 35 36 37 37 36 35 35 36 37 37 38 37 39 39 40 40 42 43 45 47 48 49 50 50 50 53 53 57 60
28 30 29 30 28 26 27 24 24 32 31 36 37 37 37 38 38 37 38 36 35 35 36 36 37 37 34 34 35 36 36 37 38 38 38 39 40 42 43 46 46 47 48 50 50 51 51 53 55
33 31 29 30 27 23 25 24 21 29 32 35 35 36 36 37 37 37 36 37 36 35 35 36 34 34 35 34 34 35 35 35 36 36 37 37 39 40 42 42 44 44 46 47 49 52 52 52 53
31 29 24 20 21 21 24 23 26 33 35 35 34 35 35 36 35 35 35 34 35 35 35 35 34 33 34 34 34 34 34 34 35 35 36 36 37 38 39 40 41 42 44 45 47 48 50 52 53
29 28 26 19 17 18 25 21 28 34 34 34 34 34 35 34 35 34 34 34 34 34 33 32 32 33 34 34 34 34 34 34 34 34 34 35 35 35 37 38 39 41 42 43 45 47 49 52 53
30 29 30 28 27 23 22 28 33 35 34 35 35 35 35 34 34 33 34 33 34 34 33 32 32 32 32 33 34 33 33 34 33 33 33 33 33 34 35 36 37 39 40 41 43 45 47 49 53
30 30 27 29 21 18 19 22 23 31 32 33 34 34 35 35 34 32 32 32 33 33 33 32 32 32 32 33 33 33 33 33 33 33 32 32 32 33 34 34 35 36 37 38 40 41 43 45 48
30 29 29 29 27 19 19 20 26 31 32 32 33 35 33 32 30 30 31 31 32 32 32 31 31 31 32 32 32 33 32 33 32 32 32 32 32 32 32 33 34 34 35 36 37 38 39 40 43
32 30 30 27 22 25 19 20 34 34 34 34 34 32 31 30 29 28 28 28 29 29 30 30 31 31 31 31 31 32 32 32 31 30 30 30 30 31 31 32 32 33 33 34 34 35 37 39 41

GFSSGP_sfc_dewp_123.txt.gz
Dewpoint
49 41 38 32 24 24 19 20 22 23 23 23 21 17 24 29 39 33 50 57 67 70 71 71 72 73 73 72 72 73 73 74 74 74 73 73 73 73 73 73 74 74 74 75 73 73 72 71 71
43 41 33 29 24 19 17 23 23 24 25 26 23 27 26 32 46 51 54 66 67 69 70 71 72 72 72 72 72 72 73 74 74 74 74 73 73 73 73 73 73 74 74 75 73 73 73 72 70
42 33 29 27 25 19 19 23 25 25 25 23 19 23 32 38 46 52 54 68 68 69 70 70 72 72 72 72 72 72 73 73 73 74 74 74 74 74 74 73 73 74 75 75 73 73 74 71 69
35 30 28 25 22 24 24 25 25 24 25 25 24 21 31 42 46 50 65 68 68 69 70 71 71 71 72 72 72 72 72 72 72 72 73 74 74 74 73 73 73 74 74 74 73 73 73 71 69
31 29 26 24 23 25 26 25 25 25 25 25 25 26 29 36 52 64 67 67 67 69 70 71 70 71 72 72 72 72 71 71 71 72 72 73 73 73 73 73 73 74 74 73 73 72 72 71 70
28 29 25 23 23 25 26 26 25 25 26 25 25 28 28 35 46 56 62 67 69 69 70 71 71 71 71 71 71 71 71 71 71 71 71 72 73 72 72 72 73 73 73 73 72 72 71 70 70
28 28 25 24 24 24 25 26 26 26 26 25 27 25 29 29 38 39 45 64 69 70 70 71 72 72 70 69 69 69 70 70 70 71 71 71 71 71 72 72 72 72 72 72 71 71 70 70 70
27 27 25 24 24 24 24 25 26 27 26 29 28 24 25 30 35 38 37 57 66 69 71 70 71 72 72 72 69 69 69 69 70 70 70 70 70 70 71 71 71 72 71 71 71 70 70 70 69
26 26 26 25 23 25 25 28 30 28 26 29 27 27 30 33 32 34 36 36 50 66 70 71 70 71 71 71 71 70 70 70 69 70 70 69 71 70 70 69 69 70 70 70 70 70 69 69 69
26 26 26 25 24 24 29 30 30 29 30 29 28 32 32 33 32 33 33 35 39 41 55 69 70 71 71 69 71 71 71 71 71 71 71 71 71 71 70 69 69 69 68 69 69 69 68 68 69
25 25 25 24 26 32 31 31 30 29 29 30 31 31 32 31 36 37 35 34 36 38 41 57 70 70 71 70 70 69 70 70 71 71 71 71 71 71 70 69 70 70 69 69 69 70 71 70 70
26 26 26 31 32 32 31 31 29 29 29 31 30 31 31 31 34 35 34 35 35 37 38 49 68 70 70 70 71 70 69 69 69 70 70 71 71 70 70 69 68 68 69 69 69 68 70 71 70
31 31 33 33 32 32 32 30 29 29 30 30 30 30 30 32 33 34 35 36 37 36 42 53 64 70 70 70 71 71 70 68 68 69 70 70 70 70 70 70 70 69 68 68 68 68 68 69 70
33 32 32 32 31 31 29 28 28 28 29 28 27 28 30 32 34 38 45 46 49 53 54 57 57 58 68 69 70 68 67 67 67 67 67 69 69 69 69 69 69 70 69 69 69 67 67 67 68
32 30 30 28 28 27 28 20 24 28 28 27 26 28 29 33 44 46 48 47 48 48 49 51 52 53 55 58 60 62 61 62 62 62 62 62 62 62 65 68 67 69 69 69 69 68 68 67 67
30 29 19 24 27 28 25 19 24 29 28 26 28 28 30 41 44 44 44 43 43 44 45 45 45 47 50 52 55 56 57 58 58 58 58 57 57 59 60 61 62 62 65 69 69 67 67 66 67
29 16 24 23 26 26 26 24 27 29 29 28 28 29 32 42 41 41 41 41 40 41 41 41 42 43 45 49 49 51 52 51 53 51 53 54 53 53 55 57 59 58 61 63 66 68 67 66 66
16 23 26 23 24 27 28 27 29 29 28 32 37 37 41 40 39 38 37 37 37 37 38 38 40 41 42 44 47 46 47 47 46 47 48 49 51 51 52 54 54 55 57 59 64 64 66 66 67
26 25 25 28 29 30 29 28 27 30 39 39 40 41 41 39 38 37 37 37 37 37 37 37 37 39 39 40 41 43 43 45 44 44 46 47 48 50 50 49 51 53 53 55 56 58 62 64 66
30 29 28 29 30 29 27 27 32 38 40 39 38 38 38 37 36 35 35 35 36 37 37 37 36 37 37 39 40 41 42 43 43 43 44 44 46 48 48 50 50 51 51 53 54 55 57 64 64
30 30 29 29 30 29 28 25 32 35 38 38 38 38 37 37 36 35 34 34 34 35 35 36 36 36 37 38 38 39 40 40 40 41 41 43 44 45 48 48 48 48 50 50 50 53 55 56 62
29 31 31 30 27 24 28 22 28 33 34 37 37 37 37 36 36 36 35 35 35 35 36 35 35 35 37 37 37 38 36 36 38 39 40 41 43 44 44 46 47 48 49 50 50 51 52 54 55
28 30 29 29 28 29 27 26 28 30 30 35 35 36 36 37 38 37 37 36 35 35 36 35 36 35 36 37 38 37 35 36 37 38 39 39 41 41 42 43 44 44 46 47 48 50 52 52 52
32 31 30 31 29 25 25 24 24 27 29 33 35 35 36 37 36 36 35 36 36 36 34 35 34 34 35 36 37 37 36 35 35 35 36 36 37 38 39 40 41 42 43 44 46 47 49 51 53
31 30 23 23 23 20 25 25 24 31 33 34 34 35 36 36 35 35 35 34 35 35 35 35 34 34 34 35 34 34 35 35 34 33 34 34 34 35 36 37 39 39 41 42 44 45 47 49 50
30 27 22 17 19 18 25 23 25 33 34 34 35 36 36 35 35 34 34 34 34 33 33 33 33 33 33 35 34 34 34 34 33 33 33 33 33 34 35 36 37 37 39 40 41 43 46 48 50
31 29 30 28 27 25 22 24 31 34 33 35 36 36 34 34 34 34 33 33 32 32 32 32 32 32 32 33 33 33 33 33 33 33 33 33 33 33 34 34 35 36 37 38 39 40 42 44 45
31 31 30 32 22 18 19 21 26 32 33 35 36 36 35 34 32 31 31 31 32 31 32 32 32 32 32 32 32 33 32 32 32 32 31 31 32 32 32 33 34 35 35 36 36 38 39 40 43
30 29 29 29 29 20 15 23 33 34 33 33 34 35 35 33 31 29 30 30 31 31 31 31 31 32 32 32 32 31 31 32 31 30 30 30 31 31 31 32 34 34 34 35 35 36 38 39 41
31 30 30 28 26 28 26 24 33 34 34 34 33 34 33 31 28 27 27 28 28 28 29 30 30 31 31 31 31 31 31 30 30 30 29 29 29 30 30 31 32 32 33 34 34 35 35 36 37

GFSSGP_sfc_dewp_126.txt.gz
Dewpoint
49 40 39 33 24 20 16 21 24 22 22 25 25 21 27 29 36 36 56 60 66 66 69 71 72 72 72 73 73 73 74 74 74 73 74 74 73 73 73 74 74 74 74 74 72 72 71 71 71
39 37 34 28 21 16 17 23 23 24 24 24 20 23 25 35 44 51 53 66 65 67 68 70 72 72 72 72 72 73 74 75 74 74 74 74 73 73 73 74 74 74 74 74 73 72 72 72 70
39 31 27 25 23 16 18 23 24 24 24 23 19 24 34 40 46 51 61 67 66 66 66 70 72 72 72 72 72 72 73 74 74 74 74 74 73 73 73 73 73 74 75 75 74 73 73 71 70
33 30 28 23 20 24 23 25 25 24 24 24 22 23 34 43 49 56 64 65 66 66 67 71 71 72 72 72 72 72 72 72 73 73 74 74 74 73 73 73 74 74 75 75 74 74 73 71 70
31 28 25 23 23 24 25 25 25 25 25 24 25 27 31 40 53 59 63 64 65 67 69 70 71 71 72 72 72 71 71 71 72 73 73 74 74 74 73 73 73 74 74 74 74 73 73 71 70
30 29 25 21 24 24 26 26 25 26 26 24 25 27 28 34 36 45 54 60 66 69 70 70 71 71 71 72 71 71 71 71 71 71 72 73 73 73 73 73 73 73 73 73 73 72 72 71 70
32 30 26 26 25 26 26 27 27 27 26 25 28 26 27 30 35 36 40 52 61 68 71 72 72 71 71 70 70 70 70 70 71 71 71 72 72 72 72 72 73 73 73 72 72 72 71 71 70
30 31 27 27 26 26 25 25 27 28 27 31 29 26 28 34 35 35 35 35 42 59 68 71 72 72 72 72 70 70 70 70 70 70 70 70 71 71 71 71 72 72 72 72 72 71 71 70 69
27 28 21 24 26 26 26 26 28 31 29 31 29 30 34 34 34 36 37 37 41 44 49 64 71 71 73 72 71 70 70 70 70 70 70 69 69 68 69 70 70 71 70 70 71 70 70 69 69
28 26 24 27 27 25 28 29 29 27 26 28 28 32 33 34 36 37 36 36 39 41 44 45 60 69 71 69 71 71 71 70 70 70 70 71 70 69 67 68 69 70 69 70 70 70 69 69 67
27 24 26 26 27 29 28 27 29 27 24 25 30 29 32 31 34 36 35 34 37 39 39 42 50 64 70 69 69 69 69 69 70 71 71 71 70 71 70 68 68 69 69 68 69 70 71 70 67
25 24 24 26 31 30 28 29 26 24 24 26 29 30 28 29 32 34 35 38 40 41 43 53 55 58 67 69 69 69 68 69 69 70 71 71 71 70 70 70 68 68 67 67 69 70 69 69 68
25 26 30 30 31 30 29 26 24 22 27 28 28 27 28 30 35 38 42 44 47 49 52 56 59 64 66 69 69 70 70 70 70 70 70 70 71 71 70 70 70 70 70 68 68 70 68 69 68
32 30 29 28 25 26 26 20 24 26 28 29 27 26 28 37 40 42 44 46 48 49 50 53 54 57 58 61 67 71 72 70 70 70 70 70 70 70 70 70 69 70 71 71 69 67 68 69 69
30 26 23 22 23 23 25 17 22 26 28 25 25 27 31 41 42 44 45 46 46 47 48 48 49 51 54 55 58 61 62 64 64 65 63 64 65 65 68 68 68 68 69 70 70 69 70 69 69
25 26 13 23 23 26 20 6 21 26 25 25 27 30 36 41 41 42 43 43 43 43 44 44 44 46 49 51 52 55 55 57 58 58 59 59 59 59 62 64 65 65 66 66 70 68 68 68 68
26 6 15 15 21 21 19 16 18 23 26 28 32 35 39 39 39 40 40 40 40 40 41 41 43 43 45 46 49 50 52 51 51 52 52 53 55 55 56 58 61 63 62 63 64 66 68 68 67
6 14 18 12 19 22 20 19 22 25 29 36 36 39 39 38 38 39 39 40 39 40 40 39 40 42 43 43 46 48 48 48 47 48 49 51 52 53 53 53 55 57 57 59 62 63 65 66 66
19 17 14 16 22 26 22 22 23 28 35 37 38 39 39 38 38 37 38 38 39 40 40 39 39 39 39 41 41 43 44 47 46 45 48 48 50 52 52 51 52 53 53 55 58 58 61 63 66
24 21 19 19 26 28 21 23 28 35 37 38 37 37 38 38 37 37 37 37 38 38 39 38 38 39 38 38 39 41 43 44 45 44 46 46 47 49 48 50 49 50 51 53 55 56 55 57 63
24 23 19 21 25 25 26 20 32 35 37 37 38 38 38 37 37 37 36 37 38 38 39 38 38 38 39 40 39 39 41 41 41 41 42 44 45 46 45 47 47 48 49 50 50 51 53 53 55
18 23 25 25 23 18 26 13 25 30 34 35 36 37 37 37 36 36 37 37 38 38 38 39 38 38 38 40 39 41 39 38 39 40 41 41 43 43 43 44 45 46 47 48 49 50 52 52 52
19 28 27 26 26 25 21 22 19 29 29 33 34 36 37 38 38 37 37 36 36 36 36 37 38 37 38 39 39 39 39 38 38 38 40 40 40 41 41 42 42 43 44 45 46 47 48 50 52
29 29 29 29 26 22 17 19 12 25 26 31 34 36 36 36 36 36 36 36 36 37 37 37 37 36 37 36 37 38 38 37 37 37 36 36 37 38 39 39 40 41 42 43 44 45 46 48 49
29 27 23 18 21 13 23 21 19 27 30 32 34 35 37 37 36 35 35 35 36 36 36 36 36 35 36 36 35 36 35 36 36 36 35 35 34 35 36 37 38 39 40 41 42 43 45 46 48
28 26 18 11 10 13 22 21 25 31 33 35 35 36 37 37 36 36 35 35 34 34 34 34 34 34 35 35 35 35 34 34 34 34 34 35 35 34 35 36 37 38 39 39 40 41 43 45 46
29 28 25 23 23 25 16 18 32 34 35 35 36 36 36 36 35 35 35 33 33 33 33 33 33 32 33 34 34 34 34 34 33 33 33 33 34 33 34 35 35 36 37 37 38 39 40 41 43
30 29 29 30 20 17 13 16 25 34 36 35 37 37 36 36 35 34 33 32 32 32 32 33 32 32 32 33 33 32 32 32 33 32 32 32 32 32 33 33 34 34 35 35 36 37 39 39 41
30 30 30 28 26 19 15 22 37 41 36 36 37 37 37 36 34 33 32 31 31 31 32 32 32 32 33 33 32 32 32 32 32 32 31 31 32 32 32 32 33 32 33 34 34 34 35 35 36
26 25 28 29 28 31 29 25 31 31 34 34 34 35 36 35 33 29 28 28 29 29 30 30 31 32 32 32 32 32 31 31 31 31 30 31 31 31 30 31 31 32 32 32 32 32 32 32 33

GFSSGP_sfc_dewp_129.txt.gz
Dewpoint
52 42 35 32 26 20 15 16 20 19 20 22 21 24 24 37 40 43 59 63 64 64 68 70 72 73 73 73 74 74 74 74 74 74 74 74 74 74 74 74 74 74 75 74 73 73 72 72 72
34 33 33 28 20 16 14 19 19 22 23 21 18 22 25 38 47 50 57 62 64 65 69 67 72 72 73 73 73 74 74 74 74 74 74 74 74 73 74 74 74 74 75 74 72 72 72 72 71
36 32 28 24 21 15 19 20 22 23 23 20 17 26 35 40 47 50 61 61 62 63 64 71 72 72 72 72 73 73 74 74 74 74 74 74 74 74 74 74 74 74 75 74 72 72 73 71 70
30 30 27 21 18 22 22 23 24 22 23 22 18 26 37 48 52 56 59 58 60 63 66 71 72 72 71 72 72 73 73 73 73 73 74 74 74 74 73 73 74 75 75 75 74 74 73 70 69
31 29 24 22 20 23 22 24 24 24 24 23 22 26 33 36 45 51 57 58 61 64 67 71 71 72 72 72 72 72 72 72 73 73 73 74 74 74 73 73 73 74 74 74 74 74 73 71 70
30 29 24 18 21 23 24 25 24 25 24 24 25 26 30 35 36 40 45 54 60 65 67 70 72 72 72 72 72 71 71 71 72 73 73 74 74 73 73 73 73 73 74 73 73 73 72 72 70
31 29 23 22 22 24 25 27 26 26 26 26 27 27 29 33 36 36 39 41 51 62 67 71 72 72 71 71 71 71 71 71 71 71 72 73 73 73 73 73 72 73 73 73 73 72 71 71 71
28 28 24 17 21 25 26 26 27 28 28 31 30 26 30 35 36 37 36 36 41 48 56 65 69 71 72 73 70 70 71 71 70 71 70 71 71 72 72 72 72 72 72 72 72 72 71 71 70
28 25 17 18 17 26 26 26 28 30 29 30 30 30 33 35 35 38 38 36 40 43 48 53 60 64 69 71 70 71 71 71 70 70 70 69 68 68 69 70 70 71 71 70 71 70 70 70 69
25 21 22 25 24 21 25 27 26 26 26 26 29 31 32 32 33 37 35 36 39 41 43 44 58 61 65 64 67 71 71 70 70 70 70 71 70 68 66 67 69 70 70 70 70 69 69 69 66
24 22 26 24 25 26 22 22 23 22 21 22 25 28 29 28 32 35 35 37 41 44 46 53 59 65 62 63 63 64 65 67 68 72 72 73 71 70 72 69 69 69 70 69 69 69 68 67 66
23 20 21 17 26 24 22 22 22 20 20 22 25 27 25 27 32 36 39 41 44 46 49 54 56 60 66 67 63 62 62 63 64 66 71 72 72 70 71 70 71 70 68 68 70 71 69 68 68
19 13 22 23 26 26 24 23 22 19 21 24 24 24 25 31 38 39 41 43 45 46 50 51 53 56 59 63 64 71 70 68 68 69 71 71 71 72 72 71 71 71 71 71 69 69 68 69 69
28 27 26 25 23 22 22 19 19 18 23 24 25 24 32 38 39 41 42 44 45 46 47 49 50 53 56 57 59 61 63 65 68 67 65 65 67 70 71 70 70 70 70 69 70 70 69 69 69
27 24 19 20 20 20 23 17 16 22 26 22 23 25 34 39 40 42 43 43 44 44 46 47 48 50 52 55 54 56 58 61 60 62 61 61 61 61 62 65 69 69 70 69 70 70 70 69 68
21 22 16 14 20 22 19 10 19 24 24 21 23 28 37 39 39 41 42 42 42 43 44 45 45 48 50 51 53 52 54 55 56 56 55 57 56 58 59 61 63 65 65 66 67 69 67 68 69
22 12 15 16 18 15 18 12 15 19 20 22 27 31 37 37 38 40 41 42 42 43 44 43 44 45 48 49 49 50 53 51 52 52 52 55 55 55 56 57 60 62 61 64 64 65 66 67 66
12 17 13 12 17 19 17 17 16 17 22 29 32 36 37 37 37 39 40 41 41 42 42 42 43 44 44 45 47 47 48 51 50 49 51 51 52 53 53 53 55 55 55 56 59 62 63 64 64
16 15 10 10 11 18 22 20 16 19 26 31 34 37 37 38 38 39 40 40 40 41 41 40 42 43 42 40 41 44 44 47 48 48 49 49 50 51 51 50 51 52 51 53 55 56 57 56 62
21 17 14 15 16 22 21 17 17 24 30 34 34 36 37 38 38 38 39 40 41 41 41 40 40 41 42 41 42 42 44 44 44 45 46 47 47 48 46 47 47 48 49 50 52 52 52 53 55
19 17 17 16 17 20 20 18 20 30 35 36 36 36 37 37 37 37 38 40 41 40 41 40 40 40 42 43 41 42 42 42 41 42 43 44 45 46 46 45 45 46 47 47 49 50 50 50 52
18 16 21 19 17 15 23 18 18 28 33 34 34 36 37 37 36 37 38 38 38 39 40 40 40 39 40 42 41 42 40 40 41 41 41 42 44 44 44 44 44 44 44 45 46 47 48 49 49
19 24 22 20 20 20 17 16 16 18 29 31 33 35 37 38 38 37 37 37 37 39 39 40 39 39 39 39 40 38 39 38 39 40 41 41 42 42 42 42 42 42 42 43 44 45 45 47 47
24 25 24 24 22 21 18 15 12 14 25 26 31 35 37 37 37 37 37 37 37 38 38 39 38 37 38 38 38 38 38 37 36 36 37 38 38 39 40 39 40 40 41 41 42 43 44 45 47
26 24 22 20 21 20 19 16 15 24 25 25 32 34 37 37 37 37 36 36 36 36 37 36 36 35 37 37 37 37 36 37 36 35 35 35 37 36 37 38 38 38 39 39 40 41 42 44 45
25 23 18 11 12 9 20 19 21 27 30 33 33 35 38 38 38 37 36 35 34 34 35 35 35 34 35 35 35 35 35 34 34 34 34 34 34 35 36 37 37 37 37 38 38 39 41 42 43
22 25 21 21 20 20 16 15 29 32 34 35 35 36 38 38 38 37 36 35 33 33 34 35 34 33 34 34 35 34 33 34 33 33 34 33 34 33 34 35 35 35 36 37 37 38 38 38 39
22 24 25 27 17 15 12 15 23 34 37 35 36 38 38 37 37 36 35 33 33 33 33 34 34 33 33 34 33 33 33 33 33 33 32 33 33 33 33 33 34 34 35 35 35 35 35 35 36
22 26 26 25 23 17 14 22 32 37 35 37 36 38 38 37 36 36 34 31 32 32 32 33 33 33 33 33 33 33 33 33 32 32 32 32 33 32 32 32 33 33 33 34 34 33 33 33 33
20 24 24 30 24 29 27 27 27 30 31 33 34 35 38 38 36 34 31 30 30 31 31 31 32 32 32 32 32 33 33 32 32 31 31 33 33 32 31 32 32 32 31 32 33 33 32 32 32